[[{"header":{"parameterUnit":"m.s-1","parameterCategory":1,"la1":30.6,"la2":28.766,"lo1":-90.7593,"lo2":-88.6598,"dy":0.0162,"dx":0.0183,"nx":116,"ny":114,"refTime":"2024-03-16T06:00:00:Z","depth":0,"parameterNumber":2,"parameterNumberName":"U-component_of_WINDS"},"data":[0.0,0.0,0.0,0.0,0.0,0.0,0.0,0.0,0.0,0.0,0.0,0.0,0.0,0.0,0.0,0.0,0.0,0.0,0.0,0.0,0.0,0.0,0.0,0.0,0.0,0.0,0.0,0.0,0.0,0.0,0.0,0.0,0.0,0.0,0.0,0.0,0.0,0.0,0.0,0.0,0.0,0.0,0.0,0.0,0.0,0.0,0.0,0.0,0.0,0.0,0.0,0.0,0.0,0.0,0.0,0.0,0.0,0.0,0.0,0.0,0.0,0.0,0.0,0.0,0.0,0.0,0.0,0.0,0.0,0.0,0.0,0.0,0.0,0.0,0.0,0.0,0.0,0.0,0.0,0.0,0.0,0.0,0.0,0.0,0.0,0.0,0.0,0.0,0.0,0.0,0.0,0.0,0.0,0.0,0.0,0.0,0.0,0.0,0.0,0.0,0.0,0.0,0.0,0.0,0.0,0.0,0.0,0.0,0.0,0.0,0.0,0.0,0.0,0.0,0.0,0.0,0.0,0.0,0.0,0.0,0.0,0.0,0.0,0.0,0.0,0.0,0.0,0.0,0.0,0.0,0.0,0.0,0.0,0.0,0.0,0.0,0.0,0.0,0.0,0.0,0.0,0.0,0.0,0.0,0.0,0.0,0.0,0.0,0.0,0.0,0.0,0.0,0.0,0.0,0.0,0.0,0.0,0.0,0.0,0.0,0.0,0.0,0.0,0.0,0.0,0.0,0.0,0.0,0.0,0.0,0.0,0.0,0.0,0.0,0.0,0.0,0.0,0.0,0.0,0.0,0.0,0.0,0.0,0.0,0.0,0.0,0.0,0.0,0.0,0.0,0.0,0.0,0.0,0.0,0.0,0.0,0.0,0.0,0.0,0.0,0.0,0.0,0.0,0.0,0.0,0.0,0.0,0.0,0.0,0.0,0.0,0.0,0.0,0.0,0.0,0.0,0.0,0.0,0.0,0.0,0.0,0.0,0.0,0.0,0.0,0.0,0.0,0.0,0.0,0.0,0.0,0.0,0.0,0.0,0.0,0.0,0.0,0.0,0.0,0.0,0.0,0.0,0.0,0.0,0.0,0.0,0.0,0.0,0.0,0.0,0.0,0.0,0.0,0.0,0.0,0.0,0.0,0.0,0.0,0.0,0.0,0.0,0.0,0.0,0.0,0.0,0.0,0.0,0.0,0.0,0.0,0.0,0.0,0.0,0.0,0.0,0.0,0.0,0.0,0.0,0.0,0.0,0.0,0.0,0.0,0.0,0.0,0.0,0.0,0.0,0.0,0.0,0.0,0.0,0.0,0.0,0.0,0.0,0.0,0.0,0.0,0.0,0.0,0.0,0.0,0.0,0.0,0.0,0.0,0.0,0.0,0.0,0.0,0.0,0.0,0.0,0.0,0.0,0.0,0.0,0.0,0.0,0.0,0.0,0.0,0.0,0.0,0.0,0.0,0.0,0.0,0.0,0.0,0.0,0.0,0.0,0.0,0.0,0.0,0.0,0.0,0.0,0.0,0.0,0.0,0.0,0.0,0.0,0.0,0.0,0.0,0.0,0.0,0.0,0.0,0.0,0.0,0.0,0.0,0.0,0.0,0.0,0.0,0.0,0.0,0.0,0.0,0.0,0.0,0.0,0.0,0.0,0.0,0.0,0.0,0.0,0.0,0.0,0.0,0.0,0.0,0.0,0.0,0.0,0.0,0.0,0.0,0.0,0.0,0.0,0.0,0.0,0.0,0.0,0.0,0.0,0.0,0.0,0.0,0.0,0.0,0.0,0.0,0.0,0.0,0.0,0.0,0.0,0.0,0.0,0.0,0.0,0.0,0.0,0.0,0.0,0.0,0.0,0.0,0.0,0.0,0.0,0.0,0.0,0.0,0.0,0.0,0.0,0.0,0.0,0.0,0.0,0.0,0.0,0.0,0.0,0.0,0.0,0.0,0.0,0.0,0.0,0.0,0.0,0.0,0.0,0.0,0.0,0.0,0.0,0.0,0.0,0.0,0.0,0.0,0.0,0.0,0.0,0.0,0.0,0.0,0.0,0.0,0.0,0.0,0.0,0.0,0.0,0.0,0.0,0.0,0.0,0.0,0.0,0.0,0.0,0.0,0.0,0.0,0.0,0.0,0.0,0.0,0.0,0.0,0.0,0.0,0.0,0.0,0.0,0.0,0.0,0.0,0.0,0.0,0.0,0.0,0.0,0.0,0.0,0.0,0.0,0.0,0.0,0.0,0.0,0.0,0.0,0.0,0.0,0.0,0.0,0.0,0.0,0.0,0.0,0.0,0.0,0.0,0.0,0.0,0.0,0.0,0.0,0.0,0.0,0.0,0.0,0.0,0.0,0.0,0.0,0.0,0.0,0.0,0.0,0.0,0.0,0.0,0.0,0.0,0.0,0.0,0.0,0.0,0.0,0.0,0.0,0.0,0.0,0.0,0.0,0.0,0.0,0.0,0.0,0.0,0.0,0.0,0.0,0.0,0.0,0.0,0.0,0.0,0.0,0.0,0.0,0.0,0.0,0.0,0.0,0.0,0.0,0.0,0.0,0.0,0.0,0.0,0.0,0.0,0.0,0.0,0.0,0.0,0.0,0.0,0.0,0.0,0.0,0.0,0.0,0.0,0.0,0.0,0.0,0.0,0.0,0.0,0.0,0.0,0.0,0.0,0.0,0.0,0.0,0.0,0.0,0.0,0.0,0.0,0.0,0.0,0.0,0.0,0.0,0.0,0.0,0.0,0.0,0.0,0.0,0.0,0.0,0.0,0.0,0.0,0.0,0.0,0.0,0.0,0.0,0.0,0.0,0.0,0.0,0.0,0.0,0.0,0.0,0.0,0.0,0.0,0.0,0.0,0.0,0.0,0.0,0.0,0.0,0.0,0.0,0.0,0.0,0.0,0.0,0.0,0.0,0.0,0.0,0.0,0.0,0.0,0.0,0.0,0.0,0.0,0.0,0.0,0.0,0.0,0.0,0.0,0.0,0.0,0.0,0.0,0.0,0.0,0.0,0.0,0.0,0.0,0.0,0.0,0.0,0.0,0.0,0.0,0.0,0.0,0.0,0.0,0.0,0.0,0.0,0.0,0.0,0.0,0.0,0.0,0.0,0.0,0.0,0.0,0.0,0.0,0.0,0.0,0.0,0.0,0.0,0.0,0.0,0.0,0.0,0.0,0.0,0.0,0.0,0.0,0.0,0.0,0.0,0.0,0.0,0.0,0.0,0.0,0.0,0.0,0.0,0.0,0.0,0.0,0.0,0.0,0.0,0.0,0.0,0.0,0.0,0.0,0.0,0.0,0.0,0.0,0.0,0.0,0.0,0.0,0.0,0.0,0.0,0.0,0.0,0.0,0.0,0.0,0.0,0.0,0.0,0.0,0.0,0.0,0.0,0.0,0.0,0.0,0.0,0.0,0.0,0.0,0.0,0.0,0.0,0.0,0.0,0.0,0.0,0.0,0.0,0.0,0.0,0.0,0.0,0.0,0.0,0.0,0.0,0.0,0.0,0.0,0.0,0.0,0.0,0.0,0.0,0.0,0.0,0.0,0.0,0.0,0.0,0.0,0.0,0.0,0.0,0.0,0.0,0.0,0.0,0.0,0.0,0.0,0.0,0.0,0.0,0.0,0.0,0.0,0.0,0.0,0.0,0.0,0.0,0.0,0.0,0.0,0.0,0.0,0.0,0.0,0.0,0.0,0.0,0.0,0.0,0.0,0.0,0.0,0.0,0.0,0.0,0.0,0.0,0.0,0.0,0.0,0.0,0.0,0.0,0.0,0.0,0.0,0.0,0.0,0.0,0.0,0.0,0.0,0.0,0.0,0.0,0.0,0.0,0.0,0.0,0.0,0.0,0.0,0.0,0.0,0.0,0.0,0.0,0.0,0.0,0.0,0.0,0.0,0.0,0.0,0.0,0.0,0.0,0.0,0.0,0.0,0.0,0.0,0.0,0.0,0.0,0.0,0.0,0.0,0.0,0.0,0.0,0.0,0.0,0.0,0.0,0.0,0.0,0.0,0.0,0.0,0.0,0.0,0.0,0.0,0.0,0.0,0.0,0.0,0.0,0.0,0.0,0.0,0.0,0.0,0.0,0.0,0.0,0.0,0.0,0.0,0.0,0.0,0.0,0.0,0.0,0.0,0.0,0.0,0.0,0.0,0.0,0.0,0.0,0.0,0.0,0.0,0.0,0.0,0.0,0.0,0.0,0.0,0.0,0.0,0.0,0.0,0.0,0.0,0.0,0.0,0.0,0.0,0.0,0.0,0.0,0.0,0.0,0.0,0.0,0.0,0.0,0.0,0.0,0.0,0.0,0.0,0.0,0.0,0.0,0.0,0.0,0.0,0.0,0.0,0.0,0.0,0.0,0.0,0.0,0.0,0.0,0.0,0.0,0.0,0.0,0.0,0.0,0.0,0.0,0.0,0.0,0.0,0.0,0.0,0.0,0.0,0.0,0.0,0.0,0.0,0.0,0.0,0.0,0.0,0.0,0.0,0.0,0.0,0.0,0.0,0.0,0.0,0.0,0.0,0.0,0.0,0.0,0.0,0.0,0.0,0.0,0.0,0.0,0.0,0.0,0.0,0.0,0.0,0.0,0.0,0.0,0.0,0.0,0.0,0.0,0.0,0.0,0.0,0.0,0.0,0.0,0.0,0.0,0.0,0.0,0.0,0.0,0.0,0.0,0.0,0.0,0.0,0.0,0.0,0.0,0.0,0.0,0.0,0.0,0.0,0.0,0.0,0.0,0.0,0.0,0.0,0.0,0.0,0.0,0.0,0.0,0.0,0.0,0.0,0.0,0.0,0.0,0.0,0.0,0.0,0.0,0.0,0.0,0.0,0.0,0.0,0.0,0.0,0.0,0.0,0.0,0.0,0.0,0.0,0.0,0.0,0.0,0.0,0.0,0.0,0.0,0.0,0.0,0.0,0.0,0.0,0.0,0.0,0.0,0.0,0.0,0.0,0.0,0.0,0.0,0.0,0.0,0.0,0.0,0.0,0.0,0.0,0.0,0.0,0.0,0.0,0.0,0.0,0.0,0.0,0.0,0.0,0.0,0.0,0.0,0.0,0.0,0.0,0.0,0.0,0.0,0.0,0.0,0.0,0.0,0.0,0.0,0.0,0.0,0.0,0.0,0.0,0.0,0.0,0.0,0.0,0.0,0.0,0.0,0.0,0.0,0.0,0.0,0.0,0.0,0.0,0.0,0.0,0.0,0.0,0.0,0.0,0.0,0.0,0.0,0.0,0.0,0.0,0.0,0.0,0.0,0.0,0.0,0.0,0.0,0.0,0.0,0.0,0.0,0.0,0.0,0.0,0.0,0.0,0.0,0.0,0.0,0.0,0.0,0.0,0.0,0.0,0.0,0.0,0.0,0.0,0.0,0.0,0.0,0.0,0.0,0.0,0.0,0.0,0.0,0.0,0.0,0.0,0.0,0.0,0.0,0.0,0.0,0.0,0.0,0.0,0.0,0.0,0.0,0.0,0.0,0.0,0.0,0.0,0.0,0.0,0.0,0.0,0.0,0.0,0.0,0.0,0.0,0.0,0.0,0.0,0.0,0.0,0.0,0.0,0.0,0.0,0.0,0.0,0.0,0.0,0.0,0.0,0.0,0.0,0.0,0.0,0.0,0.0,0.0,0.0,0.0,0.0,0.0,0.0,0.0,0.0,0.0,0.0,0.0,0.0,0.0,0.0,0.0,0.0,0.0,0.0,0.0,0.0,0.0,0.0,0.0,0.0,0.0,0.0,0.0,0.0,0.0,0.0,0.0,0.0,0.0,0.0,0.0,0.0,0.0,0.0,0.0,0.0,0.0,0.0,0.0,0.0,0.0,0.0,0.0,0.0,0.0,0.0,0.0,0.0,0.0,0.0,0.0,0.0,0.0,0.0,0.0,0.0,0.0,0.0,0.0,0.0,0.0,0.0,0.0,0.0,0.0,0.0,0.0,0.0,0.0,0.0,0.0,0.0,0.0,0.0,0.0,0.0,0.0,0.0,0.0,0.0,0.0,0.0,0.0,0.0,0.0,0.0,0.0,0.0,0.0,0.0,0.0,0.0,0.0,0.0,0.0,0.0,0.0,0.0,0.0,0.0,0.0,0.0,0.0,2.8409,0.0,0.0,0.0,0.0,0.0,0.0,0.0,0.0,0.0,0.0,0.0,0.0,0.0,0.0,0.0,0.0,0.0,0.0,0.0,0.0,0.0,0.0,0.0,0.0,0.0,0.0,0.0,2.4962,2.5088,2.5303,2.5303,2.5303,2.5303,2.5322,2.539,2.5447,2.5487,2.5522,2.5549,2.5551,2.5303,2.4831,2.5284,2.5517,2.5547,0.0,0.0,0.0,0.0,0.0,0.0,0.0,0.0,0.0,0.0,0.0,0.0,0.0,0.0,0.0,0.0,0.0,0.0,0.0,0.0,0.0,0.0,0.0,0.0,0.0,0.0,0.0,0.0,0.0,0.0,0.0,0.0,0.0,0.0,0.0,0.0,0.0,0.0,0.0,0.0,0.0,0.0,0.0,0.0,0.0,0.0,0.0,0.0,0.0,0.0,0.0,0.0,0.0,0.0,0.0,0.0,0.0,0.0,0.0,0.0,0.0,0.0,0.0,0.0,0.0,0.0,0.0,0.0,0.0,0.0,0.0,2.9102,0.0,0.0,0.0,0.0,0.0,0.0,0.0,0.0,0.0,0.0,0.0,0.0,0.0,0.0,0.0,0.0,0.0,0.0,0.0,0.0,0.0,0.0,0.0,2.441,2.4578,2.4731,2.485,2.5018,2.5224,2.5253,2.5264,2.5303,2.5303,2.537,2.5505,2.5512,2.5531,2.5601,2.5582,2.5582,2.562,2.562,2.573,2.5904,2.5687,0.0,0.0,0.0,0.0,0.0,0.0,0.0,0.0,0.0,0.0,0.0,0.0,0.0,0.0,0.0,0.0,0.0,0.0,0.0,0.0,0.0,0.0,0.0,0.0,0.0,0.0,0.0,0.0,0.0,0.0,0.0,0.0,0.0,0.0,0.0,0.0,0.0,0.0,0.0,0.0,0.0,0.0,0.0,0.0,0.0,0.0,0.0,0.0,0.0,0.0,0.0,0.0,0.0,0.0,0.0,0.0,0.0,0.0,0.0,0.0,0.0,0.0,0.0,0.0,3.0475,3.0629,3.0775,3.0852,3.0794,2.9929,2.9467,2.9333,0.0,0.0,0.0,0.0,0.0,0.0,0.0,0.0,0.0,0.0,0.0,0.0,0.0,0.0,0.0,0.0,0.0,0.0,0.0,0.0,0.0,0.0,2.4478,2.4512,2.4545,2.4559,2.4693,2.5022,2.5034,2.5111,2.5284,2.5303,2.537,2.5505,2.5512,2.5531,2.5601,2.5486,2.5774,2.6447,2.6447,2.6852,2.7518,2.6129,2.6227,2.734,0.0,0.0,0.0,0.0,0.0,0.0,0.0,0.0,0.0,0.0,0.0,0.0,0.0,0.0,0.0,0.0,0.0,0.0,0.0,0.0,0.0,0.0,0.0,0.0,0.0,0.0,0.0,0.0,0.0,0.0,0.0,0.0,0.0,0.0,0.0,0.0,0.0,0.0,0.0,0.0,0.0,2.4454,2.5075,0.0,0.0,0.0,0.0,0.0,0.0,0.0,0.0,0.0,0.0,0.0,0.0,0.0,0.0,2.8775,2.8294,2.8794,3.0237,3.034,3.0814,3.1545,3.2256,3.2564,3.2526,3.1718,0.0,3.0237,3.0237,0.0,0.0,0.0,0.0,0.0,0.0,0.0,0.0,0.0,0.0,0.0,0.0,0.0,0.0,0.0,0.0,0.0,0.0,0.0,0.0,0.0,2.441,2.4375,2.4495,2.5333,2.5564,2.4921,2.585,2.6022,2.5179,2.5253,2.537,2.5505,2.5512,2.5738,2.6273,2.664,2.6986,2.7332,2.7794,2.8198,2.8544,2.7832,2.7377,2.7071,2.624,0.0,0.0,0.0,0.0,0.0,0.0,0.0,0.0,0.0,0.0,0.0,0.0,0.0,0.0,0.0,0.0,0.0,0.0,0.0,0.0,0.0,0.0,0.0,0.0,0.0,0.0,0.0,0.0,0.0,0.0,0.0,0.0,0.0,0.0,0.0,0.0,0.0,0.0,0.0,2.5302,2.564,2.6635,2.6978,2.7395,0.0,0.0,0.0,0.0,0.0,0.0,0.0,0.0,0.0,2.8593,2.8593,2.8986,2.9813,2.9967,3.041,3.1141,3.2083,3.2737,3.3122,3.3987,3.4622,3.5026,3.4661,3.4045,3.3109,3.1186,3.0398,3.0398,0.0,0.0,0.0,0.0,0.0,3.0658,0.0,0.0,0.0,0.0,0.0,0.0,0.0,0.0,0.0,0.0,0.0,0.0,2.4839,2.4708,2.4801,2.5301,2.6247,2.6395,2.5415,2.6197,2.6214,2.5056,2.5152,2.5407,2.5803,2.6223,2.6668,2.7108,2.8283,2.8871,2.889,2.9698,3.0063,3.0063,3.0063,2.9221,2.7719,2.6961,2.6352,2.5894,0.0,0.0,0.0,0.0,0.0,0.0,0.0,0.0,0.0,0.0,0.0,0.0,0.0,0.0,0.0,0.0,0.0,0.0,0.0,0.0,0.0,0.0,0.0,0.0,0.0,0.0,0.0,0.0,0.0,0.0,0.0,0.0,0.0,0.0,0.0,0.0,0.0,2.6154,2.645,2.7716,2.7706,2.7932,0.0,0.0,0.0,0.0,0.0,0.0,2.8198,2.8409,2.8717,2.9083,2.9313,2.9852,3.0717,3.1583,3.2237,3.2699,3.4141,3.4949,3.518,3.5834,3.6469,3.7026,3.7026,3.6584,3.5584,3.2602,3.1121,3.0717,3.0475,3.0448,3.0525,3.0814,3.096,3.1086,0.0,0.0,0.0,0.0,0.0,0.0,0.0,0.0,0.0,0.0,0.0,2.4372,2.5774,2.5736,2.6172,2.7518,2.7019,2.6663,2.6786,2.5444,2.4757,2.4998,2.501,2.552,2.6619,2.8195,2.8656,2.7934,3.034,3.1506,3.1525,3.2333,3.2718,3.2718,3.2718,3.1972,3.0525,2.8234,2.7522,2.7845,2.6351,0.0,0.0,0.0,0.0,0.0,0.0,0.0,0.0,0.0,0.0,0.0,0.0,0.0,0.0,0.0,0.0,0.0,0.0,0.0,0.0,0.0,0.0,0.0,0.0,0.0,0.0,0.0,0.0,0.0,0.0,0.0,0.0,0.0,0.0,0.0,0.0,0.0,0.0,2.7104,2.7631,0.0,0.0,0.0,0.0,2.9014,2.8887,2.8836,2.9025,2.9813,2.991,2.9121,2.991,3.0756,3.1641,3.2449,3.368,3.5334,3.618,3.7007,3.7815,3.7853,3.7892,3.793,3.793,3.745,3.6507,3.4737,3.3064,3.1545,3.0717,3.0448,3.0602,3.1434,3.1811,3.2054,0.0,0.0,0.0,0.0,0.0,0.0,0.0,0.0,2.5303,2.5303,2.5246,2.5622,2.6663,2.74,2.8021,2.8521,2.9255,2.9062,2.7585,2.7177,2.6841,2.6427,2.6173,2.6729,2.828,2.8395,2.9075,3.0445,3.1821,3.2468,3.2506,3.3681,3.4251,3.4235,3.4084,3.3941,3.3649,3.0319,2.8291,2.7233,2.6172,2.5897,0.0,0.0,0.0,0.0,0.0,0.0,0.0,0.0,0.0,0.0,0.0,0.0,0.0,0.0,0.0,0.0,0.0,0.0,0.0,0.0,0.0,0.0,0.0,0.0,0.0,0.0,0.0,0.0,0.0,0.0,0.0,0.0,0.0,0.0,0.0,0.0,0.0,2.8836,2.915,0.0,0.0,2.9282,2.9294,2.9467,2.9696,2.985,2.9929,3.0237,3.1006,3.2333,3.2679,3.3776,3.5738,3.6045,3.6488,3.7123,3.7969,3.8546,3.8854,3.9373,3.9604,3.9604,3.9604,3.9142,3.8277,3.7123,3.5334,3.3218,3.2352,3.2083,3.2216,3.2569,3.2755,3.2971,0.0,0.0,0.0,0.0,0.0,0.0,0.0,0.0,2.5303,2.5303,2.5716,2.6516,2.7874,2.9082,3.0044,3.0577,3.1091,3.0595,2.8723,2.8164,2.7691,2.7223,2.7638,2.8126,2.8663,2.9594,3.0924,3.2622,3.3667,3.4274,3.4472,3.5405,3.5798,3.5704,3.5526,3.5631,3.5727,3.2908,3.0279,2.7911,2.6838,2.686,2.7501,0.0,0.0,0.0,0.0,0.0,0.0,0.0,0.0,0.0,0.0,0.0,0.0,0.0,0.0,0.0,0.0,0.0,0.0,0.0,0.0,0.0,0.0,0.0,0.0,0.0,0.0,0.0,0.0,0.0,0.0,0.0,0.0,0.0,0.0,0.0,2.8948,3.0672,3.0701,3.0632,3.0828,3.0389,3.0189,3.0361,3.0595,3.0899,3.1225,3.1814,3.2891,3.4584,3.518,3.6295,3.7988,3.8296,3.843,3.845,3.9296,3.97,3.9719,4.0258,4.0662,4.0931,4.0931,4.0642,4.0085,3.92,3.77,3.5809,3.4366,3.3878,3.4024,3.4399,3.4602,3.4768,0.0,0.0,0.0,0.0,0.0,0.0,0.0,2.5303,2.5303,2.5303,2.5741,2.697,2.9381,3.075,3.21,3.3697,3.2339,3.1054,3.0307,2.8118,2.6985,2.722,2.9218,2.955,2.7841,3.1987,3.4205,3.4314,3.5935,3.7003,3.7526,3.7546,3.7432,3.7197,3.7194,3.7071,3.6801,3.5926,3.3562,3.0283,2.8576,2.8993,3.0416,0.0,0.0,0.0,0.0,0.0,0.0,0.0,0.0,0.0,0.0,0.0,0.0,0.0,0.0,0.0,0.0,0.0,0.0,0.0,0.0,0.0,0.0,0.0,0.0,0.0,0.0,0.0,0.0,0.0,0.0,0.0,0.0,0.0,2.9113,2.9244,3.0112,3.242,3.219,3.1718,3.1455,3.0725,3.068,3.1731,3.1665,3.1996,3.3013,3.4661,3.5603,3.5622,3.7199,3.8065,3.8123,3.895,3.9373,3.9392,4.02,4.0566,4.0527,4.0566,4.1046,4.1854,4.1854,4.1835,4.1739,4.0893,4.0138,3.923,3.6683,3.5727,3.5907,3.6876,3.7293,3.75,0.0,0.0,0.0,0.0,0.0,0.0,0.0,2.5303,2.5303,2.5303,2.6721,2.8441,3.0265,3.2061,3.355,3.4568,3.2669,3.1391,3.1343,2.8147,2.6681,2.7656,2.8503,3.0037,3.234,3.3149,3.4668,3.6949,3.6993,3.7281,3.7878,3.8669,3.9096,3.9276,3.9438,3.9784,4.0104,3.7896,3.6398,3.5183,3.177,3.0489,3.049,0.0,0.0,0.0,0.0,0.0,0.0,0.0,0.0,0.0,0.0,0.0,0.0,0.0,0.0,0.0,0.0,0.0,0.0,0.0,0.0,0.0,0.0,0.0,0.0,0.0,0.0,0.0,0.0,0.0,0.0,0.0,0.0,2.9144,2.9963,3.1641,3.3263,3.4553,3.494,3.484,3.4108,3.3859,3.3853,3.4148,3.4817,3.5638,3.6546,3.7046,3.7603,3.8238,3.87,3.9527,4.0739,4.0989,4.1104,4.1123,4.197,4.2047,4.147,4.2104,4.2527,4.2739,4.2739,4.2374,4.1797,4.1643,4.1466,4.1035,3.8479,3.7564,3.7687,3.797,3.8537,3.9219,0.0,0.0,0.0,0.0,0.0,0.0,0.0,2.5303,2.5264,2.5192,2.7346,2.9363,3.0541,3.2551,3.3862,3.3963,3.2394,3.1065,3.0302,2.8539,2.7651,2.7966,2.9933,3.1843,3.3667,3.4585,3.614,3.8348,3.8136,3.8479,3.9382,3.9876,4.0339,4.0722,4.0691,4.0952,4.1304,3.9694,3.9001,3.8762,3.6046,3.4171,3.281,3.1316,3.1463,3.2378,3.1669,3.18,3.2195,3.1517,0.0,0.0,0.0,0.0,0.0,0.0,0.0,0.0,0.0,0.0,0.0,0.0,0.0,0.0,0.0,0.0,0.0,0.0,0.0,0.0,0.0,0.0,0.0,0.0,3.0617,3.1827,3.3372,3.4545,3.5565,3.6449,3.7168,3.7274,3.6396,3.63,3.63,3.63,3.6891,3.7469,3.7969,3.8354,3.8965,3.9865,4.0196,4.0989,4.2371,4.2354,4.2335,4.2354,4.2854,4.2835,4.2354,4.2874,4.3278,0.0,4.3605,4.3355,4.2931,4.3025,4.2906,0.0,0.0,0.0,0.0,0.0,3.9945,4.0449,0.0,0.0,0.0,0.0,0.0,0.0,0.0,2.5253,2.5203,2.4998,2.7595,2.9645,3.0169,3.2121,3.3146,3.2522,3.1549,3.0162,2.8236,2.897,2.9176,2.8577,3.2383,3.4242,3.3661,3.6402,3.8309,3.928,3.9517,4.0227,4.1435,4.1188,4.1349,4.1792,4.1533,4.1434,4.1415,4.1277,4.1258,4.1185,4.0359,3.8634,3.6321,3.4027,3.4468,3.6101,3.4614,3.3678,3.3062,3.2511,0.0,0.0,0.0,0.0,0.0,0.0,0.0,0.0,0.0,0.0,0.0,0.0,0.0,0.0,0.0,0.0,0.0,0.0,0.0,0.0,0.0,0.0,0.0,0.0,3.3122,3.5526,3.8065,3.793,3.7815,3.8488,3.9258,3.9392,3.8507,3.8334,3.8277,3.8277,3.82,3.8238,3.8411,0.0,0.0,0.0,0.0,4.2374,4.333,4.3275,4.3239,4.3239,4.3335,4.3335,4.3239,4.3335,4.3778,4.4451,4.4451,4.4487,4.4487,4.4506,4.4174,4.3451,4.1914,4.1768,4.2383,4.1729,4.1484,0.0,0.0,0.0,0.0,0.0,0.0,0.0,0.0,2.4981,2.5018,2.4855,2.6908,2.8425,2.8553,2.9968,3.1091,3.1586,2.9696,2.8375,2.8124,2.8444,2.9436,3.124,3.3003,3.5123,3.7622,3.9091,4.0636,4.2268,4.1795,4.1781,4.2273,4.2631,4.2875,4.298,4.3312,4.3448,4.338,4.247,4.2066,4.2011,4.1203,3.9808,3.812,3.6982,3.645,3.6248,3.5936,3.6119,3.6442,3.569,3.5615,3.5405,3.2845,3.1594,0.0,0.0,0.0,0.0,0.0,0.0,0.0,0.0,0.0,0.0,0.0,0.0,0.0,0.0,0.0,0.0,0.0,0.0,0.0,3.4949,3.6488,3.8142,4.0719,4.2085,4.2643,4.2162,4.2258,4.2027,4.1162,4.0431,4.0008,4.0008,3.9411,3.9642,4.0989,4.1219,0.0,4.2621,4.2758,4.3239,4.4083,4.4066,4.4066,4.4085,0.0,0.0,4.4085,4.4797,4.5201,4.5336,4.5468,4.5122,4.4506,4.4682,4.4311,4.3646,4.3305,4.3277,4.342,4.326,4.3223,4.3223,0.0,0.0,0.0,0.0,0.0,0.0,0.0,2.4855,2.4836,2.467,2.6386,2.7569,2.7372,2.8442,2.9163,2.9163,2.7867,2.7512,2.8646,3.0057,3.1669,3.3473,3.5671,3.7627,3.9308,4.0429,4.144,4.2363,4.2143,4.2351,4.2909,4.3006,4.325,4.3662,4.3726,4.3758,4.3721,4.314,4.2892,4.2873,4.2451,4.1827,4.0965,3.9753,3.9056,3.8707,3.8707,3.8707,3.8579,3.7771,3.7516,3.7135,3.4791,3.3602,3.2851,0.0,0.0,0.0,0.0,0.0,0.0,0.0,0.0,0.0,0.0,0.0,0.0,0.0,0.0,3.0229,3.1429,0.0,3.4891,3.7007,3.8796,4.0642,4.2758,4.3778,4.3989,4.3201,4.3451,4.3374,4.2527,4.2066,4.1797,4.1797,4.1431,4.1566,4.2412,4.245,4.2874,4.3775,4.3739,4.4143,4.5028,4.497,4.4951,4.4951,4.5393,4.5355,4.497,4.5393,4.5586,4.5605,4.5738,4.5565,4.5215,4.5445,4.5331,4.4993,4.4991,4.4473,4.3691,4.3691,4.3691,4.3691,0.0,0.0,0.0,0.0,0.0,0.0,0.0,2.4716,2.467,2.4461,2.5849,2.6673,2.6237,2.7042,2.7382,2.6785,2.6601,2.7449,2.9632,3.1984,3.4023,3.5642,3.856,4.0226,4.0449,4.1512,4.2108,4.2165,4.2401,4.2824,4.3431,4.3164,4.333,4.3912,4.3612,4.3497,4.3497,4.3497,4.3497,4.3497,4.3497,4.3497,4.3351,4.2066,4.1589,4.1552,4.1405,4.0538,3.9412,3.8872,3.8257,3.7459,3.616,3.5475,3.485,3.3468,3.2112,0.0,0.0,0.0,0.0,0.0,0.0,0.0,0.0,0.0,2.9794,3.0506,3.1468,3.2487,3.3468,3.6161,3.8411,3.8911,4.0835,4.2816,4.4335,4.4547,4.4316,4.3662,4.4162,4.4297,4.3643,4.3431,4.3335,4.3335,4.3181,4.3162,4.3316,4.3335,4.3758,4.468,4.4622,4.4932,4.5757,4.5643,4.5586,4.5586,4.5586,4.5586,4.5586,4.5586,4.5605,4.5643,4.5796,4.5899,4.5994,4.6208,4.6298,4.6308,4.6308,4.5449,4.4219,4.4219,4.4219,4.4219,0.0,0.0,0.0,0.0,0.0,0.0,0.0,0.0,2.4461,2.4266,2.5039,2.5374,2.4797,2.5465,2.6001,2.6073,2.6883,2.8531,3.1244,3.2598,3.4806,3.815,4.001,4.1451,4.243,4.3297,4.3914,4.4263,4.4271,4.4175,4.3927,4.3867,4.3743,4.3529,4.3513,4.3497,4.3497,4.3497,4.3497,4.3497,4.3497,4.3497,4.3461,4.3296,4.3222,4.313,4.2415,4.0375,3.8099,3.8548,3.7723,3.6501,3.6625,3.6453,3.6033,3.51,0.0,3.1078,3.1456,3.0898,0.0,2.8294,2.9083,2.9852,0.0,0.0,3.1448,3.1525,3.2814,3.4391,3.5988,3.7853,3.9892,4.2162,4.3374,4.4355,4.5316,4.5451,4.5413,4.5316,4.5393,4.5413,4.5316,4.4624,4.4162,4.4162,4.3508,4.3412,4.4124,4.4162,4.4566,4.5449,4.5451,4.5509,4.5605,4.5605,4.5586,4.5586,4.5586,4.5586,4.5586,4.5586,4.5643,4.5796,4.5988,4.6139,4.6267,4.6284,4.6306,4.6308,4.6308,4.6172,4.6016,4.6016,4.6016,4.6016,0.0,0.0,0.0,0.0,0.0,0.0,0.0,0.0,0.0,2.4209,2.4598,2.4781,2.4532,2.4982,2.5333,2.5403,2.6842,2.9117,3.2353,3.4367,3.7038,4.0648,4.1882,4.2735,4.3208,4.3989,4.4272,4.3962,4.4445,4.4699,4.4755,4.4527,4.4461,4.4578,4.4794,4.4635,4.4195,4.4195,4.4195,4.4158,4.3681,4.3631,4.3735,4.3048,4.2341,4.1711,4.1798,4.073,0.0,3.8598,3.8432,3.8309,3.7463,3.7262,3.7072,3.5772,3.3738,0.0,3.0366,0.0,0.0,0.0,3.1371,3.2564,3.2372,3.316,3.4199,3.518,3.6334,3.768,3.9373,4.1066,4.2566,0.0,4.4509,4.5182,4.5547,4.5586,4.524,4.4259,4.4643,4.5143,4.5547,4.5336,4.5124,4.5047,4.4739,4.4701,4.5028,4.5047,4.522,4.5586,4.5586,4.5586,4.5586,4.5586,4.5586,4.5586,4.5586,4.5586,4.5586,4.568,4.5815,4.5988,4.6065,4.618,4.6308,4.6308,4.6308,4.6308,4.6308,4.6308,4.6308,4.6308,4.6308,4.6308,0.0,0.0,0.0,0.0,0.0,0.0,0.0,0.0,0.0,0.0,2.4339,2.4426,2.4495,2.4766,2.4962,2.4998,2.6512,2.8935,3.243,3.5149,3.8189,4.1604,4.2886,4.3589,4.3828,4.4415,4.4595,4.4328,4.4918,4.5393,4.5776,4.5504,4.5504,4.5814,4.6085,4.5833,4.5194,4.5312,4.5149,4.4807,4.4332,4.3955,4.3539,4.2247,4.0885,3.9769,4.0281,3.9416,3.794,3.7376,3.7578,3.7982,3.7641,3.7589,3.7435,3.6281,3.4256,3.2048,3.039,0.0,0.0,3.2641,3.3833,3.5122,3.5988,3.6546,3.7296,3.8757,3.9912,4.1046,4.2316,4.372,4.4701,4.4701,4.524,4.5624,4.5605,4.5413,4.4855,4.3643,4.3724,4.4259,4.5205,4.5387,4.549,4.5586,4.5586,4.5586,4.5586,4.5586,4.5586,4.5586,4.5586,4.5586,4.5586,4.5836,4.5836,4.5586,4.5855,4.5855,4.5643,4.5815,4.5969,4.6102,4.6129,4.6205,4.6308,4.6308,4.6308,4.6308,4.6308,4.6308,4.6308,4.6308,4.6308,4.6308,0.0,0.0,0.0,0.0,0.0,0.0,0.0,0.0,0.0,0.0,0.0,0.0,0.0,2.4685,2.4869,2.4998,2.5831,2.775,3.1045,3.4069,3.7125,4.0225,4.2392,4.3864,4.4654,4.469,4.5284,4.6419,4.6438,4.6637,4.7041,4.7041,4.7022,4.7041,4.706,4.6815,4.6483,4.6854,4.6298,4.5208,4.5585,4.4571,4.2667,4.1064,3.9388,3.7875,3.7912,3.5515,3.2594,3.4179,3.3991,3.364,3.6659,3.7245,3.6834,3.6776,3.4466,3.2065,3.2699,0.0,3.3346,3.4974,3.6007,3.6853,3.7738,3.9181,4.0604,4.1508,4.3008,4.4201,4.4372,4.5141,4.5757,4.5757,4.5776,4.5757,4.5605,4.4972,4.4511,4.4472,4.3209,4.2925,0.0,4.4542,4.4837,4.5547,4.5586,4.5586,4.5586,4.5586,4.5586,4.5586,4.5586,4.5586,4.5586,4.6432,4.6432,4.5605,4.6528,4.6547,4.5796,4.6007,4.6084,4.6116,4.624,4.6308,4.6308,4.6308,4.6308,4.6308,4.6308,4.6308,4.6308,4.6308,4.6308,4.6308,0.0,0.0,0.0,0.0,0.0,0.0,0.0,0.0,0.0,0.0,0.0,0.0,0.0,0.0,0.0,0.0,2.5812,2.745,3.0159,3.3373,3.6052,3.801,4.1482,4.3212,4.2922,4.4315,4.4957,4.4836,4.5376,4.5832,4.6229,4.5979,4.6261,4.7051,4.7098,4.7163,4.7308,4.7448,4.7084,4.6289,4.5152,4.4183,4.3094,3.9911,3.7909,3.663,0.0,3.3791,3.3105,3.2794,3.2771,3.2994,3.3522,3.3958,3.418,3.3692,3.3587,3.3655,3.3826,0.0,3.6704,3.8392,3.9469,4.045,4.1854,4.2624,4.3258,4.4143,4.3893,4.3508,4.3547,4.3797,4.4008,4.4008,4.5432,4.6317,4.5682,4.5893,4.5241,4.2972,4.3327,0.0,0.0,0.0,0.0,4.5624,4.5738,4.5738,4.5738,4.6201,4.6471,4.6471,4.6471,4.6721,4.7259,4.7104,4.6854,4.6528,4.635,4.6162,4.6007,4.6065,4.6145,4.6234,4.6282,4.6308,4.6308,4.6308,4.6308,4.6308,4.6308,4.6308,4.623,4.5644,4.5406,4.5385,0.0,0.0,0.0,0.0,0.0,0.0,0.0,0.0,0.0,0.0,0.0,0.0,0.0,0.0,0.0,0.0,0.0,2.6711,2.8935,3.1599,3.3771,3.5296,3.8437,3.9989,3.972,4.1052,4.2016,4.2517,4.3079,4.3988,4.5266,4.501,4.5615,4.6972,4.7005,4.7271,4.7653,4.7495,4.6641,4.5275,4.3863,4.2412,4.0765,3.7596,3.5794,0.0,3.2422,3.1997,3.2435,3.1898,3.2045,3.2429,3.2199,3.2331,3.2559,3.2433,3.3375,3.4708,3.5844,3.7525,3.94,4.1373,4.2277,4.3066,4.4451,4.4759,4.4739,4.4701,4.3605,4.2547,4.2294,4.1755,4.1659,4.2563,4.4083,4.5257,4.5547,4.5855,4.5337,4.3451,4.3458,0.0,0.0,0.0,0.0,4.5605,4.5764,4.5915,4.618,4.6644,4.7028,4.7317,4.7375,4.7662,4.8182,4.8103,4.7893,4.7606,4.6814,4.6341,4.6177,4.6117,4.6164,4.6222,4.6175,4.5994,4.5724,4.5724,4.5548,4.5255,4.5255,4.5255,4.5197,4.463,4.4396,4.4381,0.0,0.0,0.0,0.0,0.0,0.0,0.0,0.0,0.0,0.0,0.0,0.0,0.0,0.0,0.0,0.0,0.0,0.0,2.7357,2.8969,3.0538,3.2093,3.3598,3.4727,3.5458,3.5529,3.6895,3.964,3.9716,4.117,4.3895,4.3895,4.4818,4.6491,4.6415,4.6683,4.7171,4.6685,4.4883,4.2271,4.1775,3.9459,3.6117,3.4397,3.3236,3.2311,3.0643,3.0196,3.0533,3.1371,3.166,3.1833,3.2602,3.2411,3.2113,3.3127,3.4014,3.5398,3.8766,4.0257,4.1426,4.3895,4.4451,4.4643,4.547,4.5566,4.5009,4.3374,4.2239,4.1296,0.0,0.0,3.8999,4.1459,4.2094,4.3041,4.5353,4.5087,4.4953,0.0,0.0,0.0,0.0,0.0,0.0,4.5624,0.0,4.6181,4.695,4.7028,4.7394,4.8163,4.8297,4.8373,4.8372,4.9219,4.9316,4.8625,4.7756,4.6965,4.6287,4.6143,4.608,4.6022,4.5883,4.5384,4.4642,4.4681,4.4195,4.3389,4.3447,4.3447,4.3389,4.3408,4.3408,4.3402,0.0,0.0,0.0,0.0,0.0,0.0,0.0,0.0,0.0,0.0,0.0,0.0,0.0,0.0,0.0,0.0,0.0,0.0,2.5628,2.7801,2.9063,2.9046,3.2383,3.4037,3.3616,3.4564,3.5439,3.6159,3.6178,3.69,3.8267,3.8267,3.9165,4.0749,3.9859,4.035,4.181,4.1092,4.0519,4.003,3.9007,3.7781,3.6328,3.3853,3.2896,3.2651,3.097,3.0432,3.0506,0.0,0.0,0.0,0.0,3.28,3.3843,3.4812,3.653,3.8734,4.1502,4.3267,4.478,4.6663,4.6682,4.6297,4.6528,4.5105,4.3431,4.2354,3.9931,3.7762,0.0,0.0,0.0,3.9875,4.325,0.0,4.649,4.6932,0.0,0.0,0.0,4.5568,4.5336,4.6355,0.0,0.0,4.6983,4.7152,4.8197,4.8662,4.9047,4.9355,4.9394,4.9386,4.9276,4.8236,4.7728,4.7719,4.6758,4.6183,4.5995,4.5959,4.5622,4.506,4.5036,4.4525,4.3791,4.4443,4.4186,4.3465,4.4117,4.3982,4.3407,4.3405,4.3347,4.3159,0.0,0.0,0.0,0.0,0.0,0.0,0.0,0.0,0.0,0.0,0.0,0.0,0.0,0.0,0.0,0.0,0.0,0.0,0.0,2.6249,2.6988,2.665,2.8972,3.0063,2.9583,3.0311,3.1064,3.1828,3.1828,3.2664,3.4232,3.4232,3.5111,3.67,3.6026,3.6539,3.794,3.75,3.6779,0.0,0.0,3.4644,3.3282,3.211,3.1769,3.1774,3.0839,3.0477,0.0,0.0,0.0,3.2872,3.3282,3.4584,3.6257,3.7954,0.0,4.1594,4.4171,4.5743,4.6913,4.7875,4.7509,4.6605,4.549,4.3835,4.1854,3.9527,3.7224,0.0,0.0,0.0,0.0,0.0,0.0,0.0,4.6701,4.7586,4.7894,0.0,4.7355,0.0,4.7278,4.8238,4.8989,0.0,4.8586,4.8586,4.9603,4.9932,5.0315,5.0781,5.0088,4.9505,4.9117,4.8153,4.754,4.7313,4.6742,4.6261,4.5893,4.5873,4.5612,4.5178,0.0,4.4603,4.3816,4.4314,4.3792,4.2749,4.3246,4.2899,4.2171,4.2563,4.2409,4.2005,0.0,0.0,0.0,0.0,0.0,0.0,0.0,0.0,0.0,0.0,0.0,0.0,0.0,0.0,0.0,0.0,0.0,0.0,0.0,0.0,2.4986,2.501,2.5184,2.5303,2.5303,2.5303,2.6043,2.7544,2.7544,2.8736,3.1025,3.1025,3.1852,3.3353,3.3237,3.3737,3.4641,3.441,3.3237,3.1583,3.2179,3.1179,2.9478,0.0,3.0509,3.0505,3.0505,0.0,0.0,0.0,3.4289,3.4564,3.5661,3.7161,3.8988,4.1559,4.2909,4.4182,4.678,4.8048,4.8606,4.8606,4.7913,4.6528,4.3874,4.2335,4.0296,3.6185,0.0,3.3717,3.2846,0.0,3.4294,3.7594,0.0,4.3203,4.6624,4.7683,4.8452,4.9298,4.874,4.8567,4.9336,4.9624,5.0066,5.0817,5.0298,5.0221,5.0875,5.0798,5.1039,5.1779,5.0151,4.8963,4.833,4.8179,4.7753,4.7024,4.7005,4.6583,4.5853,4.5796,4.5719,4.5603,0.0,0.0,4.4143,4.4259,4.3374,4.1989,4.2085,4.1569,4.0864,4.1747,4.1558,4.0967,0.0,0.0,0.0,0.0,0.0,0.0,0.0,0.0,0.0,0.0,2.419,2.419,0.0,0.0,0.0,0.0,0.0,0.0,0.0,0.0,0.0,2.4998,2.5184,2.5303,2.5303,2.5303,2.5437,2.5755,0.0,2.6351,2.7486,2.7486,2.8025,2.8948,2.8236,2.8775,3.0121,2.8736,2.914,3.066,3.0083,3.0044,3.0371,3.0583,0.0,0.0,0.0,0.0,0.0,0.0,3.4764,3.568,3.793,3.9796,4.1508,4.3355,4.5009,4.6797,4.9356,5.0644,5.1241,5.1241,5.0087,4.8105,4.4836,4.1835,0.0,0.0,3.3307,3.2013,3.1237,3.2868,0.0,3.7921,0.0,0.0,0.0,0.0,4.8548,0.0,0.0,0.0,0.0,0.0,0.0,0.0,0.0,0.0,5.1085,5.0935,5.065,5.0196,4.8461,4.7499,4.7428,4.6535,4.6092,4.6046,4.593,4.5796,4.5643,4.5624,4.524,4.4547,0.0,0.0,4.3355,4.4028,4.3739,4.2931,4.3605,4.3156,4.2258,4.3137,4.3178,4.2839,0.0,0.0,0.0,0.0,0.0,0.0,0.0,2.5144,2.5178,2.4854,2.5281,2.5282,2.445,2.4357,2.441,0.0,0.0,0.0,0.0,0.0,0.0,0.0,0.0,0.0,0.0,0.0,0.0,0.0,0.0,0.0,0.0,0.0,0.0,0.0,0.0,2.7044,2.7813,2.7909,2.8179,2.8602,2.9553,2.9689,0.0,0.0,0.0,0.0,0.0,0.0,0.0,0.0,3.4913,3.6192,3.9639,4.2124,4.4124,4.5873,4.7258,4.8682,5.0836,5.199,5.2472,5.201,4.999,4.7086,4.3201,0.0,0.0,0.0,3.1744,3.1121,3.0775,0.0,0.0,0.0,0.0,0.0,0.0,0.0,0.0,0.0,0.0,0.0,0.0,0.0,0.0,0.0,0.0,0.0,5.0991,5.0337,4.9278,4.7774,4.6873,4.6244,4.5843,4.5512,4.538,4.5438,4.5551,4.5513,4.5342,4.5342,4.5013,4.4446,4.4446,0.0,4.3912,4.4293,4.3969,4.3224,4.3645,4.3137,4.2356,4.3208,4.3151,4.268,0.0,0.0,0.0,0.0,0.0,0.0,0.0,2.5935,2.5992,2.5762,2.6265,2.6152,2.4905,2.4756,2.4781,0.0,0.0,0.0,0.0,0.0,0.0,0.0,0.0,0.0,0.0,0.0,0.0,0.0,0.0,0.0,0.0,0.0,0.0,0.0,0.0,0.0,0.0,2.8074,2.8018,0.0,0.0,0.0,0.0,0.0,0.0,0.0,0.0,0.0,0.0,0.0,3.47,3.6086,3.9788,4.2859,4.5451,4.7046,4.8545,5.0103,5.1894,5.3047,5.3491,5.2452,4.9663,4.6009,4.155,3.7978,0.0,0.0,3.0621,3.0706,3.0743,0.0,0.0,0.0,0.0,0.0,0.0,0.0,0.0,0.0,0.0,0.0,0.0,0.0,0.0,0.0,0.0,0.0,5.0024,4.9018,4.7587,4.5851,4.5644,4.5247,4.4624,4.4872,4.4988,4.5007,4.5263,4.5243,4.4988,4.4988,4.4849,4.458,4.458,0.0,0.0,4.458,4.4202,4.3573,4.3573,4.3107,4.2521,4.3205,4.2956,4.2406,0.0,0.0,0.0,0.0,0.0,0.0,0.0,2.6143,2.6394,2.6729,2.6226,2.5759,2.5613,2.5595,2.5364,0.0,0.0,0.0,0.0,0.0,0.0,0.0,0.0,0.0,0.0,0.0,0.0,0.0,0.0,0.0,0.0,0.0,0.0,0.0,0.0,0.0,0.0,0.0,0.0,0.0,0.0,0.0,0.0,0.0,0.0,0.0,0.0,0.0,0.0,0.0,0.0,3.4943,3.693,4.0341,4.3784,4.4684,0.0,0.0,5.2801,5.4357,5.5088,5.3491,5.051,4.6702,4.1807,0.0,0.0,3.1359,3.0679,3.0743,3.086,3.1659,0.0,0.0,0.0,3.8829,0.0,0.0,0.0,0.0,0.0,0.0,0.0,0.0,0.0,0.0,0.0,0.0,0.0,4.6592,4.601,4.5814,4.5096,4.4655,4.458,4.4631,4.465,4.465,4.4682,4.4676,4.465,4.465,4.4631,4.458,0.0,0.0,0.0,4.458,4.4542,4.4466,4.4466,4.4223,4.3823,4.3897,4.3701,4.3395,0.0,0.0,0.0,0.0,0.0,0.0,2.5729,2.6203,2.6529,2.671,2.6654,2.6383,2.578,2.5811,2.5615,2.498,0.0,0.0,0.0,0.0,0.0,0.0,0.0,0.0,0.0,0.0,0.0,0.0,0.0,0.0,0.0,0.0,0.0,0.0,0.0,0.0,0.0,0.0,0.0,0.0,0.0,0.0,0.0,0.0,0.0,0.0,0.0,0.0,0.0,0.0,0.0,0.0,3.176,3.4739,0.0,0.0,4.6152,4.9132,5.1972,5.418,5.5299,5.3626,4.949,4.4914,4.1483,0.0,3.285,3.108,3.0347,3.0205,3.08,3.0742,3.1164,0.0,0.0,0.0,0.0,0.0,0.0,0.0,0.0,0.0,0.0,0.0,0.0,0.0,0.0,0.0,0.0,4.4789,4.4632,4.4426,4.4098,4.3931,4.3931,4.4136,4.4233,4.4233,4.4474,4.4474,4.4233,4.4233,4.4136,4.3931,0.0,0.0,0.0,4.3931,4.3931,4.3931,4.3931,4.3836,4.3693,4.3693,4.3424,4.3014,0.0,0.0,0.0,0.0,0.0,2.4951,2.5679,2.6162,2.6488,2.6671,2.6729,2.6458,2.5708,2.5587,2.5397,2.4981,2.5171,0.0,0.0,0.0,0.0,0.0,0.0,0.0,0.0,0.0,0.0,0.0,0.0,0.0,0.0,0.0,0.0,0.0,0.0,0.0,0.0,0.0,0.0,0.0,0.0,0.0,0.0,0.0,0.0,0.0,0.0,0.0,0.0,0.0,0.0,0.0,0.0,0.0,0.0,0.0,4.3527,4.7015,5.0029,5.2735,5.4355,5.2911,4.8241,4.3404,0.0,0.0,3.1329,3.0543,2.9753,2.9394,3.0019,2.9844,2.9957,3.1079,0.0,3.216,0.0,0.0,0.0,0.0,0.0,0.0,0.0,0.0,0.0,0.0,0.0,0.0,0.0,4.3772,4.374,4.3532,4.3497,4.3497,4.3497,4.3726,4.3849,4.3849,4.4136,4.4125,4.3849,4.3849,4.3726,4.3497,0.0,0.0,0.0,4.3497,4.3497,4.3497,4.3497,4.3497,4.3497,4.3497,4.3178,4.2711,0.0,0.0,0.0,0.0,0.0,0.0,2.585,2.5993,2.6217,2.6822,2.6207,2.5651,2.5443,2.4856,2.4594,2.479,2.5115,0.0,0.0,0.0,0.0,0.0,0.0,0.0,0.0,0.0,2.5341,2.5409,2.5409,2.588,0.0,0.0,0.0,0.0,0.0,0.0,0.0,0.0,0.0,0.0,0.0,0.0,0.0,0.0,0.0,0.0,0.0,0.0,0.0,0.0,0.0,0.0,0.0,2.832,2.9219,3.3535,3.9551,4.521,4.6968,4.9846,5.2118,5.1231,4.7178,4.2754,0.0,0.0,3.0494,2.9752,2.8926,2.832,2.832,2.9023,2.9586,2.9533,3.0922,0.0,0.0,0.0,0.0,0.0,0.0,0.0,0.0,0.0,0.0,0.0,0.0,0.0,0.0,4.366,4.3479,4.3497,4.3497,4.3497,4.3497,4.3479,4.3532,4.3532,4.3532,4.3532,4.3532,4.3532,4.3479,0.0,0.0,0.0,0.0,4.3497,4.3497,4.3497,4.3497,4.3497,4.3497,4.3497,4.3178,4.2711,0.0,0.0,0.0,0.0,0.0,0.0,0.0,2.5084,2.5456,2.5819,2.5403,2.5174,2.5369,2.4979,2.4731,2.479,2.4981,0.0,0.0,0.0,0.0,0.0,0.0,0.0,0.0,0.0,2.5688,2.6352,2.6355,2.6529,2.6853,2.6599,0.0,0.0,0.0,0.0,0.0,0.0,0.0,0.0,0.0,0.0,0.0,0.0,0.0,0.0,0.0,0.0,0.0,0.0,0.0,0.0,0.0,0.0,0.0,2.9043,3.3398,3.8279,4.0602,4.2781,4.4167,4.3347,4.0183,3.6906,3.5552,0.0,2.8936,2.8758,2.8027,2.7598,2.8184,2.8047,2.8181,2.9315,2.9876,0.0,0.0,0.0,0.0,0.0,0.0,0.0,0.0,0.0,0.0,0.0,0.0,0.0,0.0,4.3582,4.3497,4.3497,4.3124,4.2939,4.2939,4.2523,4.2346,4.2346,4.2346,4.2523,4.2939,4.2541,0.0,0.0,0.0,0.0,0.0,4.3339,4.3497,4.3444,4.3105,4.2939,4.2884,4.2483,4.1961,4.149,0.0,0.0,0.0,0.0,0.0,0.0,0.0,2.4304,2.4773,2.4928,2.4794,2.4797,2.5042,2.4891,2.4814,2.4864,2.4949,0.0,0.0,0.0,0.0,0.0,0.0,0.0,2.5409,2.5409,2.5861,2.6834,2.6839,2.7045,2.7433,2.7433,2.6989,2.6191,0.0,0.0,0.0,0.0,0.0,0.0,0.0,0.0,2.6504,0.0,0.0,0.0,0.0,0.0,0.0,0.0,0.0,0.0,0.0,0.0,0.0,0.0,2.873,3.1953,3.5547,3.7939,3.9292,3.8806,3.634,3.3806,0.0,0.0,2.7744,2.7764,2.7075,2.6646,2.7186,2.7086,2.7264,2.8345,2.8977,0.0,0.0,0.0,0.0,0.0,0.0,0.0,0.0,0.0,0.0,0.0,0.0,0.0,0.0,0.0,4.3214,4.3214,4.2864,4.2577,4.2342,4.1979,4.181,4.181,4.181,4.1997,4.2342,4.1979,0.0,0.0,0.0,0.0,0.0,4.2734,4.2666,4.243,4.2375,4.2203,4.193,4.1831,4.1402,4.0903,0.0,0.0,0.0,0.0,0.0,0.0,0.0,2.3658,2.4135,2.4116,2.4338,2.4495,2.4495,2.4685,2.4855,2.4998,0.0,0.0,0.0,0.0,0.0,0.0,0.0,0.0,2.5409,2.5409,2.59,2.6901,2.6968,2.7439,2.8301,2.8359,2.7891,2.6992,2.6992,2.6523,2.5703,2.5703,2.5703,2.5703,2.5703,2.5703,0.0,0.0,0.0,0.0,0.0,0.0,0.0,0.0,0.0,0.0,0.0,0.0,0.0,0.0,0.0,0.0,0.0,3.4629,3.6465,3.6465,3.4648,3.2656,3.1914,0.0,0.0,2.6831,2.616,2.5619,2.5687,2.6236,2.6786,2.7026,0.0,0.0,0.0,0.0,0.0,0.0,0.0,0.0,0.0,0.0,0.0,0.0,0.0,0.0,0.0,0.0,4.2616,4.2559,4.2577,4.2302,4.1768,4.1725,4.1682,4.1682,4.1682,4.1725,4.1707,4.1725,0.0,0.0,0.0,0.0,0.0,4.1853,4.1428,4.0825,4.1467,4.1308,4.0801,4.1442,4.1313,4.0763,0.0,0.0,0.0,0.0,0.0,0.0,0.0,0.0,0.0,0.0,2.3986,2.4495,2.4495,2.4685,2.4855,0.0,0.0,0.0,0.0,0.0,0.0,0.0,0.0,0.0,2.5486,2.5524,2.6013,2.6971,2.7635,2.8078,2.8301,2.8984,2.8476,2.6992,2.6992,2.6523,2.5703,2.5703,2.5703,2.5703,2.5703,2.5703,0.0,0.0,0.0,0.0,2.5703,2.5703,0.0,0.0,0.0,0.0,0.0,0.0,0.0,0.0,2.5703,2.5957,2.7187,0.0,2.8437,2.8437,2.7969,2.7461,0.0,2.6582,0.0,0.0,0.0,2.5852,2.6486,2.6073,2.6317,0.0,0.0,0.0,0.0,0.0,0.0,0.0,0.0,0.0,0.0,0.0,0.0,0.0,0.0,0.0,0.0,0.0,4.181,4.1358,4.1313,4.1286,4.1185,4.0737,4.0514,4.0514,4.0514,4.072,4.1087,4.0672,0.0,0.0,0.0,0.0,4.1161,4.2121,4.2096,4.1503,4.1226,4.1028,4.0844,4.0573,4.0019,3.9354,0.0,0.0,0.0,0.0,0.0,0.0,0.0,0.0,0.0,0.0,0.0,2.4134,2.4586,2.4799,0.0,0.0,0.0,0.0,0.0,0.0,0.0,0.0,0.0,2.5427,2.5507,2.5562,2.6044,2.6952,2.7424,2.8073,2.8848,2.8926,2.8476,2.7559,2.6758,2.6133,2.5703,2.5703,2.5703,2.5703,2.5703,0.0,0.0,0.0,0.0,0.0,2.5703,2.5703,0.0,2.5703,2.5703,2.5703,0.0,0.0,0.0,0.0,2.5703,2.5703,2.5703,2.5703,2.5703,2.5703,2.5703,2.5703,2.5703,0.0,0.0,0.0,0.0,2.579,2.6187,2.576,0.0,0.0,0.0,0.0,0.0,0.0,0.0,0.0,0.0,0.0,0.0,0.0,0.0,0.0,0.0,0.0,0.0,0.0,4.0901,4.0886,4.0297,4.0201,4.058,4.0254,4.007,4.007,4.007,4.0237,4.0528,3.9897,0.0,0.0,0.0,0.0,4.0096,4.1119,4.1093,4.0516,4.0535,4.0323,3.997,3.9682,3.9262,3.8854,0.0,0.0,0.0,0.0,0.0,0.0,0.0,0.0,0.0,0.0,0.0,0.0,0.0,0.0,0.0,0.0,0.0,0.0,0.0,0.0,0.0,0.0,2.537,2.5451,2.5515,2.5575,2.5957,2.6689,2.6969,2.784,2.9267,2.8671,2.8281,2.8027,2.6426,2.5703,2.5703,2.5703,2.5703,2.5703,2.5703,0.0,0.0,0.0,0.0,0.0,0.0,0.0,0.0,2.5508,2.5508,2.5508,2.5508,0.0,0.0,0.0,0.0,0.0,2.5703,2.5801,2.5858,2.5679,2.5648,2.5637,2.562,0.0,0.0,0.0,0.0,0.0,0.0,0.0,0.0,0.0,0.0,0.0,0.0,0.0,0.0,0.0,0.0,0.0,0.0,0.0,0.0,0.0,0.0,0.0,0.0,0.0,0.0,4.0745,3.9562,3.9212,3.98,3.9851,3.9851,3.9733,3.9851,3.9851,3.9732,3.9106,3.8819,0.0,0.0,0.0,3.9039,3.973,3.9696,3.9225,3.9716,3.9514,3.8942,3.8801,3.8619,3.8453,0.0,0.0,0.0,0.0,0.0,0.0,0.0,0.0,0.0,0.0,0.0,0.0,0.0,0.0,0.0,0.0,0.0,0.0,0.0,0.0,0.0,2.5303,2.5428,2.5524,2.5581,2.5582,2.5659,2.5803,2.7227,2.8038,2.8336,2.8993,2.8555,2.7168,2.6152,2.5703,2.5703,2.5703,2.5703,2.5703,2.5703,0.0,0.0,0.0,0.0,0.0,0.0,0.0,0.0,2.4609,2.4609,2.4609,2.4609,0.0,0.0,0.0,0.0,0.0,2.5703,2.623,2.6574,2.5606,2.5354,2.5352,2.5284,0.0,0.0,0.0,0.0,0.0,0.0,0.0,0.0,0.0,0.0,0.0,0.0,0.0,0.0,0.0,0.0,0.0,0.0,0.0,0.0,0.0,0.0,0.0,0.0,0.0,0.0,4.017,3.9351,3.8698,3.8347,3.8858,3.8788,3.814,3.8858,3.8836,3.8227,3.8125,3.8075,0.0,0.0,3.8831,3.9037,3.9598,3.9864,3.9851,3.9335,3.902,3.883,3.8213,3.7557,3.6843,0.0,0.0,0.0,0.0,0.0,0.0,0.0,0.0,0.0,0.0,0.0,0.0,0.0,0.0,0.0,0.0,0.0,0.0,0.0,0.0,2.5322,2.5341,2.5316,2.5358,2.5495,2.5534,2.5766,2.6187,2.6956,2.7582,2.8046,2.8048,2.7391,2.623,2.582,2.5664,2.5703,2.5703,2.5703,2.5703,0.0,0.0,0.0,0.0,0.0,0.0,0.0,0.0,0.0,0.0,2.4375,2.4394,2.4394,0.0,0.0,0.0,0.0,0.0,2.5703,2.5969,2.6075,2.5416,2.5949,2.648,0.0,0.0,0.0,0.0,0.0,0.0,0.0,0.0,0.0,0.0,0.0,0.0,0.0,0.0,0.0,0.0,0.0,0.0,0.0,0.0,0.0,0.0,0.0,0.0,0.0,0.0,0.0,0.0,3.7041,3.6526,3.6222,3.651,3.666,3.6718,3.7466,3.7636,3.7302,3.6901,3.6734,3.6686,0.0,3.6572,3.6768,3.7767,3.8235,3.8337,3.8289,3.8294,3.822,3.7414,3.6692,3.5943,0.0,0.0,0.0,0.0,0.0,0.0,0.0,0.0,0.0,0.0,0.0,0.0,0.0,0.0,0.0,0.0,0.0,0.0,0.0,2.5264,2.5243,2.5301,2.5057,2.5037,2.5346,2.5337,2.5655,2.6335,2.6518,2.6973,2.768,2.7067,2.6354,2.5605,2.5603,2.5644,2.5703,2.5703,2.5703,2.5703,0.0,0.0,0.0,0.0,0.0,0.0,0.0,0.0,0.0,0.0,0.0,0.0,0.0,0.0,0.0,2.5391,2.5547,2.5703,2.5703,2.5776,2.5738,2.5304,2.6179,0.0,0.0,0.0,0.0,0.0,0.0,0.0,0.0,0.0,0.0,0.0,0.0,0.0,0.0,0.0,0.0,0.0,0.0,0.0,0.0,0.0,0.0,0.0,0.0,0.0,0.0,0.0,0.0,0.0,3.5059,3.4612,3.4457,3.4129,3.4384,3.5259,3.5828,3.6172,3.6257,3.5547,3.5365,3.5644,3.5117,3.491,3.5001,3.6104,3.6534,3.6593,3.7118,3.729,3.7167,3.6551,3.6006,3.5504,0.0,0.0,0.0,0.0,0.0,0.0,0.0,0.0,0.0,0.0,0.0,0.0,0.0,0.0,0.0,0.0,0.0,0.0,0.0,2.5141,2.5022,2.5022,2.4595,2.4636,2.521,2.4968,2.4974,2.5216,2.5952,2.6489,2.6783,2.6727,2.6304,2.5599,2.5595,2.5644,2.5703,2.5703,2.5703,2.5703,2.5703,0.0,0.0,0.0,0.0,0.0,0.0,0.0,0.0,0.0,0.0,0.0,0.0,0.0,2.4492,2.4492,2.5078,2.5703,2.5703,2.612,2.6311,2.542,2.5249,0.0,2.6857,2.6803,0.0,2.8373,0.0,0.0,0.0,0.0,0.0,0.0,0.0,0.0,0.0,0.0,0.0,0.0,0.0,0.0,0.0,0.0,0.0,0.0,0.0,0.0,0.0,0.0,0.0,0.0,0.0,3.4379,3.3768,3.2391,3.2391,3.3665,3.3857,3.4233,3.4724,3.4046,3.4439,3.5599,3.5554,3.5582,3.563,3.5729,3.5836,3.5851,3.5781,3.5723,3.5672,3.5604,3.5569,3.5504,0.0,0.0,0.0,0.0,0.0,0.0,0.0,0.0,0.0,0.0,0.0,0.0,0.0,0.0,0.0,0.0,0.0,0.0,0.0,2.4759,2.4714,2.4081,2.4298,2.4526,2.4773,2.4704,2.5059,2.585,2.6278,2.6549,2.6629,2.6072,2.5707,2.5476,2.5485,2.554,2.5644,2.5644,2.5664,2.5703,2.5703,2.5703,0.0,0.0,0.0,0.0,0.0,0.0,0.0,0.0,2.1857,2.1875,2.1894,2.2715,2.3652,2.3652,2.3867,2.4082,2.4082,2.4579,2.4996,2.4557,2.4614,0.0,0.0,2.7763,2.773,2.7622,2.8095,0.0,0.0,0.0,0.0,0.0,0.0,0.0,0.0,0.0,0.0,0.0,0.0,0.0,0.0,0.0,0.0,0.0,0.0,0.0,0.0,0.0,0.0,0.0,0.0,3.1992,3.1734,3.0794,3.0734,3.1619,3.2098,3.2659,3.3228,3.3439,3.3809,3.4309,3.4363,3.4149,3.3841,3.4693,3.4554,3.3866,3.4638,3.4881,3.4921,3.5355,3.5504,3.5504,0.0,0.0,0.0,0.0,0.0,0.0,0.0,0.0,0.0,0.0,0.0,0.0,0.0,0.0,0.0,0.0,0.0,0.0,2.3479,2.3888,2.3929,2.347,2.37,2.4078,2.4495,2.4492,2.4936,2.5817,2.6063,2.6197,2.6178,2.5572,2.5341,2.5409,2.5339,2.5389,2.557,2.5524,2.5566,2.5664,2.5684,2.5703,0.0,0.0,0.0,0.0,0.0,0.0,0.0,0.0,2.1449,2.1455,2.1455,2.206,2.2749,2.2724,2.2857,2.3005,2.3057,2.35,2.3896,2.367,0.0,0.0,2.739,2.8062,2.8251,2.8456,0.0,0.0,0.0,0.0,0.0,0.0,0.0,0.0,0.0,0.0,0.0,0.0,0.0,0.0,0.0,0.0,0.0,0.0,0.0,0.0,0.0,0.0,0.0,0.0,0.0,0.0,2.9909,2.9265,2.9182,2.9565,3.0212,3.1172,3.2393,3.2485,3.2984,3.3802,3.3453,3.3133,3.2986,3.3887,3.371,3.2934,3.3633,3.4152,3.4595,3.5299,3.5664,3.5894,0.0,0.0,0.0,0.0,0.0,0.0,0.0,0.0,0.0,0.0,0.0,0.0,0.0,0.0,0.0,0.0,0.0,0.0,2.2609,2.24,2.2595,2.326,2.2776,2.314,2.4458,2.4362,2.4476,2.4804,2.5138,2.5303,2.5303,2.5303,2.5341,2.5399,2.5194,2.5256,2.5495,2.5356,2.541,2.5605,2.5664,2.5703,2.5604,0.0,0.0,0.0,0.0,0.0,0.0,0.0,2.0561,2.0504,2.0504,2.1078,2.1767,2.1707,2.2208,2.2796,2.2945,2.3163,2.3289,0.0,0.0,0.0,2.7014,2.7508,2.8422,3.1427,0.0,0.0,0.0,0.0,0.0,0.0,0.0,0.0,0.0,0.0,0.0,0.0,0.0,0.0,0.0,0.0,0.0,0.0,0.0,0.0,0.0,0.0,0.0,0.0,0.0,0.0,2.8607,2.7904,2.7546,2.7503,2.8088,2.9782,3.2327,3.1075,3.1941,3.4368,3.3159,3.2976,3.3582,3.3582,3.3561,3.3434,3.2762,3.3305,3.4568,3.5308,3.6011,3.6706,0.0,0.0,0.0,0.0,0.0,0.0,0.0,0.0,0.0,0.0,0.0,0.0,0.0,0.0,0.0,0.0,0.0,0.0,2.174,2.2171,2.2217,2.1698,2.2671,2.3385,2.3802,2.4449,2.4898,2.5149,2.5253,2.5303,2.5303,2.5303,2.5303,2.5322,2.5115,2.517,2.5409,2.5239,2.5302,2.5538,2.5558,2.5558,2.5476,0.0,0.0,0.0,0.0,0.0,0.0,0.0,0.0,0.0,2.0504,2.0584,2.0689,2.0754,2.0817,2.0933,2.1402,2.1365,0.0,0.0,0.0,0.0,0.0,2.6117,0.0,0.0,0.0,0.0,0.0,0.0,0.0,0.0,0.0,0.0,0.0,0.0,0.0,0.0,0.0,0.0,0.0,0.0,0.0,0.0,0.0,0.0,0.0,0.0,0.0,0.0,0.0,0.0,2.7874,2.7215,2.7091,2.7503,2.8139,2.8851,2.9636,3.068,3.1356,3.1675,3.1821,3.2008,3.2207,3.2167,3.2435,3.2872,3.3111,3.3426,3.394,3.5169,3.571,3.6004,0.0,0.0,0.0,0.0,0.0,0.0,0.0,0.0,0.0,0.0,2.0232,2.0412,0.0,0.0,0.0,2.1746,2.1812,0.0,2.0833,2.1242,2.1335,2.0952,2.1896,2.2741,2.3397,2.4079,2.4638,2.5103,2.5233,2.5264,2.5173,2.5264,2.5264,2.5192,2.5046,2.4946,2.4866,2.4622,2.4465,2.4389,2.4419,2.4439,2.4342,0.0,0.0,0.0,0.0,0.0,0.0,0.0,0.0,0.0,2.0446,2.0335,2.025,2.0329,1.9981,1.9704,2.0391,0.0,0.0,0.0,0.0,0.0,0.0,0.0,0.0,0.0,0.0,0.0,0.0,0.0,0.0,0.0,0.0,0.0,0.0,0.0,0.0,0.0,0.0,0.0,0.0,0.0,0.0,0.0,0.0,0.0,0.0,0.0,0.0,0.0,0.0,0.0,2.6408,2.6019,2.5831,2.5953,2.6872,2.7288,2.7326,2.9329,3.0357,3.0525,3.099,3.12,3.1192,3.0845,3.1329,3.223,3.2287,3.2649,3.3299,3.4699,3.5268,3.5403,0.0,0.0,1.9305,1.9305,0.0,0.0,0.0,0.0,0.0,1.9843,2.0107,2.0312,0.0,0.0,0.0,2.0312,2.0312,2.0214,2.0031,2.0012,2.0213,2.0714,2.0825,2.1667,2.3305,2.3502,2.3945,2.4708,2.4996,2.5075,2.4986,2.5182,2.5141,2.4924,2.4879,2.4541,2.3995,2.365,2.3181,2.2696,2.2729,2.2775,2.2688,2.1878,0.0,0.0,0.0,0.0,0.0,0.0,0.0,0.0,2.0427,2.0361,2.0296,2.0373,1.9707,1.9121,1.9951,0.0,0.0,0.0,0.0,0.0,0.0,0.0,0.0,0.0,0.0,0.0,0.0,0.0,0.0,0.0,0.0,0.0,0.0,0.0,0.0,0.0,0.0,0.0,0.0,0.0,0.0,0.0,0.0,0.0,0.0,0.0,0.0,0.0,0.0,0.0,2.4582,2.4582,2.4313,0.0,2.4866,2.548,2.5644,2.7561,2.9045,3.0226,3.0357,3.0432,3.0397,2.9841,3.0327,3.138,3.0734,3.1264,3.2521,3.3966,3.4501,3.4823,0.0,0.0,1.9305,1.9305,0.0,0.0,0.0,0.0,1.9899,2.0153,2.026,2.0312,2.0312,2.0312,0.0,2.0312,2.0312,2.0277,2.0241,2.0078,2.0059,2.0169,2.1081,2.2242,2.3658,2.3977,2.4104,2.4007,2.3921,2.4219,2.4842,2.4902,2.4743,2.4432,2.4002,2.3687,2.3442,2.2841,2.2615,2.2615,2.2471,2.2505,2.2545,2.1684,2.1464,0.0,0.0,0.0,0.0,0.0,0.0,0.0,2.1111,2.0744,2.0203,2.0881,2.0164,1.9389,0.0,1.9452,0.0,0.0,0.0,0.0,0.0,0.0,0.0,0.0,0.0,0.0,0.0,0.0,0.0,0.0,0.0,0.0,0.0,0.0,0.0,0.0,0.0,0.0,0.0,0.0,0.0,0.0,0.0,0.0,0.0,0.0,0.0,0.0,0.0,2.4731,2.4582,2.4582,2.4507,0.0,2.5196,2.557,2.5659,2.7018,2.7845,2.8221,2.8783,2.9048,2.9078,2.9409,2.9763,3.0083,3.0446,3.0757,3.1186,3.2546,3.3035,3.3288,0.0,0.0,0.0,0.0,0.0,0.0,0.0,0.0,1.9888,2.0134,2.0241,2.0312,2.0312,2.0205,0.0,0.0,2.0107,2.0069,2.0069,1.9972,1.9828,1.9619,2.0749,2.1716,2.2397,2.2933,2.3218,2.3227,2.2481,2.2716,2.3916,2.4186,2.4079,2.3614,2.3401,2.307,2.265,2.1997,2.155,2.1252,2.1221,2.1233,2.1225,2.0929,2.1118,2.1438,2.0592,0.0,0.0,0.0,0.0,0.0,0.0,0.0,2.0794,2.1186,2.0233,1.9214,0.0,0.0,0.0,0.0,0.0,0.0,0.0,0.0,0.0,0.0,0.0,0.0,0.0,0.0,0.0,0.0,0.0,0.0,0.0,0.0,0.0,0.0,0.0,0.0,0.0,0.0,0.0,0.0,0.0,0.0,0.0,0.0,0.0,0.0,2.4055,2.3671,2.3671,2.4,2.4133,2.4133,2.4163,2.4181,2.4248,2.6149,2.6871,2.6677,2.735,2.7634,2.7664,2.8008,2.8532,2.9154,2.9529,2.9816,3.0225,3.1271,3.1448,3.1368,0.0,0.0,0.0,0.0,0.0,0.0,0.0,0.0,0.0,1.9953,2.0116,2.0216,2.0216,2.0069,1.9944,0.0,0.0,0.0,1.9736,1.97,1.9628,1.949,2.0341,2.0925,2.1141,2.1779,2.2209,2.2435,2.1262,2.1264,2.2348,2.3021,2.3141,2.2764,2.2811,2.246,2.1774,2.1215,2.0508,1.9821,2.0053,2.011,2.0104,2.0536,2.1122,2.1639,2.0966,2.1666,2.2752,2.188,0.0,0.0,0.0,0.0,2.146,2.134,2.0189,1.9044,0.0,0.0,0.0,0.0,0.0,0.0,0.0,0.0,0.0,0.0,0.0,0.0,0.0,0.0,0.0,0.0,0.0,0.0,0.0,0.0,0.0,0.0,0.0,0.0,0.0,0.0,0.0,0.0,0.0,0.0,0.0,0.0,2.2629,2.3206,2.2672,2.2443,2.2543,2.3039,2.326,2.3275,2.2715,2.2446,2.2536,2.4848,2.5701,2.5331,2.5976,2.6321,2.6426,2.6538,2.732,2.8427,2.8427,2.8757,2.9342,3.0032,2.987,2.9629,0.0,0.0,0.0,0.0,0.0,0.0,0.0,0.0,0.0,0.0,1.9855,1.9866,1.9866,1.9836,1.9729,1.9501,1.9693,1.9693,1.9481,0.0,0.0,2.056,2.0521,2.098,2.2092,2.2436,2.2312,2.1728,2.1387,2.081,2.0058,2.1019,2.1737,2.2187,2.192,2.156,2.1096,2.0618,2.0173,1.9854,2.0451,2.0865,2.1183,2.1998,2.2422,2.2601,2.2504,2.262,2.2686,2.1812,2.21,0.0,0.0,0.0,0.0,2.134,2.0368,1.9397,0.0,0.0,0.0,0.0,0.0,0.0,0.0,0.0,0.0,0.0,0.0,0.0,0.0,0.0,0.0,0.0,0.0,0.0,0.0,0.0,0.0,0.0,0.0,0.0,0.0,0.0,0.0,0.0,0.0,0.0,0.0,2.1248,2.1189,2.1272,2.1202,2.1338,2.1838,2.1885,2.1932,2.1932,2.1874,2.1828,2.1863,2.2791,2.3483,2.3969,2.4667,2.5276,2.5785,2.6377,2.7036,2.7709,2.7709,2.7805,2.7955,2.8606,2.8832,2.8869,0.0,0.0,0.0,0.0,0.0,0.0,0.0,0.0,0.0,0.0,0.0,1.9525,1.9378,1.9286,1.9184,1.9075,1.9099,1.9073,1.8957,1.8893,1.9106,1.9608,1.9772,2.03,2.1278,2.1587,2.1592,2.1275,2.0344,1.9662,1.92,1.9053,1.9421,2.0249,2.0364,2.0264,2.001,2.0253,2.028,2.0187,2.0986,2.1195,2.1124,2.2041,2.2436,2.2494,2.2262,2.2924,2.3781,2.2837,2.319,2.3983,2.3707,0.0,0.0,0.0,0.0,0.0,1.9233,0.0,0.0,0.0,0.0,0.0,0.0,0.0,0.0,0.0,0.0,0.0,0.0,0.0,0.0,0.0,0.0,0.0,0.0,0.0,0.0,0.0,0.0,0.0,0.0,0.0,0.0,0.0,0.0,0.0,2.1337,2.0743,2.0394,2.0394,2.0394,2.0516,2.0759,2.1403,2.152,2.121,2.121,2.1015,2.067,2.0933,2.1636,2.2637,2.3294,2.3949,2.4592,2.5263,2.61,2.7066,2.7475,2.7625,2.7655,2.7919,2.8023,2.8068,0.0,0.0,0.0,0.0,0.0,0.0,0.0,0.0,0.0,0.0,0.0,1.9121,1.8929,0.0,0.0,0.0,1.8717,1.8715,1.8715,1.8647,1.8737,1.8973,1.9322,1.9866,2.0597,2.0876,2.0991,2.0991,1.9682,1.897,1.8864,1.7773,1.7639,1.8229,1.8985,1.9305,1.9336,1.9907,2.0258,2.0444,2.1023,2.125,2.1279,2.1826,2.229,2.2611,2.209,2.2987,2.4257,2.3371,2.3771,2.465,2.4594,2.3717,0.0,0.0,0.0,0.0,0.0,0.0,0.0,0.0,0.0,0.0,0.0,0.0,0.0,0.0,0.0,0.0,0.0,0.0,0.0,0.0,0.0,0.0,0.0,0.0,0.0,0.0,0.0,0.0,0.0,0.0,0.0,0.0,0.0,0.0,2.1015,1.9932,1.9381,1.9538,1.9394,1.9394,1.9538,2.0408,2.0574,2.0129,2.0273,2.0102,1.961,1.9748,2.032,2.1245,2.1929,2.2707,2.3483,2.4149,2.5282,2.6632,2.7126,2.7475,2.7625,2.7625,2.7625,2.7625,0.0,0.0,0.0,0.0,0.0,0.0,0.0,0.0,0.0,0.0,0.0,1.8642,1.8624,1.8605,1.8623,1.8623,1.8825,1.8966,1.8966,1.8797,1.9014,1.9698,1.9825,0.0,2.0959,2.0975,2.0991,2.0991,2.0028,1.9302,1.8792,1.776,1.7076,1.6667,1.8177,1.9071,1.9509,1.9539,1.989,2.0385,2.0171,2.1016,2.2337,2.1754,2.2453,2.362,0.0,2.2819,2.32,2.2648,2.2997,2.3545,2.2849,2.2585,2.2378,0.0,0.0,0.0,0.0,0.0,0.0,0.0,0.0,0.0,0.0,0.0,0.0,0.0,0.0,0.0,0.0,0.0,0.0,0.0,0.0,0.0,0.0,0.0,0.0,0.0,0.0,0.0,0.0,0.0,0.0,0.0,0.0,0.0,1.9157,1.8134,1.7748,1.8276,1.7785,1.776,1.8289,1.8361,1.8374,1.8339,1.8868,1.907,1.9033,1.9572,1.985,1.9952,2.0636,2.1587,2.2797,2.3483,2.4872,2.6587,2.6632,2.7021,2.7625,2.7625,2.7625,2.7625,0.0,0.0,0.0,0.0,0.0,0.0,0.0,0.0,0.0,0.0,0.0,0.0,0.0,1.81,1.81,1.81,1.833,1.8333,1.7928,1.8074,1.8237,1.8326,1.8377,1.8783,1.9581,1.9641,1.9924,2.0487,1.9873,1.9498,1.9302,1.8218,1.7504,1.7034,1.7599,1.7831,1.789,1.8688,1.9357,0.0,0.0,0.0,2.0855,0.0,0.0,0.0,0.0,0.0,0.0,2.2277,2.233,2.2346,2.3351,2.2792,2.1657,0.0,0.0,0.0,0.0,0.0,0.0,0.0,0.0,0.0,0.0,0.0,0.0,0.0,0.0,0.0,0.0,0.0,0.0,0.0,0.0,0.0,0.0,0.0,0.0,0.0,0.0,0.0,0.0,0.0,0.0,0.0,0.0,0.0,1.8518,1.779,1.7476,1.7664,1.7488,1.7652,1.8191,1.8204,1.8204,1.8204,1.8405,1.8681,1.8983,1.9221,1.9484,1.985,2.0497,2.1282,2.2118,2.2776,2.4197,2.6004,2.6422,2.6991,2.7625,2.7625,2.7625,2.7675,0.0,0.0,0.0,0.0,0.0,0.0,0.0,0.0,0.0,1.7936,0.0,0.0,0.0,0.0,1.751,1.7914,1.8133,1.7985,1.7428,1.7642,1.7647,1.7272,1.7419,1.7828,1.8527,1.8598,1.9156,2.0206,1.9803,1.9733,1.9982,1.8987,1.8257,1.78,1.7463,1.709,1.6829,0.0,0.0,1.8981,0.0,0.0,1.9701,0.0,0.0,0.0,0.0,0.0,0.0,0.0,0.0,0.0,0.0,0.0,0.0,0.0,0.0,0.0,0.0,0.0,0.0,0.0,0.0,0.0,0.0,0.0,0.0,0.0,0.0,0.0,0.0,0.0,0.0,0.0,0.0,0.0,0.0,0.0,0.0,0.0,0.0,0.0,0.0,0.0,0.0,0.0,0.0,0.0,1.8229,1.7501,1.7087,1.7087,1.7087,1.7275,1.7639,1.7639,1.7639,1.7639,1.784,1.8129,1.8493,1.8857,1.9308,1.9875,2.0518,2.1161,2.1752,2.2678,2.4053,2.5674,2.6333,2.6991,2.7625,2.781,2.791,2.7993,0.0,0.0,0.0,0.0,0.0,0.0,0.0,0.0,1.7264,1.7264,0.0,0.0,0.0,0.0,0.0,1.8136,1.8257,1.8076,1.7538,1.7563,1.7364,1.6832,1.7132,1.7536,1.8039,1.8066,1.8769,2.0172,1.9803,2.0016,2.0783,2.0016,1.936,1.8815,1.7786,1.7022,1.6559,0.0,1.7511,1.7734,0.0,1.706,1.9007,0.0,0.0,0.0,1.7451,1.7047,0.0,0.0,0.0,0.0,0.0,0.0,0.0,0.0,0.0,0.0,0.0,0.0,0.0,0.0,0.0,0.0,0.0,0.0,0.0,0.0,0.0,0.0,0.0,0.0,0.0,0.0,0.0,0.0,0.0,0.0,0.0,0.0,0.0,0.0,0.0,0.0,0.0,0.0,0.0,1.8179,1.8154,1.7112,1.6522,1.6522,1.6522,1.6522,1.6522,1.6522,1.6522,1.6522,1.7087,1.7363,1.7413,1.8505,1.9374,2.0025,2.0594,2.121,2.1846,2.314,2.4447,2.5674,2.6318,2.6976,2.766,2.8286,2.8511,2.8606,0.0,0.0,0.0,0.0,0.0,0.0,1.6668,1.6647,1.6483,0.0,0.0,0.0,1.5789,1.6108,1.6474,1.6815,1.7605,1.7915,1.7531,1.7562,1.7434,1.7028,1.6837,1.6796,1.6951,1.7312,1.8051,1.917,1.9758,2.0457,2.1299,2.0735,2.0362,2.0133,1.892,1.7831,1.6913,1.6803,0.0,0.0,1.5836,1.5909,0.0,0.0,0.0,0.0,0.0,1.6253,0.0,0.0,1.732,1.6858,0.0,0.0,0.0,0.0,0.0,0.0,1.9154,0.0,0.0,0.0,0.0,0.0,0.0,0.0,0.0,0.0,0.0,0.0,0.0,0.0,0.0,0.0,0.0,0.0,0.0,0.0,0.0,0.0,0.0,0.0,0.0,0.0,0.0,0.0,1.7702,1.7426,1.7011,1.6685,1.6522,1.6522,1.6522,1.6522,1.6522,1.6522,1.6522,1.6522,1.6685,1.6974,1.7446,1.8564,1.9389,2.0059,2.1536,2.2267,2.2466,2.2836,2.399,2.563,2.5809,2.6572,2.766,2.8286,2.8511,2.8654,0.0,0.0,1.7316,1.6881,0.0,1.6367,1.5903,1.5784,1.5602,0.0,0.0,0.0,1.4762,1.5247,1.5802,1.6286,1.7155,1.7589,1.7436,1.7455,1.719,1.6518,1.6052,1.5887,1.6139,1.6416,1.7315,1.8792,1.9501,2.0285,2.1101,2.114,2.0876,2.0321,1.9289,1.8186,1.7099,0.0,0.0,0.0,1.4801,0.0,0.0,1.4568,1.4566,0.0,0.0,0.0,1.4563,1.5306,1.5466,0.0,0.0,0.0,0.0,0.0,0.0,0.0,0.0,0.0,0.0,0.0,0.0,0.0,1.9146,1.8457,0.0,0.0,0.0,0.0,0.0,0.0,0.0,0.0,0.0,0.0,0.0,0.0,0.0,0.0,0.0,0.0,0.0,0.0,0.0,0.0,1.7388,1.7137,1.6547,1.6522,1.6522,1.6522,1.6522,1.6522,1.6522,1.6522,1.6522,1.6522,1.6522,1.6815,1.7406,1.8301,1.9315,2.0464,2.1721,2.2584,2.3083,2.3361,2.4323,2.563,2.5914,2.6662,2.771,2.8543,2.8873,2.9058,0.0,0.0,1.6729,1.6076,1.5934,1.5708,1.4987,1.4713,1.455,0.0,1.3955,1.3636,1.3784,1.435,1.5096,1.612,1.6818,1.7223,1.7295,1.7305,1.6858,1.5815,1.5205,1.5093,1.5576,1.5588,1.6596,1.8627,1.909,1.9767,2.0553,2.1163,2.0919,1.9955,1.9099,1.8138,1.7111,0.0,0.0,1.4494,1.3452,1.363,0.0,0.0,1.3273,0.0,1.3153,1.2909,1.2771,1.2578,1.3507,0.0,0.0,0.0,0.0,0.0,1.7457,0.0,0.0,0.0,0.0,0.0,0.0,0.0,2.0751,1.9829,1.8706,0.0,0.0,0.0,0.0,0.0,0.0,0.0,0.0,0.0,0.0,0.0,0.0,0.0,0.0,0.0,0.0,0.0,1.7815,1.7325,1.7287,1.7061,1.6547,1.6522,1.6522,1.6522,1.6522,1.6522,1.6522,1.6522,1.6522,1.6522,1.6552,1.6837,1.7325,1.806,1.9264,2.0848,2.1499,2.2425,2.355,2.4238,2.4896,2.557,2.6384,2.7079,2.7739,2.9011,2.9496,2.9673,1.7288,1.6784,1.6146,1.5127,1.4337,1.3459,1.2487,1.286,1.3075,1.2539,1.2813,1.3054,1.3107,1.4054,1.4789,1.5005,1.6421,1.7287,1.7303,1.7303,1.7222,1.6963,1.5997,1.5492,1.5588,1.5588,1.6237,1.7531,1.846,1.9532,2.0733,2.0574,2.051,2.0464,1.8739,1.7661,1.6965,0.0,0.0,1.3168,1.2932,0.0,1.318,1.2368,1.2454,1.3006,1.256,1.2368,1.2322,0.0,1.33,1.4646,0.0,0.0,0.0,0.0,0.0,0.0,0.0,0.0,0.0,0.0,0.0,0.0,1.907,1.8673,1.8254,0.0,0.0,0.0,0.0,0.0,0.0,0.0,0.0,0.0,0.0,0.0,0.0,0.0,0.0,0.0,0.0,0.0,1.681,1.6685,1.6685,1.6635,1.6522,1.6522,1.6522,1.6522,1.6522,1.6522,1.6522,1.6522,1.6522,1.6522,1.6951,1.7188,1.7366,1.8877,1.9743,2.0171,2.1801,2.2658,2.2906,2.3535,2.4208,2.4972,2.6673,2.7411,2.7721,2.9491,3.0123,3.0208,1.6789,1.6222,1.5465,1.4317,1.3499,1.2689,1.183,1.207,1.2357,1.2396,1.2676,1.2881,1.2881,1.3695,1.4236,1.4236,1.5584,1.6409,1.6409,1.6409,1.6268,1.5985,1.5139,1.4858,1.5141,1.5141,1.5828,1.7259,1.8009,1.8496,1.8768,1.9166,1.8708,1.7543,1.6769,1.5753,1.4514,0.0,1.2319,1.1796,1.1796,0.0,1.1841,1.1823,1.1755,1.1652,1.1859,1.1621,1.1335,1.1809,1.2685,0.0,0.0,1.5135,1.5815,0.0,1.7041,1.6938,0.0,0.0,0.0,1.7978,0.0,0.0,0.0,1.8852,0.0,0.0,0.0,0.0,0.0,0.0,0.0,0.0,0.0,0.0,0.0,0.0,0.0,0.0,0.0,0.0,0.0,0.0,1.6522,1.6522,1.6522,1.6522,1.6522,1.6522,1.6522,1.6522,1.6522,1.6522,1.6522,1.6522,1.6637,1.6909,1.7146,1.7585,1.8145,1.8992,1.9725,2.0338,2.1277,2.2069,2.2768,2.334,2.3963,2.4646,2.6331,2.7193,2.7718,2.9615,3.0293,3.0393,1.6386,1.5681,1.4862,1.3554,1.2939,1.2337,1.1557,1.1616,1.208,1.2774,1.2881,1.2832,1.2715,1.3256,1.3569,1.3416,1.4369,1.498,0.0,0.0,0.0,1.4438,1.3903,1.3899,1.4514,1.4652,1.5386,1.676,1.7262,1.7142,1.6452,1.7188,1.6348,0.0,1.4258,0.0,0.0,0.0,0.0,1.0399,0.0,1.0458,1.0855,1.1189,1.0925,1.0466,1.0982,1.0637,1.0155,1.1176,0.0,1.2368,1.372,1.4432,0.0,0.0,0.0,0.0,0.0,0.0,0.0,0.0,0.0,1.8989,0.0,0.0,0.0,0.0,0.0,0.0,0.0,0.0,0.0,0.0,0.0,0.0,0.0,0.0,0.0,0.0,0.0,0.0,0.0,0.0,1.6638,1.6667,1.6536,1.6524,1.6625,1.6552,1.6522,1.6522,1.6522,1.6552,1.6637,1.6637,1.6909,1.7463,1.7544,1.8066,1.8893,1.9006,1.9589,2.0513,2.0662,2.1458,2.2681,2.3314,2.3952,2.4677,2.6108,2.6948,2.7624,2.9394,3.0063,3.0161,1.6645,1.5557,1.4381,1.3014,1.23,1.1516,1.0218,1.1065,1.208,1.2774,1.2881,1.2666,0.0,0.0,0.0,0.0,0.0,0.0,1.3037,0.0,0.0,1.3778,1.3233,1.3215,1.3909,1.4422,1.4755,1.4891,1.5441,1.5605,1.5453,1.4484,1.3914,0.0,1.1929,0.0,0.0,0.0,0.839,0.0,0.8283,0.9169,0.0,0.9982,0.9987,1.0337,0.9775,0.9266,0.911,0.0,1.0656,1.0864,0.0,1.4414,0.0,0.0,0.0,0.0,0.0,0.0,0.0,0.0,1.7915,0.0,0.0,0.0,0.0,0.0,0.0,0.0,0.0,0.0,0.0,0.0,0.0,0.0,0.0,0.0,0.0,0.0,0.0,0.0,0.0,0.0,0.0,1.719,1.6649,1.6583,1.7162,1.6752,1.6522,1.6522,1.6522,1.671,1.7188,1.7188,1.7463,1.8027,1.8496,1.8779,1.893,1.9406,1.9683,1.9839,2.0453,2.1364,2.2508,2.3134,2.4069,2.5233,2.6652,2.7163,2.7317,2.8665,2.9154,2.9296,1.6637,1.5522,1.44,1.3429,1.2454,1.1616,1.1065,1.1466,1.1922,1.2236,1.1557,1.0931,0.0,0.0,0.0,0.0,0.0,1.1376,0.0,0.0,1.1702,0.0,0.0,0.0,0.0,1.3243,1.3543,1.3518,1.413,1.379,1.2624,1.2502,1.1547,0.0,0.9647,0.0,0.8031,0.0,0.0,0.0,0.0,0.0,0.0,0.9388,0.9565,0.9636,0.8789,0.8559,0.8806,0.0,1.024,0.0,0.0,0.0,0.0,0.0,0.0,0.0,0.0,0.0,0.0,0.0,0.0,0.0,0.0,0.0,1.6767,0.0,0.0,0.0,0.0,0.0,0.0,0.0,0.0,0.0,0.0,0.0,0.0,0.0,0.0,0.0,0.0,0.0,0.0,0.0,0.0,1.733,1.7299,1.7076,1.6837,1.6522,1.6795,1.7076,1.7312,1.7626,1.8027,1.8574,1.8779,1.9043,1.9369,1.9603,1.969,1.9741,2.0248,2.1203,2.245,2.3007,2.4191,2.5717,2.6319,2.676,2.7238,2.8541,2.9011,2.9168,1.6095,1.5299,1.4457,1.3611,0.0,1.203,1.1814,1.1648,1.144,0.0,0.0,0.0,0.9218,0.9106,0.0,0.0,0.0,0.9387,0.0,0.0,0.982,0.0,0.0,0.0,0.0,0.0,1.2387,1.2155,1.2436,1.1728,1.0152,1.0487,0.9344,0.0,0.0,0.7314,0.6029,0.0,0.0,0.7101,0.7023,0.7454,0.822,0.8683,0.8792,0.8598,0.7903,0.7904,0.8275,0.8543,0.9544,0.0,1.1378,0.0,0.0,0.0,0.0,0.0,1.56,0.0,0.0,0.0,0.0,0.0,0.0,0.0,0.0,0.0,0.0,0.0,0.0,0.0,0.0,0.0,0.0,0.0,0.0,0.0,0.0,0.0,0.0,0.0,0.0,0.0,0.0,0.0,0.0,0.0,1.7932,1.7653,1.7353,1.6951,1.7312,1.7585,1.7747,1.8145,1.8574,1.9132,1.9132,1.9391,1.9874,1.9874,1.9945,2.0085,2.0364,2.1368,2.2837,2.3173,2.4452,2.6191,2.6191,2.6524,2.7092,2.8039,2.8591,2.9023,1.4869,1.4744,0.0,0.0,0.0,0.0,0.0,0.0,0.0,0.0,0.0,0.0,0.0,0.0,0.0,0.0,0.0,0.6745,0.6691,0.0,0.7326,0.0,0.0,0.9408,0.0,0.0,0.0,1.0864,1.0093,0.9372,0.8724,0.8125,0.7391,0.0,0.0,0.6249,0.5479,0.4838,0.4948,0.5634,0.6067,0.677,0.754,0.0,0.7345,0.7076,0.7027,0.0,0.0,0.8186,0.8311,0.0,0.0,0.0,0.0,0.0,0.0,0.0,0.0,0.0,0.0,1.4959,0.0,0.0,0.0,0.0,1.434,0.0,0.0,0.0,0.0,0.0,0.0,0.0,0.0,0.0,0.0,0.0,0.0,0.0,0.0,0.0,0.0,0.0,0.0,0.0,0.0,0.0,1.9439,1.8622,1.8066,1.8066,1.8066,1.8341,1.8855,1.8855,1.9132,1.969,1.969,1.9909,2.028,2.028,2.0516,2.0975,2.0959,2.207,2.3836,2.3869,2.498,2.6691,2.6691,2.6708,2.6742,2.6759,2.7502,2.8682,1.2156,0.0,0.0,0.0,0.0,0.0,0.0,0.9416,0.0,0.0,0.0,0.0,0.0,0.0,0.5508,0.0,0.0,0.5869,0.5869,0.6794,0.0,0.0,0.0,0.8771,0.0,0.0,0.0,0.8758,0.8919,0.8449,0.732,0.7069,0.0,0.0,0.0,0.5492,0.0,0.0,0.0,0.0,0.0,0.7726,0.7729,0.0,0.0,0.6979,0.6979,0.6979,0.0,0.739,0.7838,0.8417,0.9221,0.9935,1.0599,1.1024,1.1474,0.0,0.0,0.0,1.2455,1.273,0.0,0.0,0.0,0.0,0.0,0.0,0.0,0.0,0.0,0.0,0.0,0.0,0.0,0.0,0.0,0.0,0.0,0.0,0.0,0.0,0.0,0.0,0.0,0.0,0.0,0.0,0.0,1.9396,1.8933,1.8579,1.8598,1.8727,1.8893,1.9244,1.953,1.969,1.969,1.9782,1.9909,2.0193,2.0382,2.0583,2.1134,2.2048,2.3175,2.3976,2.4972,2.6031,2.6505,2.6691,2.6725,2.6987,2.7351,2.7983,1.007,0.0,0.0,0.0,0.0,0.0,0.0,0.0,0.0,0.0,0.5467,0.0,0.5194,0.0,0.4539,0.0,0.493,0.5164,0.5164,0.6036,0.0,0.6902,0.7385,0.0,0.0,0.0,0.0,0.0,0.7475,0.709,0.6199,0.6199,0.0,0.0,0.0,0.0,0.0,0.0,0.5171,0.0,0.0,0.7944,0.0,0.0,0.7304,0.7304,0.0,0.7275,0.7194,0.7308,0.7704,0.815,0.8274,0.8941,0.9671,0.9671,1.0053,1.0509,1.0931,1.0897,0.0,1.117,1.0597,0.0,1.0161,0.0,0.0,0.0,0.0,0.0,0.0,0.0,0.0,0.0,0.0,0.0,0.0,1.6354,0.0,0.0,0.0,0.0,0.0,0.0,0.0,0.0,0.0,0.0,0.0,0.0,1.9606,1.9133,1.914,1.9169,1.9169,1.953,1.969,1.969,1.969,1.9854,2.0174,2.0431,2.0715,2.1039,2.1598,2.2269,2.2998,2.3793,2.4526,2.527,2.6015,2.6302,2.6369,2.6901,2.7351,2.8001,0.0,0.0,0.0,0.0,0.9343,0.0,0.0,0.0,0.4235,0.0,0.3782,0.3725,0.4548,0.4548,0.4577,0.4667,0.4548,0.0,0.4519,0.4515,0.0,0.0,0.5538,0.5869,0.6534,0.0,0.0,0.0,0.0,0.5542,0.5487,0.5487,0.0,0.0,0.5164,0.0,0.4574,0.4574,0.4948,0.5688,0.6878,0.7617,0.7928,0.7928,0.0,0.7922,0.7895,0.7742,0.758,0.7829,0.7736,0.7587,0.7836,0.8136,0.8427,0.8427,0.9024,0.9762,0.9762,1.0218,1.058,1.0197,0.0,0.0,0.0,0.0,0.9731,0.0,0.0,0.0,0.0,0.0,0.0,0.0,0.0,0.0,0.0,0.0,0.0,0.0,0.0,0.0,0.0,0.0,0.0,0.0,0.0,0.0,0.0,0.0,0.0,1.9782,1.9711,1.969,1.969,1.969,1.969,1.969,1.969,2.0139,2.0959,2.0991,2.1462,2.2282,2.2282,2.2699,2.3342,2.3376,2.3799,2.454,2.5253,2.5575,2.5693,2.6454,2.7499,2.8694,0.6328,0.6308,0.6288,0.0,0.6114,0.5772,0.0,0.0,0.0,0.0,0.3112,0.3469,0.3666,0.4147,0.4532,0.4573,0.4539,0.0,0.0,0.0,0.0,0.5487,0.6036,0.6145,0.5814,0.6848,0.0,0.576,0.0,0.0,0.5483,0.0,0.0,0.0,0.0,0.0,0.5218,0.5218,0.5977,0.7224,0.8081,0.8488,0.0,0.0,0.8584,0.8524,0.8041,0.7835,0.7822,0.7855,0.7876,0.7829,0.7855,0.8136,0.8427,0.8427,0.8731,0.9061,0.9061,0.9159,0.9183,0.8515,0.8024,0.7647,0.0,0.0,0.0,0.0,0.0,0.0,0.0,0.0,0.0,0.0,0.0,0.0,0.0,0.0,0.0,0.0,0.0,0.0,0.0,0.0,0.0,0.0,0.0,0.0,0.0,0.0,0.0,2.0665,2.005,1.969,1.969,1.969,1.969,1.969,1.969,1.9965,2.0483,2.0829,2.1291,2.1794,2.2135,2.2412,2.2632,2.3173,2.3511,2.3748,2.4475,2.5118,2.5725,2.6745,2.7927,2.9006,0.5228,0.0,0.0,0.3143,0.0,0.0,0.2454,0.0,0.0,0.2232,0.2651,0.0,0.3818,0.4274,0.4519,0.4519,0.4519,0.0,0.0,0.0,0.0,0.5058,0.5441,0.5496,0.5058,0.614,0.0,0.5487,0.0,0.0,0.5483,0.0,0.0,0.0,0.0,0.5164,0.0,0.6195,0.7111,0.8184,0.8633,0.0,0.0,0.8804,0.8804,0.8764,0.843,0.823,0.8143,0.827,0.823,0.8123,0.8123,0.833,0.8537,0.841,0.8577,0.8752,0.8427,0.8321,0.8156,0.7396,0.686,0.6498,0.6393,0.6125,0.6034,0.0,0.0,0.0,0.0,0.0,0.0,0.0,0.0,0.0,0.0,0.0,0.0,0.0,0.0,0.0,0.0,0.0,0.0,0.0,0.0,0.0,0.0,0.0,0.0,2.0731,2.052,2.0161,1.969,1.9989,1.9989,1.969,1.969,1.9909,2.0314,2.0797,2.1213,2.1628,2.2106,2.231,2.2344,2.275,2.2919,2.3021,2.41,2.4949,2.5725,2.6698,2.7469,2.8035,0.0,0.0,0.0,0.0,0.0,0.0,0.0,0.0543,0.0,0.2119,0.0,0.2909,0.4368,0.4485,0.4519,0.4519,0.0,0.4519,0.4519,0.4519,0.4519,0.4519,0.4519,0.4519,0.4519,0.5273,0.0,0.0,0.0,0.0,0.0,0.0,0.0,0.0,0.0,0.0,0.0,0.7385,0.8336,0.0,0.8837,0.8857,0.891,0.8857,0.8804,0.8804,0.8804,0.8644,0.8521,0.8822,0.8741,0.8481,0.8582,0.8707,0.8758,0.8504,0.8611,0.8646,0.7889,0.7723,0.7503,0.6637,0.5982,0.5651,0.6204,0.5819,0.5546,0.6204,0.6367,0.648,0.0,0.0,0.0,0.0,0.0,0.0,0.0,0.0,0.0,0.0,0.0,0.0,0.0,0.0,0.0,0.0,0.0,0.0,0.0,0.0,0.0,2.0416,2.0887,0.0,1.9824,0.0,2.0318,1.9824,1.9735,1.9909,2.0314,2.0715,2.1118,2.1521,2.1945,2.2123,2.2123,2.2224,2.2324,2.2543,2.3902,2.489,2.5579,2.632,2.6657,2.6691,0.0,0.0,0.0,0.0,0.0,0.0369,0.0978,0.096,0.1004,0.1292,0.2347,0.0,0.3487,0.4138,0.4519,0.4519,0.4519,0.0,0.0,0.0,0.0,0.4519,0.4519,0.4519,0.4519,0.5769,0.6091,0.0,0.0,0.0,0.0,0.0,0.0,0.0,0.0,0.0,0.8199,0.9072,0.0,1.0348,0.9256,0.9106,0.9562,0.9008,0.8804,0.8804,0.8804,0.8778,0.8842,0.9444,0.9228,0.8829,0.9379,0.9214,0.8798,0.8744,0.8764,0.8646,0.7889,0.7723,0.7391,0.6032,0.5597,0.5378,0.4952,0.4791,0.4736,0.4846,0.5332,0.5706,0.5706,0.0,0.0,0.0,0.0,0.0,0.0,0.0,0.0,0.0,0.0,0.0,0.0,0.0,0.0,0.0,0.0,0.0,0.0,0.0,0.0,0.0,0.0,0.0,0.0,0.0,2.0094,2.0528,1.9959,1.9909,2.0314,2.0382,2.0682,2.1118,2.1197,2.1229,2.1277,2.1827,2.2391,2.2951,2.3842,2.4514,2.5059,2.5839,2.6367,2.6691,0.0,0.0,0.0,0.0,0.0,0.0,0.0,0.2065,0.0,0.2399,0.2945,0.3488,0.3948,0.4284,0.4519,0.4519,0.4519,0.4519,0.4519,0.4519,0.4519,0.4519,0.4519,0.0,0.4519,0.5878,0.6421,0.6091,0.0,0.0,0.0,0.0,0.0,0.0,0.0,0.7972,0.0,0.0,0.0,1.021,0.9211,0.9008,0.9263,0.891,0.8804,0.8804,0.8804,0.8804,0.8857,0.9159,0.9061,0.8857,0.9159,0.9061,0.8804,0.8804,0.8533,0.8049,0.7343,0.6853,0.6303,0.5218,0.5003,0.4893,0.457,0.4519,0.4519,0.4519,0.4732,0.5003,0.5003,0.5546,0.0,0.0,0.0,0.0,0.0,0.0,0.0,0.0,0.0,0.0,0.0,0.0,0.0,0.0,0.0,0.0,0.0,0.0,0.0,0.0,0.0,0.0,0.0,0.0,0.0,2.0183,1.9839,1.9818,2.0,2.0212,2.0416,2.0649,2.0894,2.0991,2.1055,2.1725,2.241,2.3056,2.3813,2.4216,2.4551,2.5625,2.6156,2.6367,0.0,0.1006,0.0,0.0,0.1222,0.0,0.0,0.3114,0.3403,0.353,0.3535,0.3826,0.4582,0.4591,0.4519,0.4519,0.4519,0.4519,0.4519,0.4519,0.4519,0.4519,0.4625,0.4736,0.4736,0.5932,0.6696,0.0,0.0,0.0,0.0,0.0,0.0,0.0,0.0,0.0,0.0,0.0,0.9413,0.9969,0.9113,0.891,0.9008,0.8857,0.8804,0.8804,0.8804,0.8804,0.8804,0.8804,0.8804,0.8804,0.8962,0.891,0.8804,0.8804,0.8374,0.7723,0.6858,0.6204,0.5542,0.4736,0.4519,0.4519,0.4519,0.4519,0.4519,0.4519,0.4519,0.4519,0.4519,0.4948,0.0,0.0,0.0,0.0,0.0,0.0,0.0,0.0,0.0,0.0,0.0,0.0,0.0,0.0,0.0,0.0,0.0,0.0,0.0,0.0,0.0,2.1108,1.9753,0.0,2.0124,0.0,1.9479,1.9369,1.9354,1.9671,1.9834,1.9869,2.0333,2.0789,2.1203,2.1862,2.2535,2.3189,2.3746,2.4141,2.4447,2.5456,2.5888,2.6049,0.0,0.0,0.0,0.0,0.0,0.0,0.0,0.364,0.3525,0.3429,0.3978,0.4428,0.4484,0.4525,0.4519,0.4519,0.4519,0.4519,0.4519,0.4519,0.4519,0.4519,0.5058,0.5433,0.5433,0.6204,0.6912,0.0,0.0,0.0,0.0,0.0,0.0,0.0,0.0,0.0,0.0,0.971,1.0115,1.061,0.9309,0.9159,0.9666,0.9008,0.8804,0.8804,0.8804,0.8804,0.8804,0.8804,0.8804,0.891,0.951,0.9316,0.8804,0.8804,0.8752,0.8374,0.6966,0.6534,0.6154,0.4846,0.4519,0.4519,0.4519,0.4519,0.4519,0.4519,0.4519,0.4519,0.4519,0.457,0.5007,0.0,0.0,0.0,0.0,0.0,0.0,0.0,0.0,0.0,0.0,0.0,0.0,0.0,0.0,0.0,0.0,0.0,0.0,2.034,0.0,2.0705,1.9904,1.9329,0.0,1.9864,1.8779,1.8263,1.8263,1.8288,1.8327,1.8327,1.8864,2.007,2.1702,2.2365,2.3013,2.3543,2.3603,2.4256,2.5125,2.5227,2.5577,2.6013,0.0,0.0,0.0,0.0,0.0,0.0,0.0,0.4461,0.4355,0.4213,0.435,0.4519,0.4519,0.4519,0.4519,0.4519,0.4519,0.4519,0.4519,0.4519,0.4519,0.4519,0.4732,0.5109,0.5487,0.6204,0.6966,0.0,0.0,0.0,0.0,0.0,0.0,0.0,0.0,0.9211,0.9211,0.9211,0.9361,0.9562,0.9008,0.8956,0.9159,0.891,0.8804,0.8804,0.8804,0.8804,0.8804,0.8804,0.8804,0.8857,0.9106,0.9008,0.8804,0.8804,0.848,0.7996,0.7402,0.6912,0.6367,0.5328,0.5109,0.5003,0.457,0.4519,0.4519,0.4519,0.4519,0.4519,0.4519,0.4519,0.468,0.0,0.0,0.0,0.0,0.0,0.0,0.0,0.0,0.0,0.0,0.0,0.0,0.0,0.0,0.0,0.0,0.0,0.0,1.9893,0.0,1.9741,1.8838,1.8545,1.8545,1.8798,1.8335,1.8106,1.8106,1.8106,1.8259,1.8604,1.9234,2.0338,2.1766,2.2423,2.3041,2.3595,2.3595,2.3879,2.4266,2.4576,2.4871,2.5105,0.0,0.0,0.1608,0.0,0.3357,0.4153,0.5067,0.5074,0.4928,0.4775,0.4623,0.4567,0.4522,0.4519,0.4519,0.4519,0.4519,0.4519,0.4519,0.4519,0.4519,0.4519,0.4677,0.0,0.5487,0.6036,0.6637,0.7396,0.7894,0.0,0.0,0.0,0.0,0.0,0.8804,0.8804,0.8804,0.8804,0.8699,0.848,0.848,0.8368,0.8156,0.8156,0.8262,0.848,0.848,0.848,0.848,0.848,0.8321,0.8209,0.8646,0.8804,0.8804,0.8804,0.8427,0.7943,0.7509,0.702,0.6372,0.5437,0.5218,0.5058,0.4625,0.4519,0.4519,0.4519,0.4519,0.4519,0.4519,0.4519,0.457,0.4787,0.0,0.0,0.0,0.0,0.0,0.0,0.0,1.046,0.0,0.0,0.0,0.0,0.0,0.0,0.0,0.0,0.0,0.0,0.0,0.0,0.0,1.7315,1.7315,1.7315,1.7164,1.7205,1.7382,1.7531,1.8031,1.8738,1.9378,2.0331,2.1495,2.2135,2.2644,2.3024,2.3024,2.3157,2.3303,2.3704,2.3857,2.3899,0.0,0.0672,0.1608,0.2544,0.3411,0.4281,0.5223,0.5226,0.5077,0.4935,0.4782,0.4629,0.4532,0.4519,0.4519,0.4519,0.4519,0.4519,0.4519,0.4519,0.4519,0.0,0.0,0.5487,0.5487,0.5487,0.5869,0.6588,0.0,0.0,0.7729,0.0,0.8811,0.8804,0.8804,0.8804,0.8804,0.8804,0.8374,0.7723,0.7723,0.7289,0.6642,0.6642,0.7074,0.7723,0.7723,0.7723,0.7723,0.7723,0.7235,0.6858,0.8321,0.8804,0.8804,0.8804,0.8804,0.848,0.702,0.6588,0.6263,0.4846,0.4519,0.4519,0.4519,0.4519,0.4519,0.4519,0.4519,0.4519,0.4519,0.4519,0.4732,0.5378,0.0,0.0,0.0,0.0,0.0,0.0,0.8833,0.9123,0.7871,0.0,0.0,0.0,0.0,0.0,0.0,0.0,0.0,1.7183,1.7022,0.0,1.5536,1.5536,1.5536,1.5548,1.4982,1.505,1.5632,1.6238,1.7157,1.8249,1.8835,1.9768,2.085,2.1462,2.1744,2.1697,2.1697,2.2062,2.2493,2.2538,2.2538,2.2538,0.1006,0.2076,0.3211,0.3547,0.435,0.5024,0.5359,0.5318,0.5199,0.4952,0.4877,0.4748,0.4546,0.4519,0.4519,0.0,0.4519,0.4519,0.0,0.4519,0.4519,0.4519,0.468,0.5058,0.5487,0.5487,0.5869,0.6588,0.0,0.0,0.0,0.7539,0.7505,0.7289,0.7289,0.7289,0.7289,0.7289,0.7182,0.6966,0.6966,0.6804,0.6588,0.6588,0.675,0.6966,0.6966,0.6966,0.6966,0.6966,0.6804,0.6696,0.7128,0.7289,0.7289,0.7289,0.7289,0.7182,0.675,0.6588,0.6367,0.5437,0.5164,0.5054,0.4625,0.4519,0.4519,0.4519,0.4519,0.4519,0.4519,0.4519,0.457,0.4787,0.5218,0.0,0.0,0.0,0.0,0.0,0.0,0.7947,0.0,0.7923,0.0,0.0,0.0,0.0,0.0,0.0,0.0,0.0,1.5985,0.0,1.4937,1.4937,1.4937,1.4937,1.4778,1.5017,1.5644,1.6194,1.7078,1.8277,1.9271,2.012,2.0871,2.1452,2.137,2.0944,2.0944,2.0744,2.0456,2.0456,2.0456,2.0456,0.1407,0.2744,0.4015,0.4015,0.4755,0.5428,0.5428,0.5428,0.5274,0.503,0.4999,0.4904,0.466,0.4633,0.0,0.4555,0.4548,0.4572,0.4629,0.4579,0.4572,0.4629,0.4633,0.4858,0.525,0.0,0.0,0.5883,0.6318,0.6505,0.6505,0.6789,0.6774,0.6588,0.6588,0.6588,0.6588,0.6588,0.6421,0.6204,0.6204,0.6041,0.5828,0.5828,0.5987,0.6204,0.6204,0.6204,0.6204,0.6204,0.6041,0.5769,0.5487,0.5378,0.5542,0.6367,0.6588,0.6534,0.6258,0.6204,0.5928,0.4937,0.4663,0.4498,0.3788,0.3624,0.3735,0.4012,0.407,0.4181,0.446,0.4519,0.4519,0.4519,0.4838,0.5003,0.0,0.0,0.0,0.0,0.0,0.0,0.0,0.6367,0.0,0.0,0.0,0.0,0.0,0.0,0.0,1.4085,1.3864,0.0,1.3243,1.3243,1.3243,1.3243,1.3737,1.4297,1.4971,1.566,1.6527,1.7521,1.84,1.907,1.9569,1.9686,1.9419,1.8983,1.8674,1.8272,1.7901,1.7901,1.7901,1.7901,0.1474,0.2878,0.0,0.0,0.4821,0.0,0.5428,0.5428,0.5308,0.5148,0.5131,0.5077,0.4935,0.4928,0.4877,0.4731,0.0,0.0,0.0,0.4785,0.4769,0.4911,0.4918,0.4918,0.4918,0.4918,0.4843,0.4691,0.5206,0.5445,0.5433,0.6145,0.648,0.648,0.648,0.648,0.648,0.648,0.6041,0.5433,0.5433,0.5003,0.4408,0.4405,0.4783,0.5265,0.5265,0.5265,0.5265,0.5265,0.4835,0.4236,0.3511,0.3289,0.3616,0.5706,0.6312,0.6145,0.5483,0.5265,0.4933,0.3561,0.3231,0.3065,0.2343,0.2174,0.2397,0.3065,0.3289,0.3569,0.4294,0.4405,0.4463,0.4519,0.4519,0.4519,0.4519,0.0,0.0,0.0,0.0,0.0,0.0,0.4893,0.5117,0.0,0.0,0.0,0.0,0.0,1.1446,1.1653,1.109,1.0813,1.0813,1.0813,1.083,1.0854,1.208,1.3064,1.3726,1.4709,1.546,1.5974,1.6398,1.6807,1.7181,1.6458,1.611,1.5987,1.531,1.5013,1.4955,1.5023,1.5023,1.5023,0.0,0.0,0.509,0.509,0.5226,0.5428,0.5428,0.5428,0.5308,0.5148,0.5131,0.5077,0.4935,0.5016,0.5064,0.503,0.4928,0.488,0.4918,0.4884,0.488,0.4918,0.4918,0.4918,0.4918,0.4918,0.4843,0.4691,0.4826,0.4854,0.4732,0.4901,0.5007,0.5007,0.5007,0.5007,0.5007,0.5007,0.4897,0.4732,0.4732,0.4288,0.368,0.3622,0.3342,0.3003,0.3003,0.3003,0.3003,0.3003,0.2894,0.2732,0.2565,0.2454,0.2563,0.3113,0.3222,0.3224,0.3003,0.3003,0.2894,0.2563,0.2454,0.2397,0.2232,0.2174,0.2232,0.2397,0.2454,0.2732,0.3511,0.3624,0.379,0.4405,0.4519,0.4519,0.4519,0.5222,0.0,0.0,0.4992,0.5269,0.4006,0.4721,0.5382,0.0,0.0,0.0,0.0,0.7629,0.8815,1.0948,1.0855,1.0813,1.0813,1.0813,1.0902,1.1181,1.1488,1.1981,1.2586,1.3247,1.3523,1.3489,1.4016,1.411,1.3767,1.3593,1.3151,1.2728,1.3186,1.2998,1.2635,1.3296,1.3502,1.3502,0.4015,0.4755,0.5428,0.5428,0.5428,0.5428,0.5428,0.5428,0.5332,0.5247,0.5237,0.5206,0.5128,0.5189,0.5237,0.5237,0.504,0.4979,0.5111,0.4996,0.4979,0.5114,0.5121,0.5121,0.5121,0.5121,0.5047,0.4891,0.4758,0.465,0.4565,0.4553,0.4294,0.3956,0.4349,0.4125,0.3456,0.3846,0.379,0.3456,0.3456,0.3231,0.2843,0.2788,0.2565,0.2174,0.2174,0.2174,0.2174,0.2174,0.2174,0.212,0.1786,0.1675,0.1567,0.0795,0.1354,0.2183,0.2216,0.2201,0.212,0.1786,0.1452,0.1174,0.1174,0.1174,0.1284,0.1619,0.1675,0.1953,0.2732,0.2843,0.2954,0.34,0.3456,0.3456,0.3456,0.3765,0.0,0.2498,0.3317,0.3534,0.2445,0.3332,0.4158,0.4481,0.0,0.0,0.6151,0.6558,0.7428,0.8978,0.9031,0.9039,0.9125,0.9125,0.9296,0.9745,0.9745,1.0056,1.0684,1.1185,1.1107,1.0642,1.1642,1.1696,1.1013,1.1063,1.08,1.0478,1.056,1.0352,1.0077,1.0537,1.0996,1.1329,0.4217,0.4821,0.5428,0.5428,0.5428,0.5428,0.5428,0.5428,0.5428,0.5428,0.5428,0.5428,0.5428,0.5428,0.5428,0.5428,0.5091,0.5036,0.5308,0.5091,0.5064,0.5315,0.5415,0.5428,0.5428,0.5428,0.5284,0.5131,0.4857,0.4653,0.4513,0.4419,0.3901,0.3176,0.3846,0.34,0.2232,0.2914,0.28,0.2176,0.2188,0.2128,0.2009,0.2009,0.1952,0.1842,0.1842,0.1842,0.1842,0.1729,0.1729,0.1561,0.0837,0.056,0.0283,-0.1054,-0.0058,0.1479,0.1463,0.1556,0.1515,0.0895,0.0392,-0.0056,-0.0168,-0.0168,0.0,0.0503,0.0614,0.0837,0.156,0.1725,0.1726,0.1836,0.1893,0.1893,0.1893,0.0,0.1597,0.0831,0.1433,0.1597,0.0831,0.1556,0.2284,0.2899,0.3624,0.4409,0.0,0.5842,0.6213,0.624,0.6683,0.6929,0.6873,0.6878,0.7076,0.7451,0.7451,0.7723,0.8279,0.861,0.8329,0.756,0.8795,0.8874,0.8112,0.8175,0.8206,0.8142,0.7603,0.7493,0.7627,0.7757,0.835,0.9075,0.5024,0.5292,0.5428,0.5428,0.5428,0.5428,0.5428,0.5428,0.5428,0.5428,0.5428,0.5428,0.5428,0.5428,0.5428,0.5428,0.5091,0.4989,0.5155,0.5125,0.5118,0.5165,0.5291,0.5428,0.5428,0.5428,0.5284,0.5131,0.4965,0.4515,0.3748,0.3623,0.3121,0.2397,0.2508,0.2397,0.2235,0.2355,0.229,0.2181,0.2185,0.1831,0.1284,0.1284,0.0895,0.0336,0.0336,0.0336,0.0224,-0.0391,-0.0614,-0.0726,-0.1449,-0.1819,-0.199,-0.2238,-0.2128,-0.1939,-0.1948,-0.1371,-0.0752,-0.0732,-0.0392,-0.0168,-0.0783,-0.0951,-0.1062,-0.1562,-0.1672,-0.1448,-0.0722,-0.061,-0.0388,0.0221,0.0332,0.0332,0.0332,0.0,0.0055,-0.0665,-0.011,0.0055,-0.0665,0.0499,0.1291,0.1442,0.2145,0.2591,0.2732,0.2859,0.3015,0.316,0.5703,0.6716,0.5943,0.5943,0.5691,0.529,0.529,0.5348,0.5409,0.5493,0.5078,0.4222,0.4451,0.4212,0.372,0.3725,0.3727,0.3794,0.4386,0.5048,0.5782,0.6555,0.7414,0.8221,0.5226,0.5428,0.5428,0.5428,0.5428,0.5428,0.5428,0.5428,0.5428,0.5428,0.5428,0.5428,0.5428,0.5428,0.5428,0.5428,0.5159,0.503,0.5016,0.5016,0.505,0.5128,0.5277,0.5428,0.5428,0.5428,0.5124,0.4528,0.4399,0.3872,0.3018,0.2815,0.2348,0.1606,0.2005,0.1759,0.1065,0.1415,0.136,0.1035,0.0993,0.0815,0.0517,0.0507,0.028,-0.0056,-0.0448,-0.0616,-0.0727,-0.1452,-0.1752,-0.1892,-0.2236,-0.2463,-0.2724,-0.3179,-0.2987,-0.2573,-0.2591,-0.1933,-0.1197,-0.1122,-0.0838,-0.0671,-0.1006,-0.1396,-0.1786,-0.212,-0.2174,-0.2117,-0.1781,-0.1668,-0.1556,-0.1221,-0.1165,0.0,0.0,-0.2294,-0.2717,-0.3013,-0.2879,-0.2679,-0.2578,-0.1582,-0.0943,-0.0958,-0.024,0.0182,0.0313,0.0688,0.1014,0.1175,0.3478,0.4508,0.4001,0.4064,0.3898,0.357,0.357,0.357,0.357,0.357,0.3064,0.2245,0.2799,0.2642,0.2009,0.2476,0.2678,0.2743,0.3139,0.3535,0.3936,0.4323,0.5045,0.5917,0.4625,0.4755,0.4755,0.4755,0.4755,0.4755,0.4755,0.4755,0.4821,0.5024,0.509,0.516,0.5362,0.5428,0.5428,0.5428,0.522,0.5084,0.4975,0.4969,0.5003,0.5077,0.5264,0.5292,0.509,0.509,0.4619,0.368,0.3577,0.3081,0.2248,0.2009,0.1423,0.0594,0.1126,0.0643,-0.0575,0.0,-0.0122,-0.0655,-0.0599,-0.0598,-0.0652,-0.0636,-0.0627,-0.0679,-0.1244,-0.1405,-0.1452,-0.2232,-0.2624,-0.2813,-0.293,-0.3131,-0.3363,-0.4045,-0.3544,-0.2786,-0.2799,-0.197,-0.1129,-0.112,-0.1118,-0.1118,-0.134,-0.1952,-0.2508,-0.2676,-0.2732,-0.2732,-0.2732,-0.2732,-0.2738,-0.2761,0.0,0.0,0.0,-0.4374,-0.4843,-0.4773,-0.4935,-0.477,-0.4116,-0.3381,-0.2958,-0.2979,-0.2291,-0.1815,-0.161,-0.1094,-0.0714,-0.0664,0.1133,0.1917,0.1619,0.1718,0.1586,0.1296,0.1296,0.1296,0.1296,0.1296,0.0908,0.026,0.106,0.1003,0.0401,0.1136,0.1469,0.147,0.1672,0.1872,0.2072,0.2072,0.2748,0.3842,0.2893,0.2878,0.2878,0.2878,0.2878,0.2878,0.2878,0.2878,0.3211,0.4015,0.4082,0.4417,0.5296,0.5428,0.5428,0.5428,0.522,0.5125,0.5114,0.5114,0.506,0.4942,0.5209,0.5024,0.4148,0.4082,0.368,0.2811,0.2671,0.2186,0.1416,0.1246,0.0368,-0.1104,-0.1043,-0.1591,-0.2509,-0.246,-0.2452,-0.2518,-0.2523,-0.2509,-0.2512,-0.2507,-0.2398,-0.2337,-0.2395,-0.2291,-0.2232,-0.3065,-0.3421,-0.3635,-0.4336,-0.4702,-0.4898,-0.4846,-0.4222,-0.3551,-0.3648,-0.2515,-0.1278,-0.1126,-0.1118,-0.1284,-0.1952,-0.2676,-0.3456,-0.4181,-0.4349,-0.4349,-0.4349,-0.4349,-0.4396,-0.4477,0.0,0.0,-0.4723,-0.4769,-0.4741,-0.4884,-0.4908,-0.4918,-0.4796,-0.418,-0.3727,-0.3697,-0.3066,-0.2587,-0.2598,-0.2534,-0.2536,-0.2474,-0.0732,-0.0199,-0.0996,-0.0998,-0.1466,-0.2335,-0.2335,-0.2335,-0.2335,-0.2335,-0.2335,-0.2403,-0.2339,-0.2341,-0.2409,-0.2341,-0.2274,-0.2207,-0.1339,-0.0535,0.02,0.02,0.129,0.2849,0.0821,0.0892,0.089,0.1002,0.095,0.1095,0.1741,0.2339,0.2811,0.3145,0.3211,0.3345,0.368,0.3747,0.3747,0.3747,0.3645,0.3596,0.3471,0.2992,0.3201,0.4282,0.3969,0.3547,0.3211,0.2603,0.1867,0.1002,0.0462,-0.0329,-0.1185,-0.1215,-0.1577,-0.221,-0.2706,-0.3171,-0.3552,-0.4096,-0.4296,-0.4314,-0.4296,-0.3982,-0.3511,-0.3508,-0.3162,-0.2658,-0.314,-0.3235,-0.332,-0.4092,-0.4417,-0.459,-0.4839,-0.5108,-0.5264,-0.5209,-0.4574,-0.3853,-0.3898,-0.2583,-0.1249,-0.168,-0.1786,-0.202,-0.2862,-0.3623,-0.4282,-0.4666,-0.4745,-0.4745,-0.4745,-0.4745,-0.4765,-0.4823,0.0,-0.4959,-0.5498,-0.567,-0.5961,-0.6458,-0.6693,-0.6831,-0.6831,-0.6065,-0.5577,-0.5567,-0.4945,-0.4451,-0.4353,-0.4353,-0.4353,-0.4353,-0.3737,-0.2998,-0.2204,-0.2138,-0.2339,-0.2678,-0.2678,-0.2769,-0.2816,-0.2767,-0.2771,-0.2814,-0.2765,-0.2678,-0.2678,-0.2678,-0.2678,-0.2678,-0.2277,-0.1606,-0.087,-0.1471,-0.0539,0.1165,-0.1266,-0.113,-0.1126,-0.1029,-0.1116,-0.0912,-0.0136,0.0541,0.1015,0.1285,0.1353,0.1424,0.1709,0.1766,0.1763,0.1709,0.1765,0.1749,0.16,0.0811,0.102,0.2634,0.2043,0.1573,0.13,0.0678,-0.0067,-0.088,-0.1474,-0.207,-0.2676,-0.3012,-0.3243,-0.3565,-0.4452,-0.4968,-0.5326,-0.5917,-0.6133,-0.6152,-0.6152,-0.578,-0.5272,-0.523,-0.4859,-0.4338,-0.4836,-0.4992,-0.5019,-0.5211,-0.5377,-0.5445,-0.5191,-0.5203,-0.5287,-0.5287,-0.4662,-0.3922,-0.3922,-0.2783,-0.1728,-0.2246,-0.2533,-0.2894,-0.3492,-0.4225,-0.4792,-0.4897,-0.4918,-0.4918,-0.4918,-0.4918,-0.4992,-0.5344,-0.5409,-0.5751,-0.6604,-0.6922,-0.7288,-0.7867,-0.8012,-0.8128,-0.8128,-0.754,-0.7134,-0.7197,-0.668,-0.6336,-0.6214,-0.621,-0.621,-0.621,-0.621,-0.5602,-0.4394,-0.3808,-0.3675,-0.3936,-0.4041,-0.4214,-0.4523,-0.4211,-0.4081,-0.4049,-0.3708,-0.3547,-0.3547,-0.3547,-0.3547,-0.348,-0.2945,-0.2477,-0.2143,-0.2209,-0.128,0.0137,-0.3141,-0.3125,-0.3125,-0.3123,-0.3123,-0.3096,-0.2943,-0.2933,-0.258,-0.1738,-0.1598,-0.1331,-0.0501,-0.0281,-0.028,-0.043,-0.0281,-0.028,-0.043,-0.1295,-0.1353,-0.0277,-0.0354,-0.0863,-0.1802,-0.1689,-0.2018,-0.2933,-0.2785,-0.2744,-0.2746,-0.36,-0.4524,-0.5391,-0.6225,-0.7145,-0.8032,-0.8032,-0.8032,-0.8032,-0.8032,-0.8032,-0.8032,-0.8032,-0.7884,-0.768,-0.768,-0.7608,-0.7364,-0.6524,-0.6292,-0.6262,-0.5385,-0.5131,-0.5131,-0.5131,-0.4466,-0.3814,-0.3814,-0.3261,-0.2707,-0.2705,-0.3258,-0.3811,-0.3811,-0.4366,-0.4921,-0.4925,-0.4925,-0.4925,-0.4925,-0.4925,-0.5276,-0.6237,-0.6576,-0.709,-0.823,-0.8498,-0.8654,-0.8798,-0.8559,-0.8425,-0.842,-0.8154,-0.8118,-0.8405,-0.8154,-0.8032,-0.8032,-0.8027,-0.8027,-0.8027,-0.8027,-0.8027,-0.8027,-0.6272,-0.5881,-0.6719,-0.6987,-0.7382,-0.7972,-0.7395,-0.6974,-0.6654,-0.5752,-0.5428,-0.5428,-0.5428,-0.5428,-0.5226,-0.3413,-0.3211,-0.3747,-0.1942,-0.0749,0.0139,-0.5149,-0.514,-0.5114,-0.502,-0.4564,-0.421,-0.4027,-0.3442,-0.2943,-0.2652,-0.2652,-0.2587,-0.2313,-0.2228,-0.2225,-0.2313,-0.2228,-0.2511,-0.3247,-0.3601,-0.3997,-0.4257,-0.298,-0.2461,-0.268,-0.3303,-0.3792,-0.4011,-0.5313,-0.5919,-0.5919,-0.6948,-0.75,-0.778,-0.8446,-0.9014,-0.9513,-0.994,-1.0236,-1.0411,-1.0411,-0.9892,-0.9202,-0.9202,-0.8647,-0.7919,-0.7919,-0.7884,-0.7696,-0.6872,-0.6591,-0.6448,-0.5614,-0.5741,-0.6124,-0.5484,-0.513,-0.49,-0.49,-0.5213,-0.5152,-0.3784,-0.4102,-0.4854,-0.5461,-0.6294,-0.6746,-0.6375,-0.6889,-0.7193,-0.6658,-0.7153,-0.7707,-0.804,-0.8117,-0.8298,-0.8636,-0.8523,-0.8785,-0.9644,-0.9457,-0.9577,-1.0182,-0.9573,-0.923,-0.9304,-0.8847,-0.849,-0.8427,-0.8342,-0.8184,-0.8032,-0.8027,-0.8027,-0.8027,-0.6854,-0.6724,-0.7632,-0.7043,-0.7313,-0.8127,-0.7242,-0.718,-0.7655,-0.6066,-0.5752,-0.6268,-0.562,-0.5024,-0.4417,-0.4553,-0.3547,-0.2142,-0.2268,-0.0939,0.1154,-0.6122,-0.6122,-0.6091,-0.6,-0.5604,-0.5306,-0.5099,-0.4638,-0.4274,-0.4274,-0.4274,-0.4291,-0.4336,-0.4299,-0.4291,-0.4336,-0.4341,-0.4638,-0.5155,-0.5306,-0.5582,-0.6122,-0.4977,-0.4559,-0.4924,-0.5822,-0.6295,-0.6295,-0.738,-0.791,-0.7915,-0.8899,-0.9319,-0.9313,-1.0071,-1.0436,-1.0648,-1.1034,-1.1269,-1.1423,-1.1423,-1.0911,-1.0188,-1.0188,-0.9753,-0.9,-0.9,-0.9,-0.8871,-0.8027,-0.7502,-0.7111,-0.6597,-0.6789,-0.7111,-0.6601,-0.6404,-0.6486,-0.6556,-0.6968,-0.7122,-0.6051,-0.6034,-0.6433,-0.7167,-0.7687,-0.7917,-0.7664,-0.8142,-0.8388,-0.7958,-0.8403,-0.8894,-0.9249,-0.94,-0.9608,-0.9955,-0.9985,-1.0219,-1.0889,-1.0741,-1.0784,-1.1275,-1.0757,-1.035,-1.035,-1.017,-0.9915,-0.9748,-0.9599,-0.9512,-0.9363,-0.8936,-0.869,-0.869,-0.7428,-0.7428,-0.869,-0.7758,-0.7893,-0.8767,-0.7421,-0.7123,-0.7555,-0.6058,-0.5484,-0.5599,-0.508,-0.4284,-0.348,-0.3338,-0.2471,-0.127,-0.0733,0.0665,0.2599,-0.6338,-0.6338,-0.6338,-0.6338,-0.6338,-0.6213,-0.6071,-0.6051,-0.6051,-0.6051,-0.6051,-0.6105,-0.6244,-0.6135,-0.6108,-0.6247,-0.6338,-0.6338,-0.6338,-0.6338,-0.6338,-0.6338,-0.6416,-0.6872,-0.7936,-0.8649,-0.9061,-0.9139,-0.899,-0.8957,-0.9027,-0.9886,-1.0311,-1.0311,-1.1125,-1.1483,-1.1503,-1.1476,-1.1483,-1.1503,-1.1503,-1.1329,-1.1069,-1.1042,-1.0855,-1.0658,-1.0631,-1.0624,-1.0498,-0.9594,-0.8748,-0.8091,-0.8027,-0.8027,-0.8091,-0.8027,-0.8042,-0.8098,-0.8369,-0.8503,-0.8643,-0.9002,-0.8732,-0.8514,-0.8933,-0.9017,-0.901,-0.9174,-0.9244,-0.9265,-0.9195,-0.9195,-0.9406,-1.0172,-1.0586,-1.1037,-1.1832,-1.2118,-1.2271,-1.2298,-1.2044,-1.187,-1.187,-1.1623,-1.1463,-1.1463,-1.1737,-1.1777,-1.1483,-1.1463,-1.1388,-1.1286,-1.0282,-0.9685,-0.9618,-0.7913,-0.7894,-0.9548,-0.8684,-0.8684,-0.9481,-0.7798,-0.6953,-0.665,-0.5679,-0.4752,-0.3877,-0.3811,-0.3209,-0.2206,-0.0601,-0.04,-0.0666,0.1868,0.3387,0.4287,-0.6338,-0.6338,-0.6338,-0.6338,-0.6338,-0.6251,-0.6217,-0.621,-0.621,-0.621,-0.621,-0.6224,-0.6257,-0.623,-0.6224,-0.6335,-0.6338,-0.6338,-0.6338,-0.6338,-0.6338,-0.6338,-0.7022,-0.7936,-0.8917,-0.842,-0.8472,-0.9225,-0.9983,-1.0392,-1.0398,-1.137,-1.182,-1.1807,-1.1806,-1.1897,-1.2098,-1.187,-1.1904,-1.2111,-1.2111,-1.1937,-1.1657,-1.1423,-1.1149,-1.0868,-1.0705,-1.0624,-1.0498,-0.9594,-0.9204,-0.8877,-0.8221,-0.8484,-0.8877,-0.8221,-0.8149,-0.8297,-0.841,-0.9032,-0.9996,-1.1064,-1.158,-1.1699,-1.1125,-1.2298,-1.334,-1.2855,-1.294,-1.2931,-1.2162,-1.1971,-1.1926,-1.1853,-1.1866,-1.1985,-1.2211,-1.2064,-1.2044,-1.2278,-1.2044,-1.187,-1.187,-1.181,-1.177,-1.177,-1.2044,-1.2084,-1.179,-1.177,-1.1307,-1.0233,-0.9967,-0.9449,-0.8682,-0.8264,-0.8167,-0.8364,-0.7606,-0.7597,-0.8359,-0.724,-0.6745,-0.6555,-0.5001,-0.3799,-0.2849,-0.2195,-0.0999,0.04,0.0133,0.0732,0.2002,0.3245,0.4303,0.5373,-0.6338,-0.6338,-0.6338,-0.6338,-0.6338,-0.6338,-0.6338,-0.6338,-0.6338,-0.6338,-0.6338,-0.6338,-0.6338,-0.6338,-0.6338,-0.6338,-0.6338,-0.6338,-0.6338,-0.6338,-0.6338,-0.6338,-0.7249,-0.8237,-0.9301,-0.9291,-0.9739,-1.0726,-1.1248,-1.1539,-1.1545,-1.2077,-1.2305,-1.2291,-1.2144,-1.2164,-1.2291,-1.2138,-1.2164,-1.2305,-1.2305,-1.2131,-1.1837,-1.1543,-1.1243,-1.0955,-1.0732,-1.0624,-1.0581,-1.0193,-1.0108,-1.0068,-0.9718,-0.9959,-1.023,-0.9759,-0.9714,-0.9843,-1.0042,-1.0526,-1.1269,-1.2529,-1.3525,-1.4151,-1.3698,-1.4423,-1.5155,-1.5065,-1.4832,-1.4463,-1.3899,-1.3319,-1.2866,-1.2565,-1.2512,-1.2465,-1.2318,-1.2171,-1.2131,-1.2285,-1.2171,-1.2078,-1.2078,-1.2078,-1.2078,-1.2078,-1.2218,-1.2011,-1.1411,-1.1405,-1.0822,-0.9674,-0.8596,-0.7816,-0.7245,-0.6302,-0.539,-0.4751,-0.5737,-0.6226,-0.6267,-0.5252,-0.4518,-0.3969,-0.265,-0.1323,-0.0066,0.079,0.1979,0.3175,0.3169,0.3704,0.4647,0.5552,0.6477,0.7517,-0.6338,-0.6338,-0.6338,-0.6338,-0.6338,-0.6338,-0.6338,-0.6338,-0.6338,-0.6338,-0.6338,-0.6338,-0.6338,-0.6338,-0.6338,-0.6338,-0.6338,-0.6338,-0.6338,-0.6338,-0.6416,-0.6567,-0.7326,-0.8389,-0.9518,-1.034,-1.1316,-1.2305,-1.2305,-1.2305,-1.2305,-1.2305,-1.2305,-1.2305,-1.2305,-1.2305,-1.2305,-1.2445,-1.2519,-1.2519,-1.2732,-1.2652,-1.2402,-1.2089,-1.1783,-1.1483,-1.1297,-1.1206,-1.1248,-1.15,-1.1584,-1.156,-1.1614,-1.1628,-1.1628,-1.1423,-1.1463,-1.1557,-1.1804,-1.1904,-1.2285,-1.3389,-1.4637,-1.5561,-1.5839,-1.5892,-1.6046,-1.6573,-1.5761,-1.4945,-1.4892,-1.3966,-1.318,-1.2872,-1.2903,-1.2739,-1.2492,-1.2458,-1.2438,-1.2385,-1.2331,-1.2251,-1.2142,-1.2103,-1.1996,-1.1774,-1.1774,-1.1397,-1.0559,-1.0404,-0.9798,-0.8832,-0.6836,-0.5563,-0.5262,-0.3321,-0.1719,-0.0438,-0.2683,-0.3587,-0.3293,-0.2339,-0.128,-0.0201,0.0534,0.1933,0.3735,0.4446,0.5373,0.6457,0.7199,0.7349,0.7292,0.8017,0.8933,0.9897,-0.6338,-0.6338,-0.6338,-0.6338,-0.6338,-0.6338,-0.6338,-0.6338,-0.6338,-0.6338,-0.6338,-0.6338,-0.6338,-0.6338,-0.6338,-0.6338,-0.6338,-0.6338,-0.6338,-0.6338,-0.6721,-0.7553,-0.7706,-0.8685,-1.0565,-1.0708,-1.1316,-1.2305,-1.2305,-1.2305,-1.2305,-1.2305,-1.2305,-1.2305,-1.2305,-1.2305,-1.2378,-1.3171,-1.3528,-1.36,-1.445,-1.4775,-1.4695,-1.4401,-1.4053,-1.3679,-1.3762,-1.3803,-1.3819,-1.386,-1.3876,-1.3687,-1.296,-1.2714,-1.2511,-1.1628,-1.161,-1.1817,-1.1857,-1.2051,-1.2471,-1.3448,-1.4065,-1.4749,-1.5853,-1.7054,-1.7917,-1.8024,-1.6724,-1.5479,-1.5283,-1.4289,-1.3487,-1.32,-1.3146,-1.3133,-1.3093,-1.3086,-1.2986,-1.2795,-1.2458,-1.2026,-1.1425,-1.1157,-1.064,-0.975,-0.9674,-0.9674,-0.9523,-0.8647,-0.7647,-0.6667,-0.5407,-0.3932,-0.224,-0.0998,0.0612,0.2518,0.3027,0.2522,0.1136,0.1271,0.2318,0.3997,0.4134,0.5665,0.8049,0.8186,0.9282,1.0862,1.0942,1.0497,0.9764,0.9528,1.0437,1.1582,-0.6474,-0.6838,-0.7235,-0.7418,-0.7845,-0.8164,-0.8164,-0.8164,-0.813,-0.8025,-0.748,-0.7176,-0.7176,-0.6644,-0.6338,-0.6338,-0.6338,-0.6338,-0.6338,-0.6795,-0.737,-0.8008,-0.9092,-1.0094,-1.1012,-1.1781,-1.2254,-1.2552,-1.2385,-1.2305,-1.2305,-1.2305,-1.2592,-1.3091,-1.3091,-1.3382,-1.3875,-1.3738,-1.4027,-1.4522,-1.4386,-1.4665,-1.5192,-1.4828,-1.4587,-1.4421,-1.4354,-1.4279,-1.4313,-1.4447,-1.4513,-1.4479,-1.4283,-1.3801,-1.3249,-1.2827,-1.2435,-1.2111,-1.2111,-1.2204,-1.2519,-1.3455,-1.3992,-1.4568,-1.5741,-1.63,-1.6847,-1.761,-1.6652,-1.5651,-1.5517,-1.4613,-1.3794,-1.35,-1.3454,-1.3394,-1.3233,-1.3213,-1.291,-1.2132,-1.2337,-1.198,-1.039,-1.0557,-1.0415,-0.9372,-0.9296,-0.8832,-0.7596,-0.7122,-0.612,-0.4513,-0.2873,-0.1317,0.0155,0.1774,0.3912,0.6486,0.6931,0.6426,0.5117,0.4575,0.5657,0.7848,0.7803,0.907,1.1249,1.1748,1.2119,1.2364,1.2364,1.1667,1.068,1.0664,1.0949,1.1141]},{"header":{"parameterUnit":"m.s-1","parameterCategory":1,"la1":30.6,"la2":28.766,"lo1":-90.7593,"lo2":-88.6598,"dy":0.0162,"dx":0.0183,"nx":116,"ny":114,"refTime":"2024-03-16T06:00:00:Z","depth":0,"parameterNumber":3,"parameterNumberName":"V-component_of_WINDS"},"data":[0.0,0.0,0.0,0.0,0.0,0.0,0.0,0.0,0.0,0.0,0.0,0.0,0.0,0.0,0.0,0.0,0.0,0.0,0.0,0.0,0.0,0.0,0.0,0.0,0.0,0.0,0.0,0.0,0.0,0.0,0.0,0.0,0.0,0.0,0.0,0.0,0.0,0.0,0.0,0.0,0.0,0.0,0.0,0.0,0.0,0.0,0.0,0.0,0.0,0.0,0.0,0.0,0.0,0.0,0.0,0.0,0.0,0.0,0.0,0.0,0.0,0.0,0.0,0.0,0.0,0.0,0.0,0.0,0.0,0.0,0.0,0.0,0.0,0.0,0.0,0.0,0.0,0.0,0.0,0.0,0.0,0.0,0.0,0.0,0.0,0.0,0.0,0.0,0.0,0.0,0.0,0.0,0.0,0.0,0.0,0.0,0.0,0.0,0.0,0.0,0.0,0.0,0.0,0.0,0.0,0.0,0.0,0.0,0.0,0.0,0.0,0.0,0.0,0.0,0.0,0.0,0.0,0.0,0.0,0.0,0.0,0.0,0.0,0.0,0.0,0.0,0.0,0.0,0.0,0.0,0.0,0.0,0.0,0.0,0.0,0.0,0.0,0.0,0.0,0.0,0.0,0.0,0.0,0.0,0.0,0.0,0.0,0.0,0.0,0.0,0.0,0.0,0.0,0.0,0.0,0.0,0.0,0.0,0.0,0.0,0.0,0.0,0.0,0.0,0.0,0.0,0.0,0.0,0.0,0.0,0.0,0.0,0.0,0.0,0.0,0.0,0.0,0.0,0.0,0.0,0.0,0.0,0.0,0.0,0.0,0.0,0.0,0.0,0.0,0.0,0.0,0.0,0.0,0.0,0.0,0.0,0.0,0.0,0.0,0.0,0.0,0.0,0.0,0.0,0.0,0.0,0.0,0.0,0.0,0.0,0.0,0.0,0.0,0.0,0.0,0.0,0.0,0.0,0.0,0.0,0.0,0.0,0.0,0.0,0.0,0.0,0.0,0.0,0.0,0.0,0.0,0.0,0.0,0.0,0.0,0.0,0.0,0.0,0.0,0.0,0.0,0.0,0.0,0.0,0.0,0.0,0.0,0.0,0.0,0.0,0.0,0.0,0.0,0.0,0.0,0.0,0.0,0.0,0.0,0.0,0.0,0.0,0.0,0.0,0.0,0.0,0.0,0.0,0.0,0.0,0.0,0.0,0.0,0.0,0.0,0.0,0.0,0.0,0.0,0.0,0.0,0.0,0.0,0.0,0.0,0.0,0.0,0.0,0.0,0.0,0.0,0.0,0.0,0.0,0.0,0.0,0.0,0.0,0.0,0.0,0.0,0.0,0.0,0.0,0.0,0.0,0.0,0.0,0.0,0.0,0.0,0.0,0.0,0.0,0.0,0.0,0.0,0.0,0.0,0.0,0.0,0.0,0.0,0.0,0.0,0.0,0.0,0.0,0.0,0.0,0.0,0.0,0.0,0.0,0.0,0.0,0.0,0.0,0.0,0.0,0.0,0.0,0.0,0.0,0.0,0.0,0.0,0.0,0.0,0.0,0.0,0.0,0.0,0.0,0.0,0.0,0.0,0.0,0.0,0.0,0.0,0.0,0.0,0.0,0.0,0.0,0.0,0.0,0.0,0.0,0.0,0.0,0.0,0.0,0.0,0.0,0.0,0.0,0.0,0.0,0.0,0.0,0.0,0.0,0.0,0.0,0.0,0.0,0.0,0.0,0.0,0.0,0.0,0.0,0.0,0.0,0.0,0.0,0.0,0.0,0.0,0.0,0.0,0.0,0.0,0.0,0.0,0.0,0.0,0.0,0.0,0.0,0.0,0.0,0.0,0.0,0.0,0.0,0.0,0.0,0.0,0.0,0.0,0.0,0.0,0.0,0.0,0.0,0.0,0.0,0.0,0.0,0.0,0.0,0.0,0.0,0.0,0.0,0.0,0.0,0.0,0.0,0.0,0.0,0.0,0.0,0.0,0.0,0.0,0.0,0.0,0.0,0.0,0.0,0.0,0.0,0.0,0.0,0.0,0.0,0.0,0.0,0.0,0.0,0.0,0.0,0.0,0.0,0.0,0.0,0.0,0.0,0.0,0.0,0.0,0.0,0.0,0.0,0.0,0.0,0.0,0.0,0.0,0.0,0.0,0.0,0.0,0.0,0.0,0.0,0.0,0.0,0.0,0.0,0.0,0.0,0.0,0.0,0.0,0.0,0.0,0.0,0.0,0.0,0.0,0.0,0.0,0.0,0.0,0.0,0.0,0.0,0.0,0.0,0.0,0.0,0.0,0.0,0.0,0.0,0.0,0.0,0.0,0.0,0.0,0.0,0.0,0.0,0.0,0.0,0.0,0.0,0.0,0.0,0.0,0.0,0.0,0.0,0.0,0.0,0.0,0.0,0.0,0.0,0.0,0.0,0.0,0.0,0.0,0.0,0.0,0.0,0.0,0.0,0.0,0.0,0.0,0.0,0.0,0.0,0.0,0.0,0.0,0.0,0.0,0.0,0.0,0.0,0.0,0.0,0.0,0.0,0.0,0.0,0.0,0.0,0.0,0.0,0.0,0.0,0.0,0.0,0.0,0.0,0.0,0.0,0.0,0.0,0.0,0.0,0.0,0.0,0.0,0.0,0.0,0.0,0.0,0.0,0.0,0.0,0.0,0.0,0.0,0.0,0.0,0.0,0.0,0.0,0.0,0.0,0.0,0.0,0.0,0.0,0.0,0.0,0.0,0.0,0.0,0.0,0.0,0.0,0.0,0.0,0.0,0.0,0.0,0.0,0.0,0.0,0.0,0.0,0.0,0.0,0.0,0.0,0.0,0.0,0.0,0.0,0.0,0.0,0.0,0.0,0.0,0.0,0.0,0.0,0.0,0.0,0.0,0.0,0.0,0.0,0.0,0.0,0.0,0.0,0.0,0.0,0.0,0.0,0.0,0.0,0.0,0.0,0.0,0.0,0.0,0.0,0.0,0.0,0.0,0.0,0.0,0.0,0.0,0.0,0.0,0.0,0.0,0.0,0.0,0.0,0.0,0.0,0.0,0.0,0.0,0.0,0.0,0.0,0.0,0.0,0.0,0.0,0.0,0.0,0.0,0.0,0.0,0.0,0.0,0.0,0.0,0.0,0.0,0.0,0.0,0.0,0.0,0.0,0.0,0.0,0.0,0.0,0.0,0.0,0.0,0.0,0.0,0.0,0.0,0.0,0.0,0.0,0.0,0.0,0.0,0.0,0.0,0.0,0.0,0.0,0.0,0.0,0.0,0.0,0.0,0.0,0.0,0.0,0.0,0.0,0.0,0.0,0.0,0.0,0.0,0.0,0.0,0.0,0.0,0.0,0.0,0.0,0.0,0.0,0.0,0.0,0.0,0.0,0.0,0.0,0.0,0.0,0.0,0.0,0.0,0.0,0.0,0.0,0.0,0.0,0.0,0.0,0.0,0.0,0.0,0.0,0.0,0.0,0.0,0.0,0.0,0.0,0.0,0.0,0.0,0.0,0.0,0.0,0.0,0.0,0.0,0.0,0.0,0.0,0.0,0.0,0.0,0.0,0.0,0.0,0.0,0.0,0.0,0.0,0.0,0.0,0.0,0.0,0.0,0.0,0.0,0.0,0.0,0.0,0.0,0.0,0.0,0.0,0.0,0.0,0.0,0.0,0.0,0.0,0.0,0.0,0.0,0.0,0.0,0.0,0.0,0.0,0.0,0.0,0.0,0.0,0.0,0.0,0.0,0.0,0.0,0.0,0.0,0.0,0.0,0.0,0.0,0.0,0.0,0.0,0.0,0.0,0.0,0.0,0.0,0.0,0.0,0.0,0.0,0.0,0.0,0.0,0.0,0.0,0.0,0.0,0.0,0.0,0.0,0.0,0.0,0.0,0.0,0.0,0.0,0.0,0.0,0.0,0.0,0.0,0.0,0.0,0.0,0.0,0.0,0.0,0.0,0.0,0.0,0.0,0.0,0.0,0.0,0.0,0.0,0.0,0.0,0.0,0.0,0.0,0.0,0.0,0.0,0.0,0.0,0.0,0.0,0.0,0.0,0.0,0.0,0.0,0.0,0.0,0.0,0.0,0.0,0.0,0.0,0.0,0.0,0.0,0.0,0.0,0.0,0.0,0.0,0.0,0.0,0.0,0.0,0.0,0.0,0.0,0.0,0.0,0.0,0.0,0.0,0.0,0.0,0.0,0.0,0.0,0.0,0.0,0.0,0.0,0.0,0.0,0.0,0.0,0.0,0.0,0.0,0.0,0.0,0.0,0.0,0.0,0.0,0.0,0.0,0.0,0.0,0.0,0.0,0.0,0.0,0.0,0.0,0.0,0.0,0.0,0.0,0.0,0.0,0.0,0.0,0.0,0.0,0.0,0.0,0.0,0.0,0.0,0.0,0.0,0.0,0.0,0.0,0.0,0.0,0.0,0.0,0.0,0.0,0.0,0.0,0.0,0.0,0.0,0.0,0.0,0.0,0.0,0.0,0.0,0.0,0.0,0.0,0.0,0.0,0.0,0.0,0.0,0.0,0.0,0.0,0.0,0.0,0.0,0.0,0.0,0.0,0.0,0.0,0.0,0.0,0.0,0.0,0.0,0.0,0.0,0.0,0.0,0.0,0.0,0.0,0.0,0.0,0.0,0.0,0.0,0.0,0.0,0.0,0.0,0.0,0.0,0.0,0.0,0.0,0.0,0.0,0.0,0.0,0.0,0.0,0.0,0.0,0.0,0.0,0.0,0.0,0.0,0.0,0.0,0.0,0.0,0.0,0.0,0.0,0.0,0.0,0.0,0.0,0.0,0.0,0.0,0.0,0.0,0.0,0.0,0.0,0.0,0.0,0.0,0.0,0.0,0.0,0.0,0.0,0.0,0.0,0.0,0.0,0.0,0.0,0.0,0.0,0.0,0.0,0.0,0.0,0.0,0.0,0.0,0.0,0.0,0.0,0.0,0.0,0.0,0.0,0.0,0.0,0.0,0.0,0.0,0.0,0.0,0.0,0.0,0.0,0.0,0.0,0.0,0.0,0.0,0.0,0.0,0.0,0.0,0.0,0.0,0.0,0.0,0.0,0.0,0.0,0.0,0.0,0.0,0.0,0.0,0.0,0.0,0.0,0.0,0.0,0.0,0.0,0.0,0.0,0.0,0.0,0.0,0.0,0.0,0.0,0.0,0.0,0.0,0.0,0.0,0.0,0.0,0.0,0.0,0.0,0.0,0.0,0.0,0.0,0.0,0.0,0.0,0.0,0.0,0.0,0.0,0.0,0.0,0.0,0.0,0.0,0.0,0.0,0.0,0.0,0.0,0.0,0.0,0.0,0.0,0.0,0.0,0.0,0.0,0.0,0.0,0.0,0.0,0.0,0.0,0.0,0.0,0.0,0.0,0.0,0.0,0.0,0.0,0.0,0.0,0.0,0.0,0.0,0.0,0.0,0.0,0.0,0.0,0.0,0.0,0.0,0.0,0.0,0.0,0.0,0.0,0.0,0.0,0.0,0.0,0.0,0.0,0.0,0.0,0.0,0.0,0.0,0.0,0.0,0.0,0.0,0.0,0.0,0.0,0.0,0.0,0.0,0.0,0.0,0.0,0.0,0.0,0.0,0.0,0.0,0.0,0.0,0.0,0.0,0.0,0.0,0.0,0.0,0.0,0.0,0.0,0.0,0.0,0.0,0.0,0.0,0.0,0.0,0.0,0.0,0.0,0.0,0.0,0.0,0.0,0.0,0.0,0.0,0.0,0.0,0.0,0.0,0.0,0.0,0.0,0.0,0.0,0.0,0.0,0.0,0.0,0.0,0.0,0.0,0.0,0.0,0.0,0.0,0.0,0.0,0.0,0.0,0.0,0.0,0.0,0.0,0.0,0.0,0.0,0.0,0.0,0.0,0.0,0.0,0.0,0.0,0.0,0.0,0.0,0.0,0.0,0.0,0.0,0.0,0.0,0.0,0.0,0.0,0.0,0.0,0.0,0.0,0.0,0.0,0.0,0.0,0.0,0.0,0.0,0.0,0.0,0.0,0.0,0.0,0.0,0.0,0.0,0.0,0.0,0.0,0.0,0.0,0.0,0.0,0.0,0.0,0.0,0.0,0.0,0.0,0.0,0.0,0.0,0.0,0.0,0.5009,0.0,0.0,0.0,0.0,0.0,0.0,0.0,0.0,0.0,0.0,0.0,0.0,0.0,0.0,0.0,0.0,0.0,0.0,0.0,0.0,0.0,0.0,0.0,0.0,0.0,0.0,0.0,0.5706,0.5218,0.4519,0.4519,0.4519,0.4519,0.4522,0.4477,0.4487,0.3752,0.336,0.3307,0.4104,0.4405,0.4267,0.4401,0.3246,0.1004,0.0,0.0,0.0,0.0,0.0,0.0,0.0,0.0,0.0,0.0,0.0,0.0,0.0,0.0,0.0,0.0,0.0,0.0,0.0,0.0,0.0,0.0,0.0,0.0,0.0,0.0,0.0,0.0,0.0,0.0,0.0,0.0,0.0,0.0,0.0,0.0,0.0,0.0,0.0,0.0,0.0,0.0,0.0,0.0,0.0,0.0,0.0,0.0,0.0,0.0,0.0,0.0,0.0,0.0,0.0,0.0,0.0,0.0,0.0,0.0,0.0,0.0,0.0,0.0,0.0,0.0,0.0,0.0,0.0,0.0,0.0,0.5131,0.0,0.0,0.0,0.0,0.0,0.0,0.0,0.0,0.0,0.0,0.0,0.0,0.0,0.0,0.0,0.0,0.0,0.0,0.0,0.0,0.0,0.0,0.0,0.8049,0.7456,0.6858,0.6253,0.5546,0.4732,0.468,0.4625,0.4519,0.4519,0.4473,0.4497,0.2963,0.2965,0.4514,0.4511,0.4511,0.4518,0.4518,0.3845,0.2608,0.1346,0.0,0.0,0.0,0.0,0.0,0.0,0.0,0.0,0.0,0.0,0.0,0.0,0.0,0.0,0.0,0.0,0.0,0.0,0.0,0.0,0.0,0.0,0.0,0.0,0.0,0.0,0.0,0.0,0.0,0.0,0.0,0.0,0.0,0.0,0.0,0.0,0.0,0.0,0.0,0.0,0.0,0.0,0.0,0.0,0.0,0.0,0.0,0.0,0.0,0.0,0.0,0.0,0.0,0.0,0.0,0.0,0.0,0.0,0.0,0.0,0.0,0.0,0.0,0.0,0.5442,0.547,0.5426,0.544,0.543,0.5277,0.5196,0.5172,0.0,0.0,0.0,0.0,0.0,0.0,0.0,0.0,0.0,0.0,0.0,0.0,0.0,0.0,0.0,0.0,0.0,0.0,0.0,0.0,0.0,0.0,0.7777,0.767,0.7563,0.745,0.6848,0.5433,0.5378,0.5109,0.4515,0.4519,0.4473,0.4497,0.2963,0.2965,0.4514,0.4494,0.4545,0.4663,0.4663,0.4614,0.4543,0.408,0.4448,0.5314,0.0,0.0,0.0,0.0,0.0,0.0,0.0,0.0,0.0,0.0,0.0,0.0,0.0,0.0,0.0,0.0,0.0,0.0,0.0,0.0,0.0,0.0,0.0,0.0,0.0,0.0,0.0,0.0,0.0,0.0,0.0,0.0,0.0,0.0,0.0,0.0,0.0,0.0,0.0,0.0,0.0,0.5198,0.7428,0.0,0.0,0.0,0.0,0.0,0.0,0.0,0.0,0.0,0.0,0.0,0.0,0.0,0.0,0.5074,0.4989,0.5077,0.5332,0.5418,0.5433,0.5562,0.5688,0.5742,0.5735,0.5593,0.0,0.5332,0.5332,0.0,0.0,0.0,0.0,0.0,0.0,0.0,0.0,0.0,0.0,0.0,0.0,0.0,0.0,0.0,0.0,0.0,0.0,0.0,0.0,0.0,0.8049,0.8156,0.7723,0.7987,0.7633,0.6213,0.6027,0.5709,0.5066,0.468,0.4473,0.4497,0.2963,0.3046,0.4751,0.4697,0.4758,0.4819,0.4901,0.4972,0.5033,0.4908,0.5012,0.5262,0.5339,0.0,0.0,0.0,0.0,0.0,0.0,0.0,0.0,0.0,0.0,0.0,0.0,0.0,0.0,0.0,0.0,0.0,0.0,0.0,0.0,0.0,0.0,0.0,0.0,0.0,0.0,0.0,0.0,0.0,0.0,0.0,0.0,0.0,0.0,0.0,0.0,0.0,0.0,0.0,0.5148,0.5978,0.8143,0.7229,0.6703,0.0,0.0,0.0,0.0,0.0,0.0,0.0,0.0,0.0,0.4977,0.4977,0.5111,0.5257,0.5284,0.5362,0.5491,0.5657,0.5772,0.584,0.5993,0.6105,0.6176,0.6112,0.6003,0.5913,0.5569,0.5428,0.5428,0.0,0.0,0.0,0.0,0.0,0.275,0.0,0.0,0.0,0.0,0.0,0.0,0.0,0.0,0.0,0.0,0.0,0.0,0.7535,0.8207,0.854,0.8343,0.8655,0.8386,0.7168,0.6897,0.6354,0.5555,0.5003,0.4709,0.4608,0.3569,0.3629,0.4963,0.5051,0.5091,0.5094,0.5237,0.5301,0.5301,0.5301,0.535,0.5514,0.6162,0.737,0.8664,0.0,0.0,0.0,0.0,0.0,0.0,0.0,0.0,0.0,0.0,0.0,0.0,0.0,0.0,0.0,0.0,0.0,0.0,0.0,0.0,0.0,0.0,0.0,0.0,0.0,0.0,0.0,0.0,0.0,0.0,0.0,0.0,0.0,0.0,0.0,0.0,0.0,0.5559,0.6289,0.821,0.6908,0.6641,0.0,0.0,0.0,0.0,0.0,0.0,0.4972,0.5009,0.5064,0.5128,0.5169,0.5264,0.5416,0.5569,0.5684,0.5766,0.602,0.6162,0.6203,0.6318,0.643,0.6529,0.6529,0.6451,0.6274,0.5749,0.5488,0.5416,0.5442,0.5369,0.5382,0.5433,0.5389,0.4993,0.0,0.0,0.0,0.0,0.0,0.0,0.0,0.0,0.0,0.0,0.0,0.5739,0.6966,0.7807,0.8694,0.988,0.9767,0.9311,0.8574,0.7961,0.6982,0.5542,0.5487,0.525,0.4814,0.5098,0.5182,0.5114,0.5418,0.5555,0.5559,0.5701,0.5769,0.5769,0.5769,0.665,0.8179,0.7368,0.7827,0.898,0.9138,0.0,0.0,0.0,0.0,0.0,0.0,0.0,0.0,0.0,0.0,0.0,0.0,0.0,0.0,0.0,0.0,0.0,0.0,0.0,0.0,0.0,0.0,0.0,0.0,0.0,0.0,0.0,0.0,0.0,0.0,0.0,0.0,0.0,0.0,0.0,0.0,0.0,0.0,0.7136,0.5936,0.0,0.0,0.0,0.0,0.5181,0.5746,0.5801,0.5118,0.5257,0.5274,0.5135,0.5274,0.5423,0.5579,0.5722,0.5939,0.623,0.638,0.6525,0.6668,0.6675,0.6681,0.6688,0.6688,0.6603,0.6437,0.6125,0.583,0.5562,0.5416,0.5369,0.5396,0.5401,0.5395,0.5364,0.0,0.0,0.0,0.0,0.0,0.0,0.0,0.0,0.4519,0.4519,0.5597,0.6626,0.7269,0.8771,0.9923,1.0381,1.0648,1.0434,0.9633,0.8504,0.7507,0.6712,0.5563,0.5075,0.5178,0.5199,0.5389,0.5711,0.5682,0.5725,0.5732,0.6776,0.7202,0.7277,0.7869,0.8936,1.0047,0.8266,0.7979,0.8717,0.863,0.761,0.0,0.0,0.0,0.0,0.0,0.0,0.0,0.0,0.0,0.0,0.0,0.0,0.0,0.0,0.0,0.0,0.0,0.0,0.0,0.0,0.0,0.0,0.0,0.0,0.0,0.0,0.0,0.0,0.0,0.0,0.0,0.0,0.0,0.0,0.0,0.0,0.0,0.6724,0.6396,0.0,0.0,0.7369,0.6561,0.6939,0.6177,0.56,0.5277,0.5332,0.5467,0.5701,0.5762,0.5956,0.6302,0.6356,0.6434,0.6546,0.6695,0.6797,0.6851,0.6943,0.6983,0.6983,0.6983,0.6902,0.6749,0.6546,0.623,0.5857,0.5705,0.5657,0.5463,0.4143,0.4385,0.5075,0.0,0.0,0.0,0.0,0.0,0.0,0.0,0.0,0.4519,0.4519,0.5996,0.7291,0.773,0.966,1.0935,1.1129,1.1316,1.1136,1.0454,0.8948,0.7875,0.7294,0.5812,0.5149,0.5571,0.5485,0.5592,0.5973,0.6012,0.6275,0.6701,0.7687,0.8347,0.8737,0.9436,1.0301,1.1265,0.9592,0.9113,0.9407,0.898,0.8469,0.7756,0.0,0.0,0.0,0.0,0.0,0.0,0.0,0.0,0.0,0.0,0.0,0.0,0.0,0.0,0.0,0.0,0.0,0.0,0.0,0.0,0.0,0.0,0.0,0.0,0.0,0.0,0.0,0.0,0.0,0.0,0.0,0.0,0.0,0.0,0.0,0.5431,0.666,0.6526,0.6931,0.8477,0.7366,0.6762,0.7149,0.6364,0.5727,0.5576,0.561,0.58,0.6098,0.6203,0.64,0.6698,0.6753,0.6776,0.678,0.6929,0.7,0.7004,0.7099,0.717,0.7217,0.7217,0.7166,0.7068,0.6912,0.6647,0.6234,0.5982,0.5821,0.5541,0.4148,0.3561,0.3271,0.0,0.0,0.0,0.0,0.0,0.0,0.0,0.4519,0.4519,0.4519,0.6061,0.748,0.8286,1.0214,1.1683,1.2265,1.177,1.1303,1.0956,0.934,0.7993,0.723,0.6077,0.561,0.5981,0.6073,0.6108,0.6051,0.6417,0.7193,0.8319,0.841,0.9073,1.0141,1.0227,1.0805,1.1692,1.1414,1.123,1.1022,1.0401,0.9983,0.9663,0.0,0.0,0.0,0.0,0.0,0.0,0.0,0.0,0.0,0.0,0.0,0.0,0.0,0.0,0.0,0.0,0.0,0.0,0.0,0.0,0.0,0.0,0.0,0.0,0.0,0.0,0.0,0.0,0.0,0.0,0.0,0.0,0.0,0.5396,0.5222,0.5581,0.6891,0.6257,0.6022,0.6829,0.6601,0.6242,0.5738,0.6299,0.6437,0.5895,0.6112,0.6278,0.6281,0.6559,0.6712,0.6722,0.6868,0.6943,0.6946,0.7088,0.7153,0.7146,0.7153,0.7238,0.738,0.738,0.7377,0.736,0.721,0.6987,0.6741,0.6221,0.5899,0.5767,0.5511,0.3099,0.0,0.0,0.0,0.0,0.0,0.0,0.0,0.0,0.4519,0.4519,0.4519,0.6415,0.8021,0.8607,1.0728,1.2211,1.2667,1.1891,1.1116,1.0411,0.8538,0.69,0.5627,0.6515,0.6728,0.5994,0.7577,0.7765,0.6515,0.8286,0.8521,0.7191,0.9105,0.9748,0.9339,1.1123,1.2163,1.2645,1.2864,1.2889,1.2806,1.1563,1.0498,0.9687,0.0,0.0,0.0,0.0,0.0,0.0,0.0,0.0,0.0,0.0,0.0,0.0,0.0,0.0,0.0,0.0,0.0,0.0,0.0,0.0,0.0,0.0,0.0,0.0,0.0,0.0,0.0,0.0,0.0,0.0,0.0,0.0,0.5336,0.5418,0.5579,0.594,0.6482,0.695,0.7247,0.7405,0.7352,0.7196,0.7025,0.6768,0.6525,0.6444,0.6532,0.663,0.6742,0.6824,0.697,0.7183,0.7227,0.7248,0.7251,0.74,0.7414,0.7312,0.7424,0.7499,0.7536,0.7536,0.7472,0.737,0.7343,0.7218,0.6959,0.6612,0.6286,0.6138,0.6099,0.3456,0.0,0.0,0.0,0.0,0.0,0.0,0.0,0.0,0.4519,0.4625,0.4897,0.6818,0.842,0.9192,1.1049,1.2325,1.2446,1.179,1.0924,0.97,0.8318,0.728,0.6585,0.7741,0.8235,0.785,0.8543,0.8427,0.7541,0.8367,0.8443,0.7744,0.985,1.0715,1.0721,1.2732,1.3702,1.382,1.4056,1.4195,1.4108,1.312,1.21,1.1137,1.0554,1.0299,1.0131,0.9909,0.995,0.9997,0.9336,0.0,0.0,0.0,0.0,0.0,0.0,0.0,0.0,0.0,0.0,0.0,0.0,0.0,0.0,0.0,0.0,0.0,0.0,0.0,0.0,0.0,0.0,0.0,0.0,0.5536,0.5755,0.5884,0.6091,0.6271,0.6427,0.7057,0.733,0.724,0.7221,0.7221,0.7221,0.6837,0.6607,0.6695,0.6763,0.6783,0.685,0.6997,0.7227,0.7376,0.7468,0.7465,0.7468,0.7556,0.7553,0.7468,0.756,0.7631,0.0,0.7689,0.7645,0.757,0.749,0.7373,0.0,0.0,0.0,0.0,0.0,0.2093,0.0,0.0,0.0,0.0,0.0,0.0,0.0,0.0,0.468,0.4842,0.5542,0.7265,0.8781,0.973,1.1217,1.2064,1.1837,1.1483,1.0607,0.9106,0.8444,0.8366,0.8805,0.9439,0.99,1.0211,0.9329,0.8756,0.8618,0.7771,0.8002,0.9186,1.0556,1.1759,1.2877,1.4301,1.4876,1.487,1.5023,1.5017,1.499,1.4689,1.4062,1.322,1.2385,1.2545,1.314,1.2599,1.2258,1.1952,1.0799,0.0,0.0,0.0,0.0,0.0,0.0,0.0,0.0,0.0,0.0,0.0,0.0,0.0,0.0,0.0,0.0,0.0,0.0,0.0,0.0,0.0,0.0,0.0,0.0,0.584,0.6264,0.6712,0.6688,0.6668,0.6787,0.6922,0.6946,0.679,0.6759,0.6749,0.6749,0.6736,0.6742,0.6773,0.0,0.0,0.0,0.0,0.7472,0.7445,0.7533,0.7624,0.7624,0.7641,0.7641,0.7624,0.7641,0.7719,0.7838,0.7838,0.7744,0.7744,0.7748,0.7491,0.7076,0.6545,0.6335,0.5768,0.1548,0.0,0.0,0.0,0.0,0.0,0.0,0.0,0.0,0.0,0.571,0.5546,0.6312,0.7843,0.8962,0.914,1.0392,1.1316,1.1496,1.0808,0.9978,0.907,0.8224,0.8163,0.9032,1.0803,1.0906,0.9032,1.0841,1.0509,0.7834,0.9457,1.0031,0.9468,1.0827,1.1589,1.202,1.3449,1.4117,1.42,1.4935,1.5311,1.5291,1.4997,1.4489,1.3874,1.346,1.3267,1.3193,1.308,1.3146,1.3174,1.2726,1.1486,1.0236,1.091,0.9284,0.0,0.0,0.0,0.0,0.0,0.0,0.0,0.0,0.0,0.0,0.0,0.0,0.0,0.0,0.0,0.0,0.0,0.0,0.0,0.6162,0.6434,0.6725,0.718,0.7421,0.7519,0.7434,0.7451,0.7411,0.7258,0.7129,0.7054,0.7054,0.6949,0.699,0.7227,0.7268,0.0,0.7419,0.7539,0.7624,0.7674,0.777,0.777,0.7773,0.0,0.0,0.7773,0.7899,0.797,0.7994,0.7915,0.7855,0.7748,0.7879,0.7614,0.6718,0.2838,0.1417,0.1232,0.0378,0.0,0.0,0.0,0.0,0.0,0.0,0.0,0.0,0.0,0.6312,0.6308,0.7074,0.7816,0.856,0.9292,0.9724,0.997,0.997,0.872,0.8346,0.917,0.8832,0.9306,1.0876,1.2544,1.2864,1.1643,1.2457,1.2079,1.0366,1.0997,1.1051,1.0599,1.1927,1.2709,1.283,1.4208,1.4854,1.4841,1.5383,1.5611,1.5605,1.5451,1.5224,1.491,1.4469,1.4215,1.4088,1.4088,1.4088,1.4041,1.3748,1.2462,1.1,1.1304,0.9794,0.7735,0.0,0.0,0.0,0.0,0.0,0.0,0.0,0.0,0.0,0.0,0.0,0.0,0.0,0.0,0.5262,0.5542,0.0,0.6152,0.6525,0.6841,0.7166,0.7539,0.7719,0.7756,0.7617,0.7662,0.7648,0.7499,0.7417,0.737,0.737,0.7305,0.7329,0.7478,0.7485,0.756,0.762,0.7712,0.7784,0.794,0.7929,0.7926,0.7926,0.8004,0.7997,0.7929,0.8004,0.8038,0.8041,0.7962,0.7217,0.5953,0.7096,0.5968,0.3344,0.0884,0.0,0.0,0.0,0.0,0.0,0.0,0.0,0.0,0.0,0.0,0.0,0.0,0.6912,0.7074,0.783,0.7841,0.8218,0.9227,0.9048,0.8699,0.8317,0.6818,0.6971,0.9485,0.955,1.0564,1.2973,1.4035,1.4542,1.4324,1.3689,1.3176,1.2992,1.2058,1.1776,1.2147,1.3197,1.3974,1.4268,1.5337,1.5832,1.5832,1.5832,1.5832,1.5832,1.5832,1.5832,1.5778,1.5311,1.5137,1.5124,1.507,1.4654,1.415,1.4148,1.2708,1.1007,1.1055,0.9921,0.8447,0.7496,0.7635,0.0,0.0,0.0,0.0,0.0,0.0,0.0,0.0,0.0,0.5254,0.5379,0.5549,0.5728,0.5901,0.6376,0.6773,0.6861,0.72,0.755,0.7818,0.7855,0.7814,0.7699,0.7787,0.7811,0.7695,0.7658,0.7641,0.7641,0.7614,0.7611,0.7638,0.7641,0.7716,0.7778,0.7768,0.7923,0.7965,0.8048,0.8038,0.8038,0.8038,0.8038,0.8038,0.8038,0.8041,0.8048,0.7972,0.6145,0.3317,0.5061,0.3441,0.0,0.0,0.0,0.0,0.0,0.0,0.0,0.0,0.0,0.0,0.0,0.0,0.0,0.0,0.0,0.783,0.8593,0.8867,0.8737,0.7997,0.8152,0.8011,0.7353,0.6578,0.7312,1.0152,0.9811,1.0808,1.3791,1.4563,1.4475,1.3582,1.3755,1.3216,1.2068,1.1966,1.2459,1.364,1.3831,1.453,1.5629,1.573,1.5832,1.5832,1.5832,1.5832,1.5832,1.5832,1.5832,1.5818,1.5758,1.5732,1.5698,1.5438,1.4298,1.2933,1.384,1.1623,0.8932,1.0589,0.9597,0.7741,0.7621,0.0,0.7677,0.6043,0.5518,0.0,0.4989,0.5128,0.5264,0.0,0.0,0.5545,0.5559,0.5786,0.6064,0.6346,0.6675,0.7034,0.7434,0.7648,0.7821,0.7991,0.8014,0.8007,0.7991,0.8004,0.8007,0.7991,0.7868,0.7787,0.7787,0.7672,0.7655,0.778,0.7787,0.7858,0.7912,0.8014,0.8024,0.8041,0.8041,0.8038,0.8038,0.8038,0.8038,0.8038,0.8038,0.8048,0.7972,0.8006,0.5155,0.0505,0.0707,0.0505,0.0,0.0,0.0,0.0,0.0,0.0,0.0,0.0,0.0,0.0,0.0,0.0,0.0,0.0,0.0,0.0,0.8752,0.853,0.8172,0.7735,0.7046,0.6493,0.6216,0.5705,0.6722,0.9814,1.0099,1.1589,1.4694,1.5244,1.5238,1.4772,1.5147,1.4921,1.4178,1.4334,1.4308,1.4004,1.4898,1.5093,1.4807,1.5862,1.6246,1.6086,1.6086,1.6086,1.6072,1.5899,1.5343,1.474,1.535,1.489,1.3956,1.4189,1.3628,0.0,1.2355,1.0658,0.8844,0.9514,0.8517,0.7038,0.6872,0.7171,0.0,0.6316,0.0,0.0,0.0,0.5532,0.5742,0.5708,0.5847,0.603,0.6203,0.6407,0.6644,0.6943,0.7241,0.7506,0.0,0.7848,0.7967,0.8031,0.8038,0.7977,0.7804,0.7872,0.796,0.8031,0.7994,0.7957,0.7943,0.7889,0.7882,0.794,0.7943,0.7974,0.8038,0.8038,0.8038,0.8038,0.8038,0.8038,0.8038,0.8038,0.8038,0.8038,0.7952,0.7975,0.8006,0.8019,0.4956,0.0,0.0,0.0,0.0,0.0,0.0,0.0,0.0,0.0,0.0,0.0,0.0,0.0,0.0,0.0,0.0,0.0,0.0,0.0,0.0,0.8321,0.7937,0.7723,0.6578,0.5706,0.5542,0.5274,0.6282,0.8841,0.9996,1.1767,1.4631,1.5398,1.5865,1.5952,1.6166,1.6011,1.548,1.5686,1.5078,1.3668,1.4676,1.4676,1.3679,1.4974,1.567,1.5783,1.5381,1.5436,1.5647,1.5049,1.4388,1.3832,1.4444,1.3779,1.2539,1.2991,1.2617,1.1781,1.0806,0.9456,0.8247,0.8431,0.7648,0.6685,0.6479,0.6581,0.6666,0.639,0.0,0.0,0.5755,0.5966,0.6193,0.6346,0.6444,0.6576,0.6834,0.7037,0.7238,0.7461,0.7709,0.7882,0.7882,0.7977,0.8045,0.8041,0.8007,0.7909,0.7695,0.7907,0.7804,0.7362,0.7697,0.8021,0.8038,0.8038,0.8038,0.8038,0.8038,0.8038,0.8038,0.8038,0.8038,0.8038,0.8082,0.8082,0.8038,0.8085,0.8085,0.8048,0.7975,0.8002,0.7922,0.6483,0.3636,0.0,0.0,0.0,0.0,0.0,0.0,0.0,0.0,0.0,0.0,0.0,0.0,0.0,0.0,0.0,0.0,0.0,0.0,0.0,0.0,0.0,0.0,0.0,0.702,0.6258,0.5542,0.5667,0.6216,0.731,0.9288,1.1173,1.2973,1.4804,1.5965,1.6253,1.6266,1.5703,1.4636,1.4642,1.3925,1.2495,1.2495,1.249,1.2495,1.25,1.3314,1.4433,1.3104,1.3276,1.4254,1.2856,1.278,1.3351,1.2849,1.2514,1.2306,1.2318,1.1028,0.9269,0.9479,0.7925,0.6159,0.7709,0.7578,0.6827,0.6816,0.631,0.587,0.5987,0.0,0.603,0.6246,0.6349,0.6498,0.6654,0.6909,0.716,0.7319,0.7584,0.7794,0.7724,0.7858,0.7965,0.7965,0.7969,0.7965,0.8041,0.8031,0.7949,0.7942,0.8008,0.7376,0.0,0.7055,0.8007,0.8031,0.8038,0.8038,0.8038,0.8038,0.8038,0.8038,0.8038,0.8038,0.8038,0.8187,0.8187,0.8041,0.8204,0.8208,0.7972,0.8009,0.8022,0.7717,0.2524,0.0101,0.0,0.0,0.0,0.0,0.0,0.0,0.0,0.0,0.0,0.0,0.0,0.0,0.0,0.0,0.0,0.0,0.0,0.0,0.0,0.0,0.0,0.0,0.0,0.0,0.0,0.0,0.5663,0.6211,0.724,0.8321,0.966,1.1349,1.2485,1.3108,1.3122,1.4292,1.4716,1.4137,1.4307,1.3685,1.2279,1.3184,1.3265,1.2607,1.4624,1.5324,1.4803,1.428,1.3724,1.3164,1.3161,1.2357,1.1145,1.2012,1.1139,0.9303,0.0,0.8739,0.8101,0.7195,0.6444,0.5892,0.6364,0.637,0.6027,0.4735,0.4347,0.4431,0.4905,0.0,0.6555,0.677,0.6959,0.7132,0.738,0.7516,0.7628,0.7784,0.774,0.7672,0.7678,0.7723,0.776,0.776,0.8011,0.8167,0.8055,0.8092,0.8079,0.7674,0.6862,0.0,0.0,0.0,0.0,0.8045,0.7962,0.7962,0.7962,0.8147,0.8194,0.8194,0.8194,0.8238,0.8333,0.82,0.8156,0.8204,0.6308,0.6385,0.8009,0.8019,0.6075,0.2625,0.0808,0.0,0.0,0.0,0.0,0.0,0.0,0.0,0.0,0.0,0.1982,0.427,0.0,0.0,0.0,0.0,0.0,0.0,0.0,0.0,0.0,0.0,0.0,0.0,0.0,0.0,0.0,0.0,0.0,0.629,0.6813,0.7513,0.842,0.954,1.0569,1.1184,1.1202,1.2355,1.2745,1.2292,1.2455,1.1889,1.0659,1.1536,1.1691,1.1169,1.3146,1.3778,1.3439,1.2837,1.2171,1.1604,1.1446,1.0575,0.9318,1.0162,0.934,0.0,0.7336,0.7093,0.682,0.5912,0.565,0.5718,0.5677,0.5483,0.4793,0.2624,0.2847,0.4031,0.5277,0.628,0.7125,0.7295,0.7455,0.7594,0.7838,0.7892,0.7889,0.7882,0.7689,0.7502,0.7362,0.7269,0.7252,0.7409,0.7674,0.7878,0.8031,0.8085,0.8096,0.7662,0.6786,0.0,0.0,0.0,0.0,0.8041,0.7453,0.7375,0.8039,0.8225,0.8292,0.8343,0.8353,0.8297,0.8387,0.8266,0.8337,0.8501,0.6371,0.528,0.5159,0.7098,0.6078,0.2827,0.1814,0.1405,0.1297,0.1297,0.1292,0.1284,0.1284,0.1284,0.1282,0.1266,0.3202,0.5548,0.0,0.0,0.0,0.0,0.0,0.0,0.0,0.0,0.0,0.0,0.0,0.0,0.0,0.0,0.0,0.0,0.0,0.0,0.6002,0.6755,0.7332,0.7631,0.916,1.0122,1.0335,1.044,1.0059,0.9243,0.926,0.8751,0.7839,0.7839,0.8004,0.8302,0.8393,0.9286,1.0566,0.8969,0.8826,0.9565,0.8026,0.7759,0.809,0.7547,0.7368,0.7385,0.6793,0.6075,0.5452,0.5532,0.5583,0.5613,0.5749,0.4989,0.3517,0.1084,0.2155,0.466,0.701,0.7643,0.7771,0.7839,0.7838,0.7872,0.8018,0.8035,0.7936,0.7648,0.7448,0.7282,0.0,0.0,0.6701,0.7031,0.7139,0.7396,0.7895,0.8052,0.8028,0.0,0.0,0.0,0.0,0.0,0.0,0.8045,0.0,0.6388,0.8173,0.8292,0.8357,0.8492,0.8407,0.8312,0.8203,0.8347,0.8474,0.8793,0.8099,0.5144,0.0404,0.5461,0.7815,0.7805,0.5329,0.407,0.3808,0.3811,0.3769,0.3796,0.3801,0.3801,0.3796,0.3798,0.3798,0.4084,0.0,0.0,0.0,0.0,0.0,0.0,0.0,0.0,0.0,0.0,0.0,0.0,0.0,0.0,0.0,0.0,0.0,0.0,0.5682,0.6163,0.6244,0.5646,0.6588,0.708,0.6992,0.8218,0.8672,0.8514,0.8519,0.8434,0.8221,0.8221,0.8504,0.8941,0.9753,0.9967,0.9653,0.911,0.8428,0.769,0.8025,0.7687,0.6979,0.7738,0.7368,0.6347,0.588,0.5572,0.5379,0.0,0.0,0.0,0.0,0.5636,0.5436,0.5047,0.5704,0.6743,0.7786,0.8019,0.7997,0.8228,0.8231,0.8163,0.8204,0.7953,0.7658,0.7468,0.7041,0.6743,0.0,0.0,0.0,0.6673,0.7335,0.0,0.8197,0.8275,0.0,0.0,0.0,0.8137,0.7994,0.8174,0.0,0.0,0.7862,0.7679,0.8065,0.8362,0.8538,0.8481,0.871,0.7933,0.6378,0.635,0.7027,0.82,0.6052,0.4345,0.3015,0.4425,0.6006,0.7641,0.6932,0.6654,0.6545,0.6543,0.6407,0.6205,0.62,0.6181,0.6197,0.6487,0.6478,0.6546,0.0,0.0,0.0,0.0,0.0,0.0,0.0,0.0,0.0,0.0,0.0,0.0,0.0,0.0,0.0,0.0,0.0,0.0,0.0,0.612,0.5675,0.518,0.5304,0.5301,0.5216,0.6098,0.6603,0.6765,0.6765,0.6869,0.7198,0.7198,0.7383,0.7801,0.84,0.8436,0.7978,0.7885,0.7316,0.0,0.0,0.6734,0.5943,0.6752,0.6175,0.4891,0.4678,0.4964,0.0,0.0,0.0,0.5796,0.5943,0.6098,0.6393,0.6778,0.0,0.7615,0.8286,0.8375,0.8272,0.8442,0.8377,0.8218,0.8021,0.7729,0.738,0.697,0.6647,0.0,0.0,0.0,0.0,0.0,0.0,0.0,0.8235,0.8391,0.8445,0.0,0.835,0.0,0.8336,0.8289,0.8418,0.0,0.8567,0.8458,0.8301,0.858,0.8307,0.7476,0.7486,0.7288,0.6685,0.5593,0.5942,0.8024,0.6465,0.5783,0.5737,0.5734,0.6512,0.7763,0.0,0.7764,0.7726,0.7714,0.7525,0.725,0.7237,0.7179,0.7152,0.7409,0.7382,0.7312,0.0,0.0,0.0,0.0,0.0,0.0,0.0,0.0,0.0,0.0,0.0,0.0,0.0,0.0,0.0,0.0,0.0,0.0,0.0,0.0,0.5597,0.5487,0.4838,0.4519,0.4519,0.4519,0.4592,0.4857,0.4857,0.5067,0.5471,0.5471,0.5616,0.5881,0.5861,0.5949,0.6108,0.6067,0.5861,0.5569,0.5674,0.5498,0.5132,0.0,0.4764,0.3813,0.3813,0.0,0.0,0.0,0.5969,0.6095,0.6288,0.6552,0.6875,0.7141,0.747,0.779,0.8459,0.858,0.857,0.857,0.8448,0.8204,0.7736,0.7465,0.7105,0.6462,0.0,0.6173,0.594,0.0,0.4515,0.5033,0.0,0.7715,0.8221,0.8515,0.8543,0.8693,0.8594,0.8564,0.8699,0.8527,0.8491,0.8618,0.8756,0.8855,0.8742,0.8615,0.7856,0.6358,0.6158,0.6664,0.7979,0.5702,0.5652,0.7975,0.7971,0.8004,0.7982,0.7972,0.7959,0.7939,0.0,0.0,0.7784,0.7804,0.7648,0.7404,0.7421,0.7423,0.7481,0.7643,0.7702,0.7778,0.0,0.0,0.0,0.0,0.0,0.0,0.0,0.0,0.0,0.0,0.8804,0.8804,0.0,0.0,0.0,0.0,0.0,0.0,0.0,0.0,0.0,0.5542,0.4838,0.4519,0.4519,0.4519,0.4543,0.4541,0.0,0.4646,0.4847,0.4847,0.4942,0.5104,0.4979,0.5074,0.5311,0.5067,0.5138,0.5406,0.5304,0.5298,0.5355,0.5393,0.0,0.0,0.0,0.0,0.0,0.0,0.5974,0.6291,0.6688,0.7017,0.7319,0.7645,0.7936,0.8252,0.8703,0.893,0.9035,0.9035,0.8832,0.8482,0.7906,0.7377,0.0,0.0,0.6023,0.5717,0.5508,0.5353,0.0,0.6516,0.0,0.0,0.0,0.0,0.8779,0.0,0.0,0.0,0.0,0.0,0.0,0.0,0.0,0.0,0.9238,0.7499,0.7006,0.8063,0.7784,0.7736,0.8043,0.7579,0.7507,0.8016,0.7995,0.7972,0.8048,0.8045,0.7977,0.7855,0.0,0.0,0.7645,0.7763,0.7712,0.757,0.7689,0.8291,0.9079,0.9267,1.0068,1.088,0.0,0.0,0.0,0.0,0.0,0.0,0.0,0.7807,0.7698,0.8862,0.8767,0.8521,0.824,0.8209,0.8049,0.0,0.0,0.0,0.0,0.0,0.0,0.0,0.0,0.0,0.0,0.0,0.0,0.0,0.0,0.0,0.0,0.0,0.0,0.0,0.0,0.4769,0.4904,0.4921,0.4969,0.5043,0.4153,0.4305,0.0,0.0,0.0,0.0,0.0,0.0,0.0,0.0,0.5296,0.4765,0.6544,0.7428,0.778,0.7985,0.8227,0.8584,0.9078,0.9284,0.9252,0.9171,0.8815,0.8303,0.7617,0.0,0.0,0.0,0.5669,0.5488,0.5426,0.0,0.0,0.0,0.0,0.0,0.0,0.0,0.0,0.0,0.0,0.0,0.0,0.0,0.0,0.0,0.0,0.0,0.8991,0.8763,0.9133,1.0373,1.0284,1.0146,1.0058,0.9363,0.9027,0.9038,0.834,0.8333,0.9019,0.9019,0.9363,0.9955,0.9955,0.0,0.9836,0.9921,0.9848,0.978,0.9776,1.0157,1.056,1.0773,1.1159,1.1636,0.0,0.0,0.0,0.0,0.0,0.0,0.0,0.7192,0.7208,0.8808,0.8598,0.8183,0.7852,0.7805,0.7458,0.0,0.0,0.0,0.0,0.0,0.0,0.0,0.0,0.0,0.0,0.0,0.0,0.0,0.0,0.0,0.0,0.0,0.0,0.0,0.0,0.0,0.0,0.4887,0.4751,0.0,0.0,0.0,0.0,0.0,0.0,0.0,0.0,0.0,0.0,0.0,0.4568,0.3236,0.648,0.775,0.8014,0.819,0.8233,0.8272,0.9267,0.9473,0.9432,0.9249,0.8757,0.8113,0.742,0.6867,0.0,0.0,0.5399,0.5138,0.4389,0.0,0.0,0.0,0.0,0.0,0.0,0.0,0.0,0.0,0.0,0.0,0.0,0.0,0.0,0.0,0.0,0.0,0.9497,1.0531,1.1534,1.2179,1.2124,1.2018,1.1853,1.0877,1.0386,1.0391,0.9312,0.941,1.0386,1.0386,1.0974,1.1945,1.1945,0.0,0.0,1.1945,1.1844,1.1777,1.1777,1.1853,1.1992,1.2083,1.2318,1.2461,0.0,0.0,0.0,0.0,0.0,0.0,0.0,0.6397,0.652,0.8236,0.8143,0.7998,0.8137,0.8131,0.7755,0.0,0.0,0.0,0.0,0.0,0.0,0.0,0.0,0.0,0.0,0.0,0.0,0.0,0.0,0.0,0.0,0.0,0.0,0.0,0.0,0.0,0.0,0.0,0.0,0.0,0.0,0.0,0.0,0.0,0.0,0.0,0.0,0.0,0.0,0.0,0.0,0.3288,0.6844,0.7933,0.8016,0.7979,0.0,0.0,0.8954,0.9585,0.9713,0.9432,0.8906,0.834,0.7749,0.0,0.0,0.56,0.541,0.4389,0.1078,0.0207,0.0,0.0,0.0,0.1186,0.0,0.0,0.0,0.0,0.0,0.0,0.0,0.0,0.0,0.0,0.0,0.0,0.0,1.205,1.2113,1.2169,1.1978,1.1965,1.1945,1.175,1.1755,1.1755,1.1556,1.1658,1.1755,1.1755,1.175,1.1945,0.0,0.0,0.0,1.1945,1.1935,1.1915,1.1915,1.2576,1.3712,1.3736,1.441,1.5367,0.0,0.0,0.0,0.0,0.0,0.0,0.756,0.623,0.6125,0.8808,0.8213,0.769,0.8128,0.783,0.7104,0.6055,0.0,0.0,0.0,0.0,0.0,0.0,0.0,0.0,0.0,0.0,0.0,0.0,0.0,0.0,0.0,0.0,0.0,0.0,0.0,0.0,0.0,0.0,0.0,0.0,0.0,0.0,0.0,0.0,0.0,0.0,0.0,0.0,0.0,0.0,0.0,0.0,0.2709,0.4265,0.0,0.0,0.7,0.6577,0.9047,0.9797,0.9751,0.9456,0.8726,0.8021,0.7782,0.0,0.469,0.5271,0.3659,0.1715,0.0269,0.0,0.068,0.0,0.0,0.0,0.0,0.0,0.0,0.0,0.0,0.0,0.0,0.0,0.0,0.0,0.0,0.0,0.0,1.3693,1.3539,1.4328,1.4328,1.4274,1.4274,1.3494,1.3102,1.3102,1.2334,1.2334,1.3102,1.3102,1.3494,1.4274,0.0,0.0,0.0,1.4274,1.4274,1.4274,1.4274,1.4561,1.5045,1.5045,1.5805,1.6943,0.0,0.0,0.0,0.0,0.0,0.7155,0.7728,0.6402,0.6298,0.8989,0.8236,0.7712,0.8415,0.7762,0.6865,0.5882,0.5007,0.0,0.0,0.0,0.0,0.0,0.0,0.0,0.0,0.0,0.0,0.0,0.0,0.0,0.0,0.0,0.0,0.0,0.0,0.0,0.0,0.0,0.0,0.0,0.0,0.0,0.0,0.0,0.0,0.0,0.0,0.0,0.0,0.0,0.0,0.0,0.0,0.0,0.0,0.0,0.4959,0.5045,0.8821,0.9774,0.9707,0.9568,0.8941,0.8241,0.0,0.0,0.3986,0.3818,0.1755,0.0,0.0,0.0,0.1177,0.4784,0.0,0.5671,0.0,0.0,0.0,0.0,0.0,0.0,0.0,0.0,0.0,0.0,0.0,0.0,0.0,1.4752,1.4848,1.5737,1.5832,1.5832,1.5832,1.4949,1.4459,1.4459,1.3494,1.3596,1.4459,1.4459,1.4949,1.5832,0.0,0.0,0.0,1.5832,1.5832,1.5832,1.5832,1.5832,1.5832,1.5832,1.6574,1.7692,0.0,0.0,0.0,0.0,0.0,0.0,0.6987,0.6904,0.7271,0.8264,0.8137,0.8211,0.9072,0.8317,0.7402,0.6642,0.5281,0.0,0.0,0.0,0.0,0.0,0.0,0.0,0.0,0.0,0.4525,0.448,0.448,0.4505,0.0,0.0,0.0,0.0,0.0,0.0,0.0,0.0,0.0,0.0,0.0,0.0,0.0,0.0,0.0,0.0,0.0,0.0,0.0,0.0,0.0,0.0,0.0,0.0,0.0064,0.0073,0.0086,0.148,0.8071,0.9802,0.9777,0.9842,0.9598,0.9283,0.0,0.0,0.5103,0.0909,0.0,0.0,0.0,0.0,0.1162,0.481,0.5383,0.0,0.0,0.0,0.0,0.0,0.0,0.0,0.0,0.0,0.0,0.0,0.0,0.0,0.0,1.514,1.5825,1.5832,1.5832,1.5832,1.5832,1.5825,1.5737,1.5737,1.5737,1.5737,1.5737,1.5737,1.5825,0.0,0.0,0.0,0.0,1.5832,1.5832,1.5832,1.5832,1.5832,1.5832,1.5832,1.6574,1.7692,0.0,0.0,0.0,0.0,0.0,0.0,0.0,0.6898,0.6643,0.8702,0.7827,0.7576,0.9046,0.7876,0.6858,0.6642,0.571,0.0,0.0,0.0,0.0,0.0,0.0,0.0,0.0,0.0,0.4472,0.4528,0.347,0.3493,0.4494,0.3975,0.0,0.0,0.0,0.0,0.0,0.0,0.0,0.0,0.0,0.0,0.0,0.0,0.0,0.0,0.0,0.0,0.0,0.0,0.0,0.0,0.0,0.0,0.0,0.0,0.0,0.0418,0.2572,0.478,0.6404,0.6478,0.6364,0.6757,0.8535,0.0,0.4583,0.0816,0.0,0.0,0.0,0.0,0.0369,0.1536,0.3801,0.0,0.0,0.0,0.0,0.0,0.0,0.0,0.0,0.0,0.0,0.0,0.0,0.0,0.0,1.554,1.5832,1.5832,1.6662,1.7131,1.7131,1.794,1.8303,1.8303,1.8303,1.794,1.7131,1.7948,0.0,0.0,0.0,0.0,0.0,1.6204,1.5832,1.592,1.6763,1.7131,1.7217,1.8033,1.9123,2.0124,0.0,0.0,0.0,0.0,0.0,0.0,0.0,0.7547,0.7279,0.8828,0.7877,0.7404,0.8501,0.7432,0.6475,0.6199,0.576,0.0,0.0,0.0,0.0,0.0,0.0,0.0,0.448,0.448,0.4502,0.449,0.3533,0.2962,0.2823,0.2823,0.1828,0.0,0.0,0.0,0.0,0.0,0.0,0.0,0.0,0.0,0.0,0.0,0.0,0.0,0.0,0.0,0.0,0.0,0.0,0.0,0.0,0.0,0.0,0.0,0.0,0.0,0.0,0.1491,0.3092,0.3054,0.302,0.3479,0.0,0.0,0.3038,0.1941,0.1715,0.1338,0.0237,0.0473,0.1071,0.1734,0.3751,0.0,0.0,0.0,0.0,0.0,0.0,0.0,0.0,0.0,0.0,0.0,0.0,0.0,0.0,0.0,1.648,1.648,1.7318,1.7963,1.8411,1.9131,1.9497,1.9497,1.9497,1.9139,1.8411,1.9131,0.0,0.0,0.0,0.0,0.0,1.7483,1.713,1.7035,1.7987,1.8241,1.8232,1.9174,2.0305,2.1293,0.0,0.0,0.0,0.0,0.0,0.0,0.0,0.8552,0.8725,0.8778,0.8143,0.7723,0.7723,0.702,0.6312,0.5542,0.0,0.0,0.0,0.0,0.0,0.0,0.0,0.0,0.448,0.448,0.4392,0.42,0.4151,0.2763,0.0,0.0,0.0,0.0,0.0,0.0,0.0,0.0,0.0,0.0,0.0,0.0,0.0,0.0,0.0,0.0,0.0,0.0,0.0,0.0,0.0,0.0,0.0,0.0,0.0,0.0,0.0,0.0,0.0,0.0,0.0,0.0,0.0,0.0,0.0,0.0,0.0,0.3592,0.4378,0.3658,0.0897,0.1662,0.317,0.4644,0.0,0.0,0.0,0.0,0.0,0.0,0.0,0.0,0.0,0.0,0.0,0.0,0.0,0.0,0.0,0.0,1.787,1.7956,1.7963,1.8503,1.9588,1.9679,1.977,1.977,1.977,1.9679,1.967,1.9679,0.0,0.0,0.0,0.0,0.0,1.9405,1.9208,1.8929,1.9447,1.9372,1.9026,1.9545,2.0486,2.156,0.0,0.0,0.0,0.0,0.0,0.0,0.0,0.0,0.0,0.0,0.8026,0.7723,0.7723,0.702,0.6312,0.0,0.0,0.0,0.0,0.0,0.0,0.0,0.0,0.0,0.4494,0.4501,0.3367,0.106,0.1086,0.0674,0.0,0.0,0.0,0.0,0.0,0.0,0.0,0.0,0.0,0.0,0.0,0.0,0.0,0.0,0.0,0.0,0.0,0.0,0.0,0.0,0.0,0.0,0.0,0.0,0.0,0.0,0.0,0.0,0.0,0.0,0.0,0.0,0.0,0.0,0.0,0.0,0.0,0.0,0.0,0.4442,0.4195,0.584,0.6745,0.0,0.0,0.0,0.0,0.0,0.0,0.0,0.0,0.0,0.0,0.0,0.0,0.0,0.0,0.0,0.0,0.0,1.9497,2.0395,2.0486,2.0584,2.0872,2.1774,2.2227,2.2227,2.2227,2.1765,2.0935,2.1854,0.0,0.0,0.0,0.0,2.0747,1.8864,1.8632,1.9463,2.0442,2.0792,2.0811,2.1915,2.2989,2.3998,0.0,0.0,0.0,0.0,0.0,0.0,0.0,0.0,0.0,0.0,0.0,0.7436,0.7224,0.6529,0.0,0.0,0.0,0.0,0.0,0.0,0.0,0.0,0.0,0.4141,0.3471,0.4163,0.3718,0.2062,0.2038,0.1348,0.0,0.0,0.0,0.0,0.0,0.0,0.0,0.0,0.0,0.0,0.0,0.0,0.0,0.0,0.0,0.0,0.0,0.0,0.0,0.0,0.0,0.0,0.0,0.0,0.0,0.0,0.0,0.0,0.0,0.0,0.0,0.0,0.0,0.0,0.0,0.0,0.0,0.0,0.0,0.2938,0.4676,0.6066,0.0,0.0,0.0,0.0,0.0,0.0,0.0,0.0,0.0,0.0,0.0,0.0,0.0,0.0,0.0,0.0,0.0,0.0,2.0393,2.1284,2.2337,2.2629,2.2148,2.2775,2.3135,2.3135,2.3135,2.2765,2.212,2.2573,0.0,0.0,0.0,0.0,2.177,2.0613,2.0488,2.0979,2.178,2.2007,2.2042,2.3374,2.4296,2.4872,0.0,0.0,0.0,0.0,0.0,0.0,0.0,0.0,0.0,0.0,0.0,0.0,0.0,0.0,0.0,0.0,0.0,0.0,0.0,0.0,0.0,0.0,0.4473,0.386,0.2569,0.3822,0.4519,0.4526,0.4513,0.3234,0.0766,0.025,0.0,0.0,0.0,0.0,0.0,0.0,0.0,0.0,0.0,0.0,0.0,0.0,0.0,0.0,0.0,0.0,0.0,0.0,0.0,0.0,0.0,0.0,0.0,0.0,0.0,0.0,0.0,0.0,0.0226,0.1121,0.1344,0.1175,0.0503,0.0,0.0,0.0,0.0,0.0,0.0,0.0,0.0,0.0,0.0,0.0,0.0,0.0,0.0,0.0,0.0,0.0,0.0,0.0,0.0,0.0,0.0,0.0,0.0,0.0,0.0,2.1551,2.3654,2.4265,2.3211,2.3357,2.3357,2.3288,2.3124,2.3008,2.2939,2.2578,2.2412,0.0,0.0,0.0,2.2539,2.2708,2.2688,2.2646,2.3162,2.3159,2.3053,2.4482,2.5199,2.5452,0.0,0.0,0.0,0.0,0.0,0.0,0.0,0.0,0.0,0.0,0.0,0.0,0.0,0.0,0.0,0.0,0.0,0.0,0.0,0.0,0.0,0.4519,0.4484,0.4386,0.4166,0.4396,0.4524,0.4492,0.474,0.4629,0.4109,0.1329,0.0,0.0,0.0,0.0,0.0,0.0,0.0,0.0,0.0,0.0,0.0,0.0,0.0,0.0,0.0,0.0,0.0,0.0,0.0,0.0,0.0,0.0,0.0,0.0,0.0,0.0,0.0,0.0,0.1218,0.6207,0.745,0.6498,0.2713,0.0,0.0,0.0,0.0,0.0,0.0,0.0,0.0,0.0,0.0,0.0,0.0,0.0,0.0,0.0,0.0,0.0,0.0,0.0,0.0,0.0,0.0,0.0,0.0,0.0,0.0,2.2843,2.4114,2.4535,2.3846,2.4281,2.4355,2.4065,2.3003,2.2422,2.207,2.2012,2.1982,0.0,0.0,2.1193,2.2425,2.15,2.187,2.3124,2.4104,2.4501,2.4618,2.5775,2.6789,2.7763,0.0,0.0,0.0,0.0,0.0,0.0,0.0,0.0,0.0,0.0,0.0,0.0,0.0,0.0,0.0,0.0,0.0,0.0,0.0,0.0,0.4522,0.4525,0.4978,0.4757,0.3697,0.3418,0.3736,0.4676,0.4814,0.4863,0.4819,0.2331,0.0777,0.0,0.0,0.0,0.0,0.0,0.0,0.0,0.0,0.0,0.0,0.0,0.0,0.0,0.0,0.0,0.0,0.0,0.0,0.0,0.0,0.0,0.0,0.0,0.0,0.0,0.0,0.1191,0.2856,0.4768,0.7502,0.9183,0.0,0.0,0.0,0.0,0.0,0.0,0.0,0.0,0.0,0.0,0.0,0.0,0.0,0.0,0.0,0.0,0.0,0.0,0.0,0.0,0.0,0.0,0.0,0.0,0.0,0.0,0.0,0.0,2.5103,2.5576,2.5363,2.5564,2.5314,2.4534,2.3412,2.2838,2.2635,2.2392,2.2291,2.2371,0.0,2.2742,2.3311,2.2469,2.2522,2.3264,2.4159,2.4514,2.4702,2.6687,2.8028,2.9106,0.0,0.0,0.0,0.0,0.0,0.0,0.0,0.0,0.0,0.0,0.0,0.0,0.0,0.0,0.0,0.0,0.0,0.0,0.0,0.4625,0.4736,0.4746,0.5727,0.555,0.3901,0.3561,0.3949,0.5059,0.5035,0.4938,0.4756,0.3443,0.219,0.1006,0.0335,0.0,0.0,0.0,0.0,0.0,0.0,0.0,0.0,0.0,0.0,0.0,0.0,0.0,0.0,0.0,0.0,0.0,0.0,0.0,0.0,0.0,0.0,0.0,0.0,0.2709,0.5061,0.3219,0.6164,0.0,0.0,0.0,0.0,0.0,0.0,0.0,0.0,0.0,0.0,0.0,0.0,0.0,0.0,0.0,0.0,0.0,0.0,0.0,0.0,0.0,0.0,0.0,0.0,0.0,0.0,0.0,0.0,0.0,2.5942,2.6439,2.632,2.6426,2.6028,2.5034,2.3827,2.3156,2.2987,2.2537,2.2314,2.2273,2.3024,2.3547,2.3831,2.3334,2.3387,2.3764,2.4568,2.5153,2.5783,2.7794,2.9028,2.9792,0.0,0.0,0.0,0.0,0.0,0.0,0.0,0.0,0.0,0.0,0.0,0.0,0.0,0.0,0.0,0.0,0.0,0.0,0.0,0.5058,0.5433,0.5433,0.6763,0.7122,0.6344,0.6807,0.6633,0.5821,0.5753,0.5389,0.4783,0.4653,0.4461,0.4054,0.1229,0.0,0.0,0.0,0.0,0.0,0.0,0.0,0.0,0.0,0.0,0.0,0.0,0.0,0.0,0.0,0.0,0.0,0.0,0.0,0.0,0.0,0.0,0.0,0.0,0.4137,0.7794,0.5056,0.5309,0.0,0.7448,0.8194,0.0,0.9562,0.0,0.0,0.0,0.0,0.0,0.0,0.0,0.0,0.0,0.0,0.0,0.0,0.0,0.0,0.0,0.0,0.0,0.0,0.0,0.0,0.0,0.0,0.0,0.0,0.0,2.6261,2.5678,2.623,2.623,2.5716,2.4039,2.2874,2.2122,2.1586,2.1104,2.0761,2.0839,2.1592,2.2808,2.2762,2.3495,2.4871,2.6477,2.8035,2.9406,2.9611,2.9714,2.9792,0.0,0.0,0.0,0.0,0.0,0.0,0.0,0.0,0.0,0.0,0.0,0.0,0.0,0.0,0.0,0.0,0.0,0.0,0.0,0.5263,0.5649,0.5948,0.7025,0.7557,0.7279,0.7025,0.6539,0.5849,0.5346,0.498,0.4755,0.4656,0.4591,0.4435,0.2679,0.1171,0.0,0.0,0.0,0.0,0.0,0.0,0.0,0.0,0.0,0.0,0.0,0.0,0.0,0.0,0.1576,0.0,0.0,0.0,0.0,0.0,0.0,0.0,0.0,0.2313,0.5085,0.6753,0.6768,0.0,0.0,0.9357,1.0437,1.109,1.1637,0.0,0.0,0.0,0.0,0.0,0.0,0.0,0.0,0.0,0.0,0.0,0.0,0.0,0.0,0.0,0.0,0.0,0.0,0.0,0.0,0.0,0.0,0.0,0.0,2.5791,2.5583,2.5498,2.511,2.4372,2.3107,2.2029,2.1271,2.1303,2.1229,2.1128,2.1997,2.3034,2.4028,2.2746,2.3307,2.5059,2.634,2.787,2.9302,2.9666,2.9792,2.9792,0.0,0.0,0.0,0.0,0.0,0.0,0.0,0.0,0.0,0.0,0.0,0.0,0.0,0.0,0.0,0.0,0.0,0.0,0.4991,0.5405,0.5911,0.6509,0.7644,0.8057,0.7723,0.7197,0.6623,0.6079,0.5125,0.4619,0.4616,0.4567,0.4525,0.448,0.407,0.3005,0.134,0.039,0.0,0.0,0.0,0.0,0.0,0.0,0.0,0.0,0.0,0.0,0.0,0.0,0.2207,0.1124,0.1124,0.1156,0.1043,0.0694,0.0798,0.1004,0.0654,0.2315,0.4807,0.7862,0.0,0.0,0.9834,1.1409,1.28,1.3879,0.0,0.0,0.0,0.0,0.0,0.0,0.0,0.0,0.0,0.0,0.0,0.0,0.0,0.0,0.0,0.0,0.0,0.0,0.0,0.0,0.0,0.0,0.0,0.0,0.0,0.0,2.5096,2.4556,2.3737,2.2686,2.175,2.1125,2.0836,2.1197,2.1216,2.102,2.2564,2.3743,2.4409,2.3073,2.3604,2.5385,2.6395,2.7656,2.89,2.8969,2.9139,2.9197,0.0,0.0,0.0,0.0,0.0,0.0,0.0,0.0,0.0,0.0,0.0,0.0,0.0,0.0,0.0,0.0,0.0,0.0,0.4857,0.5585,0.6372,0.7222,0.8629,0.8825,0.7711,0.7623,0.725,0.6588,0.5171,0.4519,0.4519,0.4519,0.4525,0.4536,0.547,0.5368,0.4324,0.1329,0.0055,0.0,0.0,0.0,0.0279,0.0,0.0,0.0,0.0,0.0,0.0,0.0,0.1618,0.3615,0.3615,0.3622,0.3399,0.2186,0.2629,0.3255,0.2159,0.4976,0.819,0.0,0.0,0.0,1.2453,1.4243,1.6081,1.8144,0.0,0.0,0.0,0.0,0.0,0.0,0.0,0.0,0.0,0.0,0.0,0.0,0.0,0.0,0.0,0.0,0.0,0.0,0.0,0.0,0.0,0.0,0.0,0.0,0.0,0.0,2.4004,2.3414,2.2406,2.1009,2.022,2.0183,2.0794,2.1059,2.0743,2.0043,2.1843,2.2983,2.3514,2.3514,2.4384,2.5888,2.6887,2.7946,2.875,2.771,2.7632,2.7912,0.0,0.0,0.0,0.0,0.0,0.0,0.0,0.0,0.0,0.0,0.0,0.0,0.0,0.0,0.0,0.0,0.0,0.0,0.472,0.5119,0.5591,0.6171,0.6877,0.7149,0.6769,0.6323,0.5806,0.5117,0.468,0.4519,0.4519,0.4519,0.4519,0.4522,0.5281,0.558,0.5401,0.3828,0.2548,0.1562,0.1563,0.1563,0.1614,0.0,0.0,0.0,0.0,0.0,0.0,0.0,0.0,0.0,0.3615,0.4141,0.4587,0.3427,0.3858,0.5171,0.7006,0.7829,0.0,0.0,0.0,0.0,0.0,1.5693,0.0,0.0,0.0,0.0,0.0,0.0,0.0,0.0,0.0,0.0,0.0,0.0,0.0,0.0,0.0,0.0,0.0,0.0,0.0,0.0,0.0,0.0,0.0,0.0,0.0,0.0,0.0,0.0,2.3389,2.2836,2.2036,2.1009,2.1205,2.0865,2.0084,2.021,2.046,2.0866,2.1768,2.2831,2.405,2.5131,2.5455,2.5338,2.5985,2.6469,2.6636,2.6023,2.5945,2.6039,0.0,0.0,0.0,0.0,0.0,0.0,0.0,0.0,0.0,0.0,0.4997,0.4572,0.0,0.0,0.0,0.3883,0.3846,0.0,0.4571,0.4709,0.5171,0.6008,0.633,0.6574,0.6764,0.6115,0.5632,0.5336,0.4791,0.4625,0.4893,0.4625,0.4625,0.4897,0.5324,0.5416,0.5229,0.5346,0.4645,0.3428,0.3052,0.2893,0.2881,0.0,0.0,0.0,0.0,0.0,0.0,0.0,0.0,0.0,0.3605,0.4091,0.4489,0.3814,0.4705,0.6355,0.8187,0.0,0.0,0.0,0.0,0.0,0.0,0.0,0.0,0.0,0.0,0.0,0.0,0.0,0.0,0.0,0.0,0.0,0.0,0.0,0.0,0.0,0.0,0.0,0.0,0.0,0.0,0.0,0.0,0.0,0.0,0.0,0.0,0.0,0.0,0.0,2.2159,2.1832,2.1294,2.0552,2.128,2.1224,2.0498,2.0632,2.0864,2.1274,2.2105,2.2981,2.3934,2.5314,2.5369,2.4731,2.5453,2.597,2.6251,2.521,2.5156,2.5604,0.0,0.0,0.6979,0.6979,0.0,0.0,0.0,0.0,0.0,0.5178,0.4228,0.3581,0.0,0.0,0.0,0.3581,0.3581,0.3792,0.4303,0.4391,0.4993,0.6333,0.6566,0.6884,0.7404,0.6684,0.6472,0.6794,0.537,0.4988,0.5597,0.4952,0.5058,0.5697,0.5629,0.516,0.4501,0.6061,0.6157,0.5188,0.4469,0.4118,0.4052,0.3808,0.0,0.0,0.0,0.0,0.0,0.0,0.0,0.0,0.3602,0.3636,0.367,0.3684,0.5234,0.6912,0.6967,0.0,0.0,0.0,0.0,0.0,0.0,0.0,0.0,0.0,0.0,0.0,0.0,0.0,0.0,0.0,0.0,0.0,0.0,0.0,0.0,0.0,0.0,0.0,0.0,0.0,0.0,0.0,0.0,0.0,0.0,0.0,0.0,0.0,0.0,0.0,2.0718,2.0718,2.0401,0.0,2.0865,2.138,2.1518,2.1825,2.1788,2.1461,2.2772,2.3352,2.343,2.4381,2.4558,2.4297,2.511,2.6002,2.6689,2.4791,2.4952,2.5768,0.0,0.0,0.6979,0.6979,0.0,0.0,0.0,0.0,0.4961,0.41,0.3755,0.3581,0.3581,0.3581,0.0,0.3581,0.3581,0.3667,0.3751,0.4176,0.4539,0.4842,0.6195,0.7388,0.8378,0.7675,0.76,0.8266,0.6634,0.6039,0.6367,0.6209,0.6514,0.7121,0.6487,0.6071,0.5845,0.6067,0.5691,0.5014,0.5291,0.5144,0.4689,0.451,0.4221,0.0,0.0,0.0,0.0,0.0,0.0,0.0,0.377,0.4032,0.4248,0.4438,0.5639,0.7201,0.0,1.0343,0.0,0.0,0.0,0.0,0.0,0.0,0.0,0.0,0.0,0.0,0.0,0.0,0.0,0.0,0.0,0.0,0.0,0.0,0.0,0.0,0.0,0.0,0.0,0.0,0.0,0.0,0.0,0.0,0.0,0.0,0.0,0.0,0.0,2.0844,2.0718,2.0718,2.0655,0.0,2.1142,2.1455,2.1531,2.2371,2.275,2.2751,2.3516,2.3839,2.3864,2.4568,2.4753,2.4579,2.4002,2.3922,2.4038,2.3322,2.3239,2.3525,0.0,0.0,0.0,0.0,0.0,0.0,0.0,0.0,0.5005,0.4096,0.3751,0.3581,0.3581,0.3836,0.0,0.0,0.4228,0.4403,0.4403,0.4657,0.5082,0.5626,0.7348,0.8554,0.9163,0.9034,0.9322,1.016,0.9369,0.8891,0.8528,0.7917,0.8115,0.9006,0.7491,0.6561,0.6175,0.5894,0.5523,0.5102,0.5144,0.5097,0.5047,0.4401,0.4057,0.3828,0.3677,0.0,0.0,0.0,0.0,0.0,0.0,0.0,0.4183,0.46,0.5754,0.728,0.0,0.0,0.0,0.0,0.0,0.0,0.0,0.0,0.0,0.0,0.0,0.0,0.0,0.0,0.0,0.0,0.0,0.0,0.0,0.0,0.0,0.0,0.0,0.0,0.0,0.0,0.0,0.0,0.0,0.0,0.0,0.0,0.0,0.0,2.1003,2.0759,2.0759,2.0408,2.025,2.025,2.1471,2.2353,2.291,2.2731,2.2548,2.2385,2.2949,2.3188,2.3213,2.3502,2.3941,2.4355,2.3806,2.3823,2.3935,2.3245,2.327,2.3638,0.0,0.0,0.0,0.0,0.0,0.0,0.0,0.0,0.0,0.4652,0.4184,0.3884,0.3884,0.4312,0.4604,0.0,0.0,0.0,0.5427,0.5556,0.6142,0.7433,0.9056,0.9981,1.0254,1.0505,1.1134,1.2055,1.2275,1.2153,1.1634,1.019,1.0062,1.098,0.8756,0.7352,0.6605,0.6083,0.5639,0.5265,0.4907,0.4921,0.5106,0.4178,0.382,0.3816,0.3697,0.3772,0.391,0.3907,0.0,0.0,0.0,0.0,0.3929,0.4536,0.5694,0.712,0.0,0.0,0.0,0.0,0.0,0.0,0.0,0.0,0.0,0.0,0.0,0.0,0.0,0.0,0.0,0.0,0.0,0.0,0.0,0.0,0.0,0.0,0.0,0.0,0.0,0.0,0.0,0.0,0.0,0.0,0.0,0.0,2.101,2.1451,2.105,2.0837,2.093,2.0383,2.0131,2.0144,2.1745,2.3042,2.3957,2.2869,2.2145,2.1827,2.2185,2.2382,2.247,2.2367,2.2924,2.3853,2.3853,2.413,2.4404,2.3675,2.3973,2.4424,0.0,0.0,0.0,0.0,0.0,0.0,0.0,0.0,0.0,0.0,0.5135,0.5091,0.5091,0.513,0.5379,0.5823,0.5508,0.5508,0.5956,0.0,0.0,0.9424,1.0231,1.1214,1.2436,1.1929,1.2241,1.3511,1.3429,1.4169,1.56,1.3715,1.274,1.2425,1.075,0.9487,0.8631,0.7709,0.6555,0.5366,0.5913,0.5591,0.4793,0.4726,0.4409,0.3985,0.3968,0.3988,0.3949,0.3846,0.3897,0.0,0.0,0.0,0.0,0.4536,0.541,0.6537,0.0,0.0,0.0,0.0,0.0,0.0,0.0,0.0,0.0,0.0,0.0,0.0,0.0,0.0,0.0,0.0,0.0,0.0,0.0,0.0,0.0,0.0,0.0,0.0,0.0,0.0,0.0,0.0,0.0,0.0,0.0,2.0789,2.0822,2.0904,2.0836,2.106,2.1554,2.1506,2.1459,2.1459,2.1684,2.1924,2.2055,2.2396,2.2777,2.3146,2.2603,2.2659,2.3115,2.2528,2.2686,2.3251,2.3251,2.3228,2.3353,2.3792,2.3979,2.4117,0.0,0.0,0.0,0.0,0.0,0.0,0.0,0.0,0.0,0.0,0.0,0.5876,0.6156,0.65,0.6793,0.7037,0.7141,0.7321,0.7563,0.7826,0.8707,1.0426,1.1301,1.2138,1.2975,1.3293,1.369,1.4283,1.5192,1.6065,1.6912,1.6635,1.6081,1.5189,1.3288,1.1699,1.0416,0.939,0.7989,0.651,0.6768,0.6429,0.5759,0.5649,0.5438,0.5193,0.5654,0.5663,0.5436,0.5272,0.5035,0.4771,0.434,0.0,0.0,0.0,0.0,0.0,0.8614,0.0,0.0,0.0,0.0,0.0,0.0,0.0,0.0,0.0,0.0,0.0,0.0,0.0,0.0,0.0,0.0,0.0,0.0,0.0,0.0,0.0,0.0,0.0,0.0,0.0,0.0,0.0,0.0,0.0,2.1337,2.1293,2.1304,2.1304,2.1304,2.1431,2.1685,2.1685,2.1899,2.2253,2.2253,2.2438,2.2756,2.3045,2.2899,2.244,2.2495,2.243,2.2338,2.235,2.249,2.2711,2.2952,2.3078,2.3103,2.3427,2.3514,2.3552,0.0,0.0,0.0,0.0,0.0,0.0,0.0,0.0,0.0,0.0,0.0,0.6912,0.7314,0.0,0.0,0.0,0.8333,0.848,0.848,0.8994,0.9858,1.112,1.231,1.3087,1.3504,1.4281,1.4698,1.4698,1.6225,1.7081,1.7286,1.8405,1.8507,1.7758,1.572,1.3834,1.2141,1.1378,0.988,0.8053,0.8017,0.763,0.7068,0.7092,0.6921,0.6805,0.7714,0.7747,0.7301,0.6923,0.6592,0.6089,0.5004,0.4503,0.0,0.0,0.0,0.0,0.0,0.0,0.0,0.0,0.0,0.0,0.0,0.0,0.0,0.0,0.0,0.0,0.0,0.0,0.0,0.0,0.0,0.0,0.0,0.0,0.0,0.0,0.0,0.0,0.0,0.0,0.0,0.0,0.0,0.0,2.1953,2.1657,2.1525,2.1699,2.154,2.154,2.1699,2.1695,2.1967,2.2454,2.2614,2.2922,2.337,2.3535,2.3069,2.2193,2.251,2.2314,2.1898,2.2128,2.2269,2.2347,2.2761,2.2952,2.3078,2.3078,2.3078,2.3078,0.0,0.0,0.0,0.0,0.0,0.0,0.0,0.0,0.0,0.0,0.0,0.8594,0.8586,0.8626,0.8635,0.8635,0.8234,0.7953,0.7953,0.9785,1.1089,1.1661,1.3184,0.0,1.4607,1.4687,1.4698,1.4698,1.586,1.6705,1.722,1.8391,1.9132,1.9515,1.7784,1.5861,1.3851,1.3809,1.2249,0.9887,1.0057,0.9412,0.8407,0.9234,0.9129,0.8714,0.0,0.9922,0.9315,0.8468,0.8313,0.805,0.5803,0.5059,0.491,0.0,0.0,0.0,0.0,0.0,0.0,0.0,0.0,0.0,0.0,0.0,0.0,0.0,0.0,0.0,0.0,0.0,0.0,0.0,0.0,0.0,0.0,0.0,0.0,0.0,0.0,0.0,0.0,0.0,0.0,0.0,0.0,0.0,2.2629,2.1421,2.1057,2.1685,2.1102,2.1072,2.17,2.1689,2.1704,2.1759,2.2387,2.2727,2.2783,2.3325,2.3551,2.3465,2.2918,2.2649,2.2501,2.1898,2.1908,2.2309,2.2347,2.2673,2.3078,2.3078,2.3078,2.3078,0.0,0.0,0.0,0.0,0.0,0.0,0.0,0.0,0.0,0.0,0.0,0.0,0.0,0.9725,0.9725,0.9725,0.9239,0.9191,0.9836,1.0914,1.2186,1.3684,1.5014,1.5901,1.6286,1.6336,1.599,1.5229,1.6022,1.6506,1.6705,1.7825,1.8608,1.9169,1.8545,1.7523,1.6179,1.6102,1.4653,0.0,0.0,0.0,1.1323,0.0,0.0,0.0,0.0,0.0,0.0,1.0865,1.0711,1.0539,0.7644,0.6536,0.5955,0.0,0.0,0.0,0.0,0.0,0.0,0.0,0.0,0.0,0.0,0.0,0.0,0.0,0.0,0.0,0.0,0.0,0.0,0.0,0.0,0.0,0.0,0.0,0.0,0.0,0.0,0.0,0.0,0.0,0.0,0.0,0.0,0.0,2.2069,2.1201,2.0827,2.1051,2.0842,2.1036,2.168,2.1695,2.1695,2.1695,2.1934,2.2263,2.2724,2.2906,2.3221,2.3551,2.2965,2.2427,2.2021,2.2188,2.2075,2.182,2.2171,2.2648,2.3078,2.3078,2.3078,2.3017,0.0,0.0,0.0,0.0,0.0,0.0,0.0,0.0,0.0,0.9942,0.0,0.0,0.0,0.0,1.148,1.1358,1.1004,1.1021,1.1426,1.2296,1.348,1.5081,1.6173,1.6992,1.7505,1.7572,1.6873,1.5504,1.6108,1.6194,1.5823,1.6946,1.7785,1.8352,1.8727,1.8407,1.7579,0.0,0.0,1.463,0.0,0.0,1.4053,0.0,0.0,0.0,0.0,0.0,0.0,0.0,0.0,0.0,0.0,0.0,0.0,0.0,0.0,0.0,0.0,0.0,0.0,0.0,0.0,0.0,0.0,0.0,0.0,0.0,0.0,0.0,0.0,0.0,0.0,0.0,0.0,0.0,0.0,0.0,0.0,0.0,0.0,0.0,0.0,0.0,0.0,0.0,0.0,0.0,2.1724,2.0857,2.0363,2.0363,2.0363,2.0587,2.1021,2.1021,2.1021,2.1021,2.1261,2.1605,2.2039,2.2473,2.2807,2.2965,2.2788,2.23,2.1752,2.2092,2.1944,2.1543,2.2096,2.2648,2.3078,2.2823,2.2702,2.2567,0.0,0.0,0.0,0.0,0.0,0.0,0.0,0.0,1.1105,1.1105,0.0,0.0,0.0,0.0,0.0,1.3481,1.3448,1.3133,1.251,1.397,1.5094,1.5628,1.6617,1.746,1.8118,1.8145,1.7274,1.5548,1.6108,1.578,1.462,1.578,1.6608,1.7165,1.8338,1.8496,1.7913,0.0,1.7897,1.6321,0.0,1.6692,1.645,0.0,0.0,0.0,1.8389,1.8685,0.0,0.0,0.0,0.0,0.0,0.0,0.0,0.0,0.0,0.0,0.0,0.0,0.0,0.0,0.0,0.0,0.0,0.0,0.0,0.0,0.0,0.0,0.0,0.0,0.0,0.0,0.0,0.0,0.0,0.0,0.0,0.0,0.0,0.0,0.0,0.0,0.0,0.0,0.0,2.1665,2.1635,2.0393,1.969,1.969,1.969,1.969,1.969,1.969,1.969,1.969,2.0363,2.0692,2.0752,2.2054,2.2287,2.1758,2.2376,2.2253,2.1657,2.1579,2.1534,2.1543,2.2083,2.2636,2.3005,2.2199,2.1877,2.1753,0.0,0.0,0.0,0.0,0.0,0.0,1.178,1.2602,1.3288,0.0,0.0,0.0,1.5449,1.5286,1.5095,1.5008,1.4384,1.406,1.4197,1.5402,1.6329,1.6807,1.8215,1.9068,1.9244,1.8893,1.8051,1.6738,1.6071,1.5138,1.3964,1.4722,1.5136,1.531,1.6961,1.7523,1.7362,1.8826,0.0,0.0,1.8298,1.8545,0.0,0.0,0.0,0.0,0.0,1.9456,0.0,0.0,1.7702,1.7006,0.0,0.0,0.0,0.0,0.0,0.0,0.7161,0.0,0.0,0.0,0.0,0.0,0.0,0.0,0.0,0.0,0.0,0.0,0.0,0.0,0.0,0.0,0.0,0.0,0.0,0.0,0.0,0.0,0.0,0.0,0.0,0.0,0.0,0.0,2.1096,2.0767,2.0273,1.9884,1.969,1.969,1.969,1.969,1.969,1.969,1.969,1.969,1.9884,2.0228,2.0699,2.1076,2.1439,2.17,2.1442,2.1224,2.1042,2.1017,2.1225,2.1506,2.1656,2.2297,2.3005,2.2199,2.1877,2.169,0.0,0.0,1.1735,1.2153,0.0,1.3492,1.3947,1.4719,1.5332,0.0,0.0,0.0,1.7749,1.7852,1.7704,1.7313,1.6566,1.6046,1.5837,1.642,1.7115,1.7791,1.8962,1.9706,1.9929,1.9651,1.8731,1.722,1.6291,1.501,1.3443,1.3992,1.4281,1.4428,1.633,1.7409,1.7862,0.0,0.0,0.0,1.9465,0.0,0.0,1.9688,1.9957,0.0,0.0,0.0,2.0799,1.9071,1.787,0.0,0.0,0.0,0.0,0.0,0.0,0.0,0.0,0.0,0.0,0.0,0.0,0.0,0.9442,1.1035,0.0,0.0,0.0,0.0,0.0,0.0,0.0,0.0,0.0,0.0,0.0,0.0,0.0,0.0,0.0,0.0,0.0,0.0,0.0,0.0,2.0722,2.0423,1.972,1.969,1.969,1.969,1.969,1.969,1.969,1.969,1.969,1.969,1.969,1.9775,1.9935,2.0237,2.0443,2.0554,2.0523,2.0424,2.0422,2.0668,2.1051,2.1506,2.1744,2.2372,2.2944,2.1803,2.1365,2.1112,0.0,0.0,1.379,1.4223,1.5187,1.6055,1.6572,1.7075,1.7417,0.0,1.8268,1.9206,2.015,2.0686,2.0682,1.9818,1.9178,1.8389,1.737,1.7305,1.7687,1.8599,1.9201,1.9758,2.0299,2.0314,1.9345,1.737,1.6741,1.5305,1.3284,1.3744,1.4043,1.4234,1.6312,1.7824,1.8838,0.0,0.0,1.9767,2.042,2.0888,0.0,0.0,2.1139,0.0,2.0846,2.1273,2.19,2.0031,1.7602,0.0,0.0,0.0,0.0,0.0,1.0386,0.0,0.0,0.0,0.0,0.0,0.0,0.0,0.8595,0.9779,1.1074,0.0,0.0,0.0,0.0,0.0,0.0,0.0,0.0,0.0,0.0,0.0,0.0,0.0,0.0,0.0,0.0,0.0,2.1231,2.0647,2.0602,2.0333,1.972,1.969,1.969,1.969,1.969,1.969,1.969,1.969,1.969,1.969,1.9639,1.9369,1.8907,1.9452,1.9433,1.8937,1.9614,1.984,1.9761,2.0338,2.0891,2.1455,2.1943,2.2421,2.2664,2.1078,2.0462,2.0204,1.4125,1.4719,1.5389,1.6151,1.701,1.786,1.86,1.9337,1.9943,2.0262,2.1011,2.1618,2.1814,2.1334,2.0926,2.0748,1.957,1.8783,1.8555,1.8555,1.8631,1.884,1.9667,2.019,2.0314,2.0314,1.9697,1.8474,1.7518,1.6101,1.4316,1.4879,1.4901,1.453,1.6725,1.8051,1.8759,0.0,0.0,2.1595,2.1737,0.0,2.2044,2.2197,2.2238,2.2079,2.1322,2.1208,2.1235,0.0,1.839,1.6848,0.0,0.0,0.0,0.0,0.0,0.0,0.0,0.0,0.0,0.0,0.0,0.0,0.8691,0.9209,1.0014,0.0,0.0,0.0,0.0,0.0,0.0,0.0,0.0,0.0,0.0,0.0,0.0,0.0,0.0,0.0,0.0,0.0,2.0034,1.9884,1.9884,1.9824,1.969,1.969,1.969,1.969,1.969,1.969,1.969,1.969,1.969,1.969,1.9244,1.9006,1.8869,1.8632,1.8492,1.8403,1.8951,1.9182,1.9221,1.9748,2.0313,2.0861,2.1122,2.132,2.1271,1.9986,1.9562,1.9431,1.5588,1.6508,1.7403,1.816,1.9279,2.0307,2.0909,2.1334,2.162,2.1688,2.2067,2.231,2.231,2.1705,2.1306,2.1306,2.0218,1.9555,1.9555,1.9555,1.9647,1.9828,2.0553,2.083,2.0649,2.0649,2.0078,1.8835,1.8009,1.7022,1.5888,1.6082,1.6049,1.5865,1.7904,1.911,1.9704,0.0,2.2224,2.266,2.266,0.0,2.2747,2.2712,2.2461,2.203,2.096,2.0128,1.9436,1.9083,1.837,0.0,0.0,1.6517,1.6305,0.0,1.4299,1.415,0.0,0.0,0.0,1.0068,0.0,0.0,0.0,0.8791,0.0,0.0,0.0,0.0,0.0,0.0,0.0,0.0,0.0,0.0,0.0,0.0,0.0,0.0,0.0,0.0,0.0,0.0,1.969,1.969,1.969,1.969,1.969,1.969,1.969,1.969,1.969,1.969,1.969,1.969,1.9566,1.9281,1.9043,1.8612,1.8066,1.7866,1.7761,1.7836,1.8092,1.8518,1.9021,1.9585,1.9753,1.978,2.0387,2.0772,2.0887,1.9695,1.9299,1.9177,1.6894,1.8199,1.9369,2.0094,2.1323,2.2371,2.2805,2.2797,2.2599,2.2349,2.231,2.2338,2.236,2.1953,2.1715,2.1786,2.1005,2.0525,0.0,0.0,0.0,2.091,2.1409,2.1505,2.1118,2.1023,2.0418,1.928,1.8674,1.8143,1.772,1.7721,1.7763,0.0,1.9625,0.0,0.0,0.0,0.0,2.3356,0.0,2.3351,2.3147,2.2814,2.24,2.1819,2.0439,1.9092,1.8041,1.86,0.0,1.7996,1.7561,1.7743,0.0,0.0,0.0,0.0,0.0,0.0,0.0,0.0,0.0,1.0257,0.0,0.0,0.0,0.0,0.0,0.0,0.0,0.0,0.0,0.0,0.0,0.0,0.0,0.0,0.0,0.0,0.0,0.0,0.0,0.0,1.9309,1.9515,1.9447,1.9432,1.9551,1.9639,1.969,1.969,1.969,1.9639,1.9566,1.9566,1.9281,1.8727,1.865,1.8145,1.7312,1.7188,1.7179,1.7212,1.7338,1.7847,1.8697,1.9219,1.9052,1.8595,1.9584,2.0123,2.0162,1.918,1.8785,1.8664,1.9148,2.0091,2.0925,2.1551,2.219,2.2848,2.35,2.3069,2.2599,2.2349,2.231,2.2388,0.0,0.0,0.0,0.0,0.0,0.0,2.1697,0.0,0.0,2.142,2.1807,2.1886,2.1521,2.1181,2.0879,2.059,2.0033,1.9706,1.9602,2.0305,2.0629,0.0,2.197,0.0,0.0,0.0,2.4026,0.0,2.4229,2.3886,0.0,2.2686,2.2299,2.1794,2.0266,1.921,1.8678,0.0,1.9728,1.9301,0.0,2.0115,0.0,0.0,0.0,0.0,0.0,0.0,0.0,0.0,1.2956,0.0,0.0,0.0,0.0,0.0,0.0,0.0,0.0,0.0,0.0,0.0,0.0,0.0,0.0,0.0,0.0,0.0,0.0,0.0,0.0,0.0,0.0,1.8925,1.8571,1.8499,1.8977,1.9442,1.969,1.969,1.969,1.9479,1.9006,1.9006,1.8727,1.8185,1.7706,1.7435,1.7271,1.6795,1.659,1.6647,1.7162,1.7378,1.7349,1.7912,1.7973,1.7833,1.8836,1.8581,1.7571,1.7139,1.7002,1.6914,1.9566,2.0413,2.1149,2.1595,2.2238,2.2797,2.3069,2.2873,2.266,2.2537,2.2805,2.3047,0.0,0.0,0.0,0.0,0.0,2.2569,0.0,0.0,2.2599,0.0,0.0,0.0,0.0,2.1824,2.1569,2.1424,2.1048,2.1133,2.1646,2.1874,2.2063,0.0,2.3148,0.0,2.3324,0.0,0.0,0.0,0.0,0.0,0.0,2.2664,2.1739,2.0548,1.9626,1.9001,1.8672,0.0,1.9463,0.0,0.0,0.0,0.0,0.0,0.0,0.0,0.0,0.0,0.0,0.0,0.0,0.0,0.0,0.0,1.1256,0.0,0.0,0.0,0.0,0.0,0.0,0.0,0.0,0.0,0.0,0.0,0.0,0.0,0.0,0.0,0.0,0.0,0.0,0.0,0.0,1.8342,1.8878,1.9132,1.9369,1.969,1.9406,1.9132,1.8893,1.8574,1.8185,1.7626,1.7435,1.7146,1.6837,1.6595,1.6522,1.6491,1.6397,1.664,1.7071,1.6946,1.6938,1.7022,1.742,1.7461,1.7186,1.6812,1.6665,1.6587,1.9965,2.0581,2.1134,2.1573,0.0,2.2625,2.2695,2.2737,2.282,0.0,0.0,0.0,2.4014,2.3722,0.0,0.0,0.0,2.3529,0.0,0.0,2.3563,0.0,0.0,0.0,0.0,0.0,2.2231,2.227,2.2092,2.241,2.3209,2.3145,2.3272,0.0,0.0,2.411,2.396,0.0,0.0,2.4561,2.3708,2.294,2.2282,2.2043,2.0966,1.954,1.9199,1.8966,1.8807,1.8965,1.9248,0.0,2.011,0.0,0.0,0.0,0.0,0.0,1.9008,0.0,0.0,0.0,0.0,0.0,0.0,0.0,0.0,0.0,0.0,0.0,0.0,0.0,0.0,0.0,0.0,0.0,0.0,0.0,0.0,0.0,0.0,0.0,0.0,0.0,0.0,0.0,0.0,0.0,1.8168,1.8521,1.8855,1.9244,1.8893,1.8612,1.8458,1.8066,1.7626,1.7076,1.7076,1.6782,1.6238,1.6238,1.6151,1.5976,1.5555,1.5812,1.6516,1.6076,1.6031,1.6208,1.6208,1.6413,1.6683,1.6434,1.6258,1.6088,2.0846,2.0959,0.0,0.0,0.0,0.0,0.0,0.0,0.0,0.0,0.0,0.0,0.0,0.0,0.0,0.0,0.0,2.4741,2.4756,0.0,2.4535,0.0,0.0,2.3731,0.0,0.0,0.0,2.3165,2.3213,2.3492,2.3969,2.4282,2.4556,0.0,0.0,2.4831,2.4972,2.5184,2.5163,2.4898,2.389,2.2316,2.0576,0.0,2.0044,1.9311,1.9308,0.0,0.0,1.9885,1.9579,0.0,0.0,0.0,0.0,0.0,0.0,0.0,0.0,0.0,0.0,1.9146,0.0,0.0,0.0,0.0,1.5787,0.0,0.0,0.0,0.0,0.0,0.0,0.0,0.0,0.0,0.0,0.0,0.0,0.0,0.0,0.0,0.0,0.0,0.0,0.0,0.0,0.0,1.6456,1.7518,1.8145,1.8145,1.8145,1.7867,1.7353,1.7353,1.7076,1.6522,1.6522,1.6194,1.5632,1.5632,1.532,1.4755,1.4744,1.4886,1.5185,1.5133,1.5233,1.541,1.541,1.542,1.5439,1.5449,1.5166,1.4693,2.2158,0.0,0.0,0.0,0.0,0.0,0.0,2.3601,0.0,0.0,0.0,0.0,0.0,0.0,2.5106,0.0,0.0,2.4924,2.4924,2.4708,0.0,0.0,0.0,2.4098,0.0,0.0,0.0,2.4061,2.3856,2.4026,2.4516,2.4651,0.0,0.0,0.0,2.503,0.0,0.0,0.0,0.0,0.0,2.2438,2.1235,0.0,0.0,1.9305,1.9305,1.9305,0.0,1.9506,1.9646,1.983,2.0352,2.0947,2.1493,2.1871,2.2277,0.0,0.0,0.0,2.1902,2.0672,0.0,0.0,0.0,0.0,0.0,0.0,0.0,0.0,0.0,0.0,0.0,0.0,0.0,0.0,0.0,0.0,0.0,0.0,0.0,0.0,0.0,0.0,0.0,0.0,0.0,0.0,0.0,1.6566,1.7122,1.7477,1.7572,1.7463,1.7312,1.6951,1.668,1.6522,1.6522,1.638,1.6194,1.5776,1.5499,1.5231,1.4457,1.4318,1.4622,1.4477,1.4636,1.5029,1.5303,1.541,1.5352,1.4805,1.4543,1.4258,2.3159,0.0,0.0,0.0,0.0,0.0,0.0,0.0,0.0,0.0,2.4915,0.0,2.5532,0.0,2.5418,0.0,2.5365,2.5099,2.5099,2.4904,0.0,2.4678,2.4538,0.0,0.0,0.0,0.0,0.0,2.4449,2.4523,2.4864,2.4864,0.0,0.0,0.0,0.0,0.0,0.0,2.5138,0.0,0.0,2.2589,0.0,0.0,2.0205,2.0205,0.0,1.9987,1.9767,2.0079,2.0202,2.03,2.0608,2.1453,2.2374,2.2374,2.2847,2.3328,2.3047,2.3106,0.0,2.1687,2.1255,0.0,1.9834,0.0,0.0,0.0,0.0,0.0,0.0,0.0,0.0,0.0,0.0,0.0,0.0,1.5052,0.0,0.0,0.0,0.0,0.0,0.0,0.0,0.0,0.0,0.0,0.0,0.0,1.6378,1.6928,1.7008,1.7034,1.7034,1.668,1.6522,1.6522,1.6522,1.6293,1.5832,1.5466,1.505,1.4595,1.3826,1.3713,1.4093,1.3945,1.416,1.459,1.5019,1.5186,1.5148,1.4758,1.4543,1.4267,0.0,0.0,0.0,0.0,2.3567,0.0,0.0,0.0,2.4975,0.0,2.5305,2.5688,2.6468,2.5793,2.563,2.6467,2.5793,0.0,2.5303,2.5284,0.0,0.0,2.4979,2.4924,2.4818,0.0,0.0,0.0,0.0,2.4998,2.501,2.501,0.0,0.0,2.5099,0.0,2.5293,2.5293,2.5163,2.4885,2.3791,2.2763,2.1931,2.1931,0.0,2.1913,2.1839,2.1272,2.0686,2.151,2.1253,2.0704,2.1528,2.2354,2.2997,2.2997,2.3356,2.3714,2.3714,2.35,2.3081,2.2376,0.0,0.0,0.0,0.0,2.1729,0.0,0.0,0.0,0.0,0.0,0.0,0.0,0.0,0.0,0.0,0.0,0.0,0.0,0.0,0.0,0.0,0.0,0.0,0.0,0.0,0.0,0.0,0.0,0.0,1.638,1.6466,1.6522,1.6522,1.6522,1.6522,1.6522,1.6522,1.5876,1.4744,1.4698,1.4071,1.2929,1.2929,1.3105,1.3477,1.3496,1.374,1.4097,1.458,1.4766,1.4834,1.5196,1.5008,1.4541,2.469,2.4615,2.4761,0.0,2.5468,2.5507,0.0,0.0,0.0,0.0,2.5809,2.5488,2.5677,2.5465,2.538,2.561,2.5418,0.0,0.0,0.0,0.0,2.501,2.4904,2.4877,2.4937,2.4693,0.0,2.4949,0.0,0.0,2.4991,0.0,0.0,0.0,0.0,0.0,2.5088,2.5088,2.4898,2.4586,2.4153,2.3805,0.0,0.0,2.3584,2.3419,2.2243,2.1674,2.1492,2.1729,2.1639,2.151,2.1729,2.2354,2.2997,2.2997,2.3509,2.4074,2.4074,2.4016,2.3923,2.3879,2.3471,2.3021,0.0,0.0,0.0,0.0,0.0,0.0,0.0,0.0,0.0,0.0,0.0,0.0,0.0,0.0,0.0,0.0,0.0,0.0,0.0,0.0,0.0,0.0,0.0,0.0,0.0,0.0,0.0,1.5152,1.602,1.6522,1.6522,1.6522,1.6522,1.6522,1.6522,1.6095,1.5365,1.4926,1.4294,1.3552,1.3104,1.2939,1.3066,1.3379,1.3574,1.3711,1.4131,1.4502,1.4778,1.4597,1.4153,1.368,2.6282,0.0,0.0,2.7064,0.0,0.0,2.6704,0.0,0.0,2.686,2.6332,0.0,2.5931,2.5543,2.5303,2.5303,2.5303,0.0,0.0,0.0,0.0,2.5141,2.5061,2.5049,2.5141,2.4858,0.0,2.501,0.0,0.0,2.4991,0.0,0.0,0.0,0.0,2.5099,0.0,2.4845,2.4598,2.4283,2.421,0.0,0.0,2.419,2.419,2.408,2.3162,2.2611,2.2373,2.2721,2.2611,2.2318,2.2318,2.2887,2.3456,2.3107,2.3566,2.4209,2.4303,2.4339,2.4375,2.4575,2.4324,2.404,2.4068,2.4117,2.3979,0.0,0.0,0.0,0.0,0.0,0.0,0.0,0.0,0.0,0.0,0.0,0.0,0.0,0.0,0.0,0.0,0.0,0.0,0.0,0.0,0.0,0.0,0.0,0.0,1.5062,1.596,1.6473,1.6522,1.6773,1.6773,1.6522,1.6522,1.6194,1.5588,1.4971,1.4376,1.3779,1.3152,1.2881,1.29,1.3135,1.3232,1.3291,1.3844,1.4404,1.4778,1.4723,1.4529,1.4285,0.0,0.0,0.0,0.0,0.0,0.0,0.0,2.767,0.0,2.6928,0.0,2.656,2.6458,2.5765,2.5303,2.5303,0.0,2.5303,2.5303,2.5303,2.5303,2.5303,2.5303,2.5303,2.5303,2.5077,0.0,0.0,0.0,0.0,0.0,0.0,0.0,0.0,0.0,0.0,0.0,2.4538,2.421,0.0,2.4115,2.417,2.4151,2.417,2.419,2.419,2.419,2.3749,2.3253,2.3913,2.3693,2.3143,2.3106,2.3601,2.4061,2.3364,2.3657,2.4247,2.4462,2.4495,2.4543,2.4771,2.4917,2.4974,2.4883,2.4956,2.5018,2.4883,2.4842,2.4832,0.0,0.0,0.0,0.0,0.0,0.0,0.0,0.0,0.0,0.0,0.0,0.0,0.0,0.0,0.0,0.0,0.0,0.0,0.0,0.0,0.0,1.5454,1.6028,0.0,1.6635,0.0,1.7049,1.6635,1.6559,1.6194,1.5588,1.505,1.4514,1.3909,1.3382,1.3162,1.3162,1.3222,1.3282,1.3411,1.422,1.4661,1.4992,1.5426,1.5468,1.541,0.0,0.0,0.0,0.0,0.0,2.8201,2.801,2.7503,2.7071,2.6903,2.6164,0.0,2.5623,2.5407,2.5303,2.5303,2.5303,0.0,0.0,0.0,0.0,2.5303,2.5303,2.5303,2.5303,2.4987,2.4891,0.0,0.0,0.0,0.0,0.0,0.0,0.0,0.0,0.0,2.4154,2.3945,0.0,2.3379,2.3958,2.4036,2.3816,2.4094,2.419,2.419,2.419,2.4116,2.3968,2.3821,2.3885,2.3931,2.3658,2.3848,2.4171,2.4025,2.408,2.4247,2.4462,2.4495,2.4556,2.4885,2.4986,2.5034,2.5182,2.5233,2.5243,2.5222,2.5084,2.4962,2.4962,0.0,0.0,0.0,0.0,0.0,0.0,0.0,0.0,0.0,0.0,0.0,0.0,0.0,0.0,0.0,0.0,0.0,0.0,0.0,0.0,0.0,0.0,0.0,0.0,0.0,1.6861,1.7225,1.6748,1.6194,1.5588,1.5499,1.5096,1.4514,1.4433,1.4387,1.4419,1.4862,1.5317,1.5847,1.631,1.6149,1.5735,1.6146,1.5921,1.541,0.0,0.0,0.0,0.0,0.0,0.0,0.0,2.6991,0.0,2.6748,2.6359,2.6057,2.603,2.5601,2.5303,2.5303,2.5303,2.5303,2.5303,2.5303,2.5303,2.5303,2.5303,0.0,2.5303,2.4962,2.4828,2.4891,0.0,0.0,0.0,0.0,0.0,0.0,0.0,2.4353,0.0,0.0,0.0,2.3482,2.3996,2.4094,2.3976,2.4151,2.419,2.419,2.419,2.419,2.417,2.4016,2.4074,2.417,2.4016,2.4074,2.419,2.419,2.4266,2.441,2.4591,2.4712,2.4818,2.5088,2.5152,2.5173,2.5274,2.5303,2.5303,2.5303,2.5224,2.5152,2.5152,2.5018,0.0,0.0,0.0,0.0,0.0,0.0,0.0,0.0,0.0,0.0,0.0,0.0,0.0,0.0,0.0,0.0,0.0,0.0,0.0,0.0,0.0,0.0,0.0,0.0,0.0,1.6936,1.6647,1.6337,1.6051,1.572,1.5454,1.5141,1.4835,1.4698,1.4743,1.5283,1.5838,1.6446,1.683,1.6799,1.6482,1.6483,1.6265,1.5921,0.0,3.0745,0.0,0.0,2.9467,0.0,0.0,2.6812,2.5851,2.6366,2.6405,2.6384,2.6323,2.5707,2.5303,2.5303,2.5303,2.5303,2.5303,2.5303,2.5303,2.5303,2.5264,2.5243,2.5243,2.4949,2.4775,0.0,0.0,0.0,0.0,0.0,0.0,0.0,0.0,0.0,0.0,0.0,2.3896,2.3628,2.4054,2.4151,2.4094,2.417,2.419,2.419,2.419,2.419,2.419,2.419,2.419,2.419,2.4132,2.4151,2.419,2.419,2.4321,2.4495,2.4731,2.4883,2.4998,2.5243,2.5303,2.5303,2.5303,2.5303,2.5303,2.5303,2.5303,2.5303,2.5303,2.5163,0.0,0.0,0.0,0.0,0.0,0.0,0.0,0.0,0.0,0.0,0.0,0.0,0.0,0.0,0.0,0.0,0.0,0.0,0.0,0.0,0.0,1.5834,1.687,0.0,1.7188,0.0,1.6859,1.6837,1.6824,1.6361,1.6133,1.6089,1.5531,1.5313,1.5476,1.603,1.6599,1.7159,1.7491,1.7379,1.7118,1.6849,1.6652,1.6436,0.0,0.0,0.0,0.0,0.0,0.0,0.0,2.7652,2.6328,2.5611,2.5473,2.5438,2.5428,2.5341,2.5303,2.5303,2.5303,2.5303,2.5303,2.5303,2.5303,2.5303,2.5141,2.5022,2.5022,2.4883,2.4716,0.0,0.0,0.0,0.0,0.0,0.0,0.0,0.0,0.0,0.0,2.3735,2.3544,2.3282,2.3937,2.4016,2.3774,2.4094,2.419,2.419,2.419,2.419,2.419,2.419,2.419,2.4151,2.3837,2.3955,2.419,2.419,2.4209,2.4321,2.47,2.4818,2.4915,2.5222,2.5303,2.5303,2.5303,2.5303,2.5303,2.5303,2.5303,2.5303,2.5303,2.5274,2.5171,0.0,0.0,0.0,0.0,0.0,0.0,0.0,0.0,0.0,0.0,0.0,0.0,0.0,0.0,0.0,0.0,0.0,0.0,1.5327,0.0,1.5816,1.8,1.7558,0.0,1.8044,1.7977,1.7947,1.7947,1.7894,1.7854,1.7854,1.7286,1.737,1.789,1.8436,1.897,1.9494,1.9544,1.8696,1.7511,1.7501,1.709,1.6492,0.0,0.0,0.0,0.0,0.0,0.0,0.0,2.8164,2.7113,2.6226,2.5649,2.5303,2.5303,2.5303,2.5303,2.5303,2.5303,2.5303,2.5303,2.5303,2.5303,2.5303,2.5224,2.5111,2.501,2.4883,2.47,0.0,0.0,0.0,0.0,0.0,0.0,0.0,0.0,2.3996,2.3996,2.3996,2.3917,2.3816,2.4094,2.4113,2.4016,2.4151,2.419,2.419,2.419,2.419,2.419,2.419,2.419,2.417,2.4036,2.4094,2.419,2.419,2.4284,2.4428,2.4594,2.4716,2.4842,2.5065,2.5111,2.5152,2.5274,2.5303,2.5303,2.5303,2.5303,2.5303,2.5303,2.5303,2.5253,0.0,0.0,0.0,0.0,0.0,0.0,0.0,0.0,0.0,0.0,0.0,0.0,0.0,0.0,0.0,0.0,0.0,0.0,1.5966,0.0,1.6491,1.8112,1.7909,1.7909,1.8153,1.8097,1.8106,1.8106,1.8106,1.8339,1.8685,1.8093,1.8393,1.9257,1.9067,1.9334,1.9798,1.9798,1.9423,1.8874,1.8436,1.807,1.7743,3.0898,0.0,3.068,0.0,3.0047,2.9553,2.949,2.8775,2.7948,2.7082,2.6217,2.5572,2.5322,2.5303,2.5303,2.5303,2.5303,2.5303,2.5303,2.5303,2.5303,2.5303,2.5234,0.0,2.501,2.4904,2.4771,2.4575,2.5035,0.0,0.0,0.0,0.0,0.0,2.419,2.419,2.419,2.419,2.4228,2.4284,2.4284,2.4303,2.4375,2.4375,2.4339,2.4284,2.4284,2.4284,2.4284,2.4284,2.4339,2.4357,2.4247,2.419,2.419,2.419,2.4303,2.4445,2.4561,2.4685,2.4861,2.5041,2.5088,2.5141,2.5264,2.5303,2.5303,2.5303,2.5303,2.5303,2.5303,2.5303,2.5274,2.5214,0.0,0.0,0.0,0.0,0.0,0.0,0.0,2.3221,0.0,0.0,0.0,0.0,0.0,0.0,0.0,0.0,0.0,0.0,0.0,0.0,0.0,1.8731,1.8731,1.8731,1.8896,1.8858,1.8722,1.8636,1.8835,1.9319,1.9042,1.9462,2.0221,1.993,2.0034,2.037,2.037,2.0219,1.9991,1.9453,1.9233,1.9181,3.0898,3.0793,3.068,3.0617,3.0533,3.0462,3.0394,2.964,2.8794,2.7986,2.7121,2.6255,2.538,2.5303,2.5303,2.5303,2.5303,2.5303,2.5303,2.5303,2.5303,0.0,0.0,2.501,2.501,2.501,2.4924,2.4804,0.0,0.0,2.4513,0.0,2.4208,2.419,2.419,2.419,2.419,2.419,2.4321,2.4495,2.4495,2.4607,2.479,2.479,2.467,2.4495,2.4495,2.4495,2.4495,2.4495,2.4623,2.4731,2.4339,2.419,2.419,2.419,2.419,2.4284,2.4685,2.4804,2.4888,2.5222,2.5303,2.5303,2.5303,2.5303,2.5303,2.5303,2.5303,2.5303,2.5303,2.5303,2.5224,2.5034,0.0,0.0,0.0,0.0,0.0,0.0,2.3784,2.3611,2.4407,0.0,0.0,0.0,0.0,0.0,0.0,0.0,0.0,1.8507,1.8496,0.0,2.0156,2.0156,2.0156,2.0172,2.0716,2.0715,2.028,1.9874,1.9737,1.9915,2.0464,2.0741,2.0941,2.1462,2.1649,2.1697,2.1697,2.1212,2.0611,2.0562,2.0562,2.0562,3.0745,3.0652,3.0554,3.0537,3.0472,3.0428,3.039,3.016,2.9486,2.8082,2.7659,2.6928,2.5457,2.5303,2.5303,0.0,2.5303,2.5303,0.0,2.5303,2.5303,2.5303,2.5253,2.5141,2.501,2.501,2.4924,2.4804,0.0,0.0,0.0,2.545,2.5134,2.4607,2.4607,2.4607,2.4607,2.4607,2.4639,2.47,2.47,2.4746,2.4804,2.4804,2.476,2.47,2.47,2.47,2.47,2.47,2.4746,2.4775,2.4654,2.4607,2.4607,2.4607,2.4607,2.4639,2.476,2.4804,2.4842,2.5041,2.5099,2.5122,2.5264,2.5303,2.5303,2.5303,2.5303,2.5303,2.5303,2.5303,2.5274,2.5214,2.5088,0.0,0.0,0.0,0.0,0.0,0.0,2.4279,0.0,2.4205,0.0,0.0,0.0,0.0,0.0,0.0,0.0,0.0,1.9652,0.0,2.0749,2.0749,2.0749,2.0749,2.091,2.0764,2.0296,2.0635,2.0903,2.1119,2.1309,2.167,2.209,2.1829,2.1937,2.2264,2.2264,2.2343,2.2422,2.2422,2.2422,2.2422,3.069,3.06,3.0498,3.0498,3.0451,3.0398,3.0398,3.0398,2.991,2.8525,2.8352,2.7813,2.6428,2.6274,0.0,2.5832,2.5793,2.5928,2.6255,2.5967,2.5928,2.6255,2.6274,2.6214,2.6098,0.0,0.0,2.5482,2.5579,2.5613,2.5613,2.5559,2.528,2.4804,2.4804,2.4804,2.4804,2.4804,2.4828,2.4883,2.4883,2.4923,2.4994,2.4994,2.4936,2.4883,2.4883,2.4883,2.4883,2.4883,2.4923,2.4987,2.501,2.5034,2.4998,2.4842,2.4804,2.4818,2.4869,2.4883,2.493,2.5105,2.5157,2.5187,2.5343,2.5387,2.5371,2.5329,2.5339,2.5321,2.5293,2.5303,2.5303,2.5303,2.5184,2.5152,0.0,0.0,0.0,0.0,0.0,0.0,0.0,2.4842,0.0,0.0,0.0,0.0,0.0,0.0,0.0,2.1079,2.1248,0.0,2.1824,2.1824,2.1824,2.1824,2.1562,2.1195,2.0797,2.1358,2.1833,2.2225,2.2521,2.3032,2.3634,2.3357,2.3453,2.3758,2.3902,2.4138,2.4414,2.4414,2.4414,2.4414,3.0687,3.0587,0.0,0.0,3.0441,0.0,3.0398,3.0398,3.0102,2.9198,2.9102,2.8794,2.7986,2.7948,2.7659,2.6832,0.0,0.0,0.0,2.714,2.7044,2.7852,2.789,2.789,2.789,2.789,2.7467,2.6601,2.5589,2.508,2.5022,2.4877,2.4832,2.4832,2.4832,2.4832,2.4832,2.4832,2.4923,2.5022,2.5022,2.5152,2.5322,2.5303,2.5194,2.5038,2.5038,2.5038,2.5038,2.5038,2.5165,2.5312,2.5383,2.5413,2.5329,2.4962,2.4855,2.4877,2.4991,2.5038,2.5086,2.5337,2.5401,2.5421,2.5498,2.5493,2.5473,2.5421,2.5413,2.5395,2.5322,2.5303,2.5313,2.5303,2.5303,2.5303,2.5303,0.0,0.0,0.0,0.0,0.0,0.0,2.5173,2.5149,0.0,0.0,0.0,0.0,0.0,2.2708,2.2625,2.2992,2.3189,2.3189,2.3189,2.3224,2.3277,2.2599,2.2068,2.1754,2.2118,2.2601,2.3243,2.3971,2.4685,2.5352,2.5711,2.5907,2.5961,2.6252,2.6401,2.6434,2.6418,2.6418,2.6418,0.0,0.0,3.0417,3.0417,3.0414,3.0398,3.0398,3.0398,3.0102,2.9198,2.9102,2.8794,2.7986,2.8448,2.8717,2.8525,2.7948,2.7678,2.789,2.7698,2.7678,2.789,2.789,2.789,2.789,2.789,2.7467,2.6601,2.6359,2.5877,2.5224,2.5212,2.5171,2.5171,2.5171,2.5171,2.5171,2.5171,2.5192,2.5224,2.5224,2.5283,2.5379,2.5368,2.5386,2.537,2.537,2.537,2.537,2.537,2.5402,2.5459,2.5477,2.5488,2.5457,2.5356,2.5323,2.5343,2.537,2.537,2.5402,2.5457,2.5488,2.5473,2.5508,2.5493,2.5508,2.5473,2.5488,2.5459,2.5383,2.5387,2.5363,2.5303,2.5303,2.5303,2.5303,2.5107,0.0,0.0,2.5094,2.5057,2.529,2.5166,2.5053,0.0,0.0,0.0,0.0,2.4381,2.3895,2.3082,2.3147,2.3189,2.3189,2.3189,2.3513,2.4116,2.395,2.3641,2.3302,2.3898,2.4147,2.4211,2.49,2.572,2.6588,2.6678,2.6964,2.7295,2.7186,2.7406,2.7725,2.7566,2.7531,2.7531,3.0498,3.0451,3.0398,3.0398,3.0398,3.0398,3.0398,3.0398,3.0237,2.9756,2.9698,2.9525,2.9083,2.9429,2.9698,2.9698,2.8582,2.8236,2.8986,2.8332,2.8236,2.9006,2.9044,2.9044,2.9044,2.9044,2.8621,2.7736,2.6986,2.637,2.589,2.5495,2.5322,2.5337,2.5313,2.533,2.5391,2.5354,2.5363,2.5391,2.5391,2.5401,2.5447,2.5453,2.5477,2.5493,2.5493,2.5493,2.5493,2.5493,2.5493,2.5517,2.5543,2.5551,2.5616,2.6023,2.5843,2.5591,2.598,2.5805,2.5517,2.5543,2.5564,2.5598,2.5598,2.5598,2.5573,2.5554,2.5551,2.5531,2.5459,2.5447,2.5434,2.5398,2.5391,2.5391,2.5391,2.5189,0.0,2.5365,2.5193,2.5143,2.539,2.5309,2.5186,2.5091,0.0,0.0,2.5378,2.5357,2.5075,2.4501,2.4481,2.4666,2.5071,2.5071,2.5029,2.4899,2.4899,2.4733,2.4426,2.5122,2.5392,2.5378,2.6458,2.7223,2.7779,2.7907,2.8135,2.8402,2.8434,2.8635,2.8857,2.8755,2.8646,2.8578,3.0491,3.0441,3.0398,3.0398,3.0398,3.0398,3.0398,3.0398,3.0398,3.0398,3.0398,3.0398,3.0398,3.0398,3.0398,3.0398,2.8871,2.8563,3.0102,2.8871,2.8717,3.014,3.0321,3.0398,3.0398,3.0398,2.9967,2.9102,2.7544,2.6727,2.6612,2.5717,2.5346,2.5408,2.5354,2.5398,2.5508,2.5577,2.557,2.5513,2.5649,2.5615,2.5526,2.5526,2.5511,2.5539,2.5539,2.5539,2.5539,2.5527,2.5527,2.5519,2.5572,2.5677,2.5955,2.6835,2.6523,2.6052,2.6796,2.638,2.5697,2.5629,2.5641,2.5703,2.5683,2.5683,2.5664,2.56,2.5579,2.5553,2.5499,2.5469,2.5488,2.5461,2.5477,2.5477,2.5477,0.0,2.5203,2.5377,2.5233,2.5203,2.5377,2.5441,2.5464,2.5441,2.5387,2.5659,0.0,2.6352,2.6388,2.6502,2.6313,2.6552,2.7312,2.7331,2.6877,2.5984,2.5984,2.5864,2.5671,2.6302,2.6618,2.6806,2.8109,2.8801,2.9004,2.923,2.9343,2.9361,2.9666,2.9775,2.9761,2.9727,2.9607,2.9454,3.0428,3.0402,3.0398,3.0398,3.0398,3.0398,3.0398,3.0398,3.0398,3.0398,3.0398,3.0398,3.0398,3.0398,3.0398,3.0398,2.8871,2.8294,2.9236,2.9063,2.9025,2.9294,3.0006,3.0398,3.0398,3.0398,2.9967,2.9102,2.8159,2.7345,2.6671,2.5782,2.5415,2.5473,2.5463,2.5473,2.5547,2.6262,2.617,2.5571,2.6296,2.6186,2.5573,2.5573,2.5629,2.5662,2.5662,2.5662,2.5663,2.5602,2.5579,2.5576,2.5525,2.6011,2.6782,2.7663,2.7809,2.7725,2.7862,2.729,2.6513,2.579,2.5641,2.5683,2.5633,2.5627,2.5603,2.5538,2.5512,2.5506,2.5439,2.5422,2.5407,2.5331,2.533,2.533,2.533,0.0,2.5293,2.5382,2.5312,2.5293,2.5382,2.5405,2.571,2.6406,2.6515,2.6907,2.7737,2.7783,2.81,2.8851,2.772,2.7191,2.737,2.737,2.7663,2.8199,2.8199,2.8169,2.8157,2.826,2.8437,2.8675,2.8917,2.9505,3.03,3.0338,3.0358,3.035,3.025,3.0166,3.0094,2.9875,2.9734,2.9643,3.0414,3.0398,3.0398,3.0398,3.0398,3.0398,3.0398,3.0398,3.0398,3.0398,3.0398,3.0398,3.0398,3.0398,3.0398,3.0398,2.9256,2.8525,2.8448,2.8448,2.864,2.9083,2.9929,3.0398,3.0398,3.0398,3.0213,2.9854,2.9004,2.8449,2.812,2.6786,2.6184,2.6259,2.6212,2.5976,2.5681,2.6994,2.7075,2.6347,2.6759,2.6687,2.6303,2.5835,2.5662,2.5703,2.566,2.5657,2.5634,2.5564,2.5859,2.624,2.6213,2.6801,2.7659,2.8456,2.8418,2.8007,2.7535,2.6805,2.6105,2.5698,2.5611,2.5636,2.5605,2.5567,2.5543,2.5517,2.5493,2.5479,2.5465,2.5453,2.5441,2.542,2.5403,0.0,0.0,2.5581,2.5854,2.5939,2.6288,2.6604,2.6771,2.6828,2.7015,2.7425,2.746,2.7812,2.8651,2.8664,2.9045,2.9918,2.9385,2.8869,2.847,2.8915,2.9115,2.9078,2.9078,2.9078,2.9078,2.9078,2.9156,2.9348,2.9751,3.0197,3.0657,3.0603,3.0606,3.058,3.0503,3.044,3.041,3.0279,3.0147,3.0088,3.0491,3.0451,3.0451,3.0451,3.0451,3.0451,3.0451,3.0451,3.0441,3.0428,3.0417,3.0425,3.041,3.0398,3.0398,3.0398,2.9602,2.8832,2.8217,2.8179,2.8371,2.8794,2.9852,3.0402,3.0417,3.0417,3.0452,3.0521,2.9668,2.9311,2.9387,2.7857,2.715,2.72,2.7145,2.6809,2.6341,2.7832,2.7988,2.7277,2.7454,2.7415,2.718,2.6516,2.6125,2.5948,2.5908,2.5743,2.5564,2.5508,2.606,2.6767,2.6754,2.7478,2.8415,2.878,2.8353,2.7672,2.72,2.6509,2.5854,2.5659,2.5601,2.5601,2.557,2.5511,2.5463,2.5465,2.5459,2.5459,2.5459,2.5459,2.5517,2.5731,0.0,0.0,0.0,2.614,2.6455,2.6726,2.7292,2.7757,2.796,2.8039,2.8146,2.834,2.8325,2.8653,2.9487,2.9472,2.9757,3.0422,3.0526,3.0252,2.9663,3.0264,3.0271,2.9679,2.9679,2.9679,2.9679,2.9679,2.9713,2.9784,3.0353,3.0628,3.0661,3.0623,3.059,3.0609,3.0618,3.0607,3.0594,3.0594,3.0639,3.0737,3.0743,3.0587,3.0587,3.0587,3.0587,3.0587,3.0587,3.0587,3.0554,3.0498,3.049,3.0463,3.0421,3.0398,3.0398,3.0398,2.9602,2.9063,2.9006,2.9006,2.8698,2.8025,2.9544,3.0428,3.0481,3.049,3.0521,3.0594,2.9783,2.9411,2.9478,2.8527,2.8103,2.8103,2.8106,2.8021,2.7974,2.8841,2.8743,2.8071,2.8835,2.8679,2.8012,2.7954,2.7415,2.6714,2.6709,2.6189,2.5508,2.5421,2.5987,2.6707,2.6622,2.7729,2.8884,2.82,2.7431,2.6974,2.771,2.7365,2.661,2.5796,2.5601,2.5573,2.5511,2.5465,2.5391,2.5321,2.5313,2.5313,2.5313,2.5313,2.5582,2.64,0.0,0.0,2.7488,2.7044,2.689,2.7698,2.7832,2.789,2.7911,2.7971,2.831,2.9063,2.9175,2.9574,3.0456,3.05,3.052,3.0584,3.0479,3.0429,3.0413,3.0472,3.0512,3.0516,3.0516,3.0516,3.0516,3.0516,3.0516,3.0531,3.0575,3.0594,3.0608,3.0594,3.0599,3.0604,3.0674,3.064,3.0605,3.0605,3.1106,3.1767,3.1356,3.1452,3.1355,3.0609,3.1099,3.1348,3.0654,3.0575,3.0594,3.0561,3.0554,3.054,3.0521,3.0513,3.0513,3.0513,3.023,2.9823,2.9326,2.9713,2.9829,2.9535,3.015,3.0537,3.0554,3.0514,3.0529,3.0609,3.025,3.0115,3.0152,2.9291,2.8883,2.888,2.876,2.8378,2.7919,2.9147,2.9178,2.8444,2.8743,2.8788,2.8594,2.8063,2.775,2.7607,2.7556,2.7329,2.7043,2.6977,2.7499,2.8183,2.8161,2.8967,2.9852,2.9544,2.8878,2.8313,2.8642,2.7457,2.6005,2.5629,2.5543,2.5663,2.6133,2.6196,2.6294,2.6804,2.6909,2.6909,2.6909,2.6909,2.7024,2.7351,0.0,2.7089,2.7642,2.7867,2.8045,2.8256,2.8703,2.9011,2.9011,2.9161,2.9378,2.9678,3.0362,3.0695,3.0492,3.0492,3.0492,3.0492,3.0435,3.0439,3.0565,3.057,3.0575,3.0606,3.0606,3.0872,3.1397,3.0853,3.0892,3.1378,3.0833,3.0606,3.0606,3.0606,3.0606,3.0606,3.0638,3.0641,3.0652,3.0629,3.0894,3.1404,3.2221,3.2363,3.2246,3.1428,3.1953,3.2155,3.1093,3.0972,3.0999,3.0989,3.0986,3.1061,3.1301,3.1102,3.1044,3.1301,3.1083,3.081,3.0524,3.0985,3.1155,3.0884,3.1164,3.1328,3.134,3.1067,3.0937,3.1003,3.0687,3.0555,3.0586,2.9907,2.9608,2.9571,2.9352,2.8912,2.8391,2.9411,2.9486,2.8943,2.8943,2.906,2.9156,2.8568,2.8277,2.8184,2.8142,2.7956,2.7753,2.7777,2.8322,2.9025,2.9071,2.9506,2.9987,2.9987,2.9438,2.8816,2.8816,2.7634,2.6369,2.633,2.6304,2.6424,2.6982,2.7055,2.7178,2.7775,2.789,2.789,2.789,2.789,2.7956,2.8149,2.8157,2.8268,2.8603,2.911,2.9504,2.9618,2.9902,3.0073,3.0073,2.9964,3.0003,3.0269,3.0767,3.08,3.0207,3.0188,3.0188,3.0188,3.0188,3.0227,3.0308,3.0466,3.0482,3.041,3.0692,3.0964,3.1197,3.0945,3.1002,3.1282,3.0754,3.0537,3.0537,3.0537,3.0537,3.0545,3.0581,3.0623,3.0648,3.0624,3.0872,3.1347,3.3388,3.3213,3.3213,3.3193,3.3193,3.2901,3.2033,3.1916,3.1888,3.1828,3.1815,3.2082,3.2828,3.2186,3.203,3.2829,3.2167,3.2049,3.2849,3.2963,3.2628,3.1757,3.2478,3.2938,3.2998,3.2221,3.185,3.1916,3.1047,3.06,3.0619,3.0413,3.0269,3.0186,2.9926,2.976,2.9715,2.9715,2.9715,2.9715,2.9715,2.9715,2.9715,2.9715,2.9168,2.8414,2.8414,2.7907,2.7245,2.7438,2.8093,2.884,2.9056,2.9102,2.9102,2.9102,2.8599,2.8023,2.8023,2.8073,2.8112,2.8093,2.8054,2.8004,2.8004,2.7962,2.7909,2.7928,2.7928,2.7928,2.7928,2.7928,2.8123,2.8725,2.877,2.9251,3.0713,3.0904,3.1205,3.1996,3.1393,3.0903,3.0884,3.0167,3.0035,3.0828,3.0167,2.9715,2.9715,2.9696,2.9696,2.9696,2.9696,2.9696,2.9696,3.0155,3.0254,2.9999,3.0879,3.0747,2.9751,3.0804,3.0822,3.0013,3.0299,3.0398,3.0398,3.0398,3.0398,3.0414,3.0552,3.0554,3.0513,3.0661,3.1202,3.1875,3.3948,3.389,3.3716,3.3098,3.3538,3.3683,3.28,3.2749,3.2817,3.2783,3.2783,3.2867,3.3083,3.2893,3.2854,3.3083,3.2893,3.2814,3.2965,3.3557,3.3768,3.3461,3.3226,3.3112,3.3134,3.2803,3.2652,3.2665,3.2181,3.1937,3.1937,3.1669,3.1542,3.1495,3.0715,3.0676,3.1117,3.0368,3.0372,3.089,3.089,3.0671,3.0334,3.0334,2.9908,2.93,2.93,2.9168,2.8976,2.9182,2.9427,2.9699,2.9927,2.9883,2.9767,2.9951,2.9855,2.9676,2.9676,2.9563,2.9217,2.8263,2.7864,2.7881,2.8425,2.8393,2.865,2.9994,3.0141,3.025,3.0992,3.0982,3.0909,3.1087,3.1107,3.1241,3.1676,3.1261,3.1148,3.1792,3.1175,3.0607,3.0431,3.0362,3.0428,3.0671,3.111,3.1412,3.1449,3.0865,3.0281,2.9715,2.9696,2.9696,2.9696,2.9988,3.0018,2.978,3.0205,3.0462,3.0599,3.0459,3.0494,3.0701,3.0496,3.0299,3.0136,3.0323,3.0428,3.0463,3.0462,3.0537,3.0628,3.0521,3.0728,3.1092,3.4718,3.4718,3.4545,3.4026,3.441,3.4477,3.3619,3.3528,3.3596,3.3596,3.3596,3.3732,3.4081,3.379,3.3732,3.4081,3.4119,3.408,3.3986,3.4477,3.475,3.4718,3.4328,3.4052,3.3961,3.3442,3.3158,3.3158,3.2613,3.2327,3.2346,3.209,3.197,3.1952,3.1229,3.1191,3.1594,3.0943,3.0962,3.1384,3.1384,3.1028,3.045,3.045,3.0018,2.9436,2.9436,2.9436,2.9475,2.9696,2.9813,2.9908,3.0066,3.0003,2.9908,3.0085,3.0128,3.019,3.0515,3.0483,3.0247,2.9742,2.9008,2.8722,2.9855,2.9725,2.9806,3.1322,3.1484,3.1581,3.2215,3.2203,3.2071,3.1991,3.2252,3.2435,3.231,3.2157,3.2166,3.2543,3.1871,3.132,3.1189,3.102,3.0932,3.0932,3.1771,3.2179,3.1883,3.1397,3.0872,3.0387,3.0169,3.0058,3.0058,3.0354,3.0354,3.0058,3.0272,3.0519,3.0828,3.0617,3.0548,3.0585,3.0458,3.0328,3.0208,3.0359,3.0482,3.0545,3.0482,3.0545,3.0618,3.0518,3.0461,3.0475,3.5493,3.5493,3.5493,3.5493,3.5493,3.5238,3.443,3.4314,3.4314,3.4314,3.4314,3.4622,3.5411,3.4795,3.4641,3.543,3.5493,3.5493,3.5493,3.5493,3.5493,3.5493,3.5479,3.5354,3.507,3.4056,3.3524,3.3523,3.2693,3.2297,3.2277,3.2086,3.1972,3.1972,3.1636,3.1549,3.1604,3.1531,3.1549,3.1604,3.1604,3.1127,3.0411,3.0338,2.9824,2.9085,2.9012,2.8994,2.904,2.931,2.9532,2.9678,2.9696,2.9696,2.9678,2.9696,2.9753,2.996,3.0696,3.0922,3.1167,3.1919,3.096,3.0189,3.1674,3.1447,3.1165,3.1992,3.2236,3.2311,3.2331,3.2331,3.227,3.2017,3.2581,3.2988,3.2732,3.3293,3.3715,3.3788,3.3091,3.2614,3.2614,3.1935,3.1494,3.1494,3.2247,3.2357,3.1549,3.1494,3.1501,3.1434,3.0954,3.0716,3.0737,3.1159,3.1083,3.0514,3.0791,3.0791,3.0534,3.0987,3.0727,2.9994,3.0273,3.0432,3.0477,3.0485,3.0535,3.0585,3.058,3.0544,3.05,3.0548,3.0319,3.0027,3.5493,3.5493,3.5493,3.5493,3.5493,3.5449,3.5257,3.5218,3.5218,3.5218,3.5218,3.5295,3.5488,3.5334,3.5295,3.5474,3.5493,3.5493,3.5493,3.5493,3.5493,3.5493,3.5304,3.507,3.4793,3.4736,3.4623,3.443,3.3974,3.3728,3.3747,3.3494,3.3379,3.3342,3.2658,3.2687,3.3238,3.2614,3.2706,3.3275,3.3275,3.2797,3.2027,3.1384,3.0632,2.9861,2.9214,2.8994,2.904,2.931,2.9414,2.9494,2.9643,2.9589,2.9494,2.9643,3.0149,3.0695,3.0847,3.124,3.1704,3.2133,3.1389,3.0677,3.1201,3.122,3.1427,3.2428,3.3276,3.3907,3.4107,3.4278,3.4149,3.3471,3.3508,3.3611,3.355,3.3146,3.3091,3.3733,3.3091,3.2614,3.2614,3.2449,3.2339,3.2339,3.3091,3.3201,3.2394,3.2339,3.2152,3.173,3.161,3.1647,3.1845,3.1956,3.1296,2.9907,3.0793,3.0755,2.9888,3.0159,3.0113,2.9875,3.0293,3.0388,3.0276,3.0429,3.0511,3.0525,3.0468,3.0499,3.054,3.0236,3.0144,3.009,3.5493,3.5493,3.5493,3.5493,3.5493,3.5493,3.5493,3.5493,3.5493,3.5493,3.5493,3.5493,3.5493,3.5493,3.5493,3.5493,3.5493,3.5493,3.5493,3.5493,3.5493,3.5493,3.5239,3.4981,3.4713,3.4675,3.4532,3.4279,3.4111,3.3993,3.4012,3.3868,3.3807,3.377,3.3366,3.3421,3.377,3.3348,3.3421,3.3807,3.3807,3.333,3.2522,3.1715,3.0889,3.0099,2.9287,2.8994,2.9072,2.9603,2.9776,2.9872,3.0358,3.0423,3.0354,3.0488,3.0809,3.1219,3.1607,3.1922,3.2269,3.2639,3.2451,3.2161,3.2272,3.2018,3.2133,3.3443,3.4315,3.4916,3.506,3.5389,3.5349,3.4523,3.4376,3.4247,3.3844,3.344,3.333,3.3752,3.344,3.3183,3.3183,3.3183,3.3183,3.3183,3.3568,3.3684,3.3377,3.3358,3.3305,3.3189,3.294,3.2873,3.3023,3.3196,3.2644,3.1321,3.1335,3.1301,3.1153,3.0568,3.0231,3.015,3.0294,3.0303,3.0195,3.0185,3.0189,3.0205,3.0146,3.0164,3.0191,2.9958,2.9832,2.9869,3.5493,3.5493,3.5493,3.5493,3.5493,3.5493,3.5493,3.5493,3.5493,3.5493,3.5493,3.5493,3.5493,3.5493,3.5493,3.5493,3.5493,3.5493,3.5493,3.5493,3.5479,3.5432,3.5223,3.4944,3.4614,3.4357,3.4068,3.3807,3.3807,3.3807,3.3807,3.3807,3.3807,3.3807,3.3807,3.3807,3.3807,3.3734,3.3707,3.3707,3.3606,3.3177,3.252,3.1699,3.0896,3.0111,2.943,2.9193,2.9302,2.9958,3.0177,3.0312,3.1064,3.1309,3.1309,3.1384,3.1494,3.1751,3.243,3.2706,3.2857,3.314,3.3462,3.3754,3.3775,3.3318,3.3266,3.4551,3.54,3.5858,3.5732,3.6146,3.6211,3.5367,3.521,3.5,3.4321,3.4229,3.4174,3.4027,3.388,3.3889,3.4052,3.3942,3.3876,3.3954,3.3954,3.4062,3.4269,3.4297,3.4454,3.4775,3.4366,3.4159,3.4187,3.4489,3.4234,3.3454,3.2291,3.2105,3.2706,3.1476,3.0872,3.0781,3.0601,3.0505,3.0416,3.0202,3.009,3.0056,2.9988,3.0032,3.0086,2.9921,2.9681,2.9579,3.5493,3.5493,3.5493,3.5493,3.5493,3.5493,3.5493,3.5493,3.5493,3.5493,3.5493,3.5493,3.5493,3.5493,3.5493,3.5493,3.5493,3.5493,3.5493,3.5493,3.5403,3.5155,3.5122,3.4832,3.4288,3.4223,3.4068,3.3807,3.3807,3.3807,3.3807,3.3807,3.3807,3.3807,3.3807,3.3807,3.378,3.3437,3.3273,3.3243,3.284,3.261,3.2432,3.16,3.0836,3.019,3.0024,2.994,2.9976,3.0064,3.01,3.0208,3.0718,3.0884,3.0966,3.1309,3.1898,3.2467,3.2577,3.3109,3.3579,3.3284,3.3749,3.4329,3.4587,3.4774,3.4975,3.5183,3.6486,3.737,3.6669,3.6984,3.7055,3.6266,3.6119,3.6083,3.5973,3.5954,3.5679,3.4917,3.4229,3.4197,3.5163,3.4593,3.4265,3.4569,3.4591,3.4591,3.4632,3.468,3.4854,3.5115,3.5133,3.5191,3.5359,3.5181,3.5034,3.4909,3.3751,3.297,3.2539,3.2338,3.2143,3.1978,3.1941,3.1725,3.1407,3.1371,3.1085,3.0673,3.0686,3.0923,3.1203,3.0684,3.0097,2.9591,3.6719,3.6017,3.556,3.646,3.6131,3.5719,3.5719,3.5719,3.5567,3.511,3.519,3.5273,3.5273,3.5417,3.5493,3.5493,3.5493,3.5493,3.5493,3.5369,3.5433,3.5755,3.5474,3.5202,3.4926,3.521,3.509,3.4486,3.4027,3.3807,3.3807,3.3807,3.368,3.3447,3.3447,3.3332,3.3087,3.3166,3.3045,3.2809,3.289,3.2745,3.2396,3.1618,3.1105,3.0751,3.0264,3.0106,3.0176,3.0631,3.0773,3.0875,3.1524,3.193,3.2184,3.2355,3.2821,3.3275,3.3275,3.3532,3.3707,3.3302,3.3779,3.4321,3.4144,3.5155,3.6128,3.6306,3.7184,3.7785,3.746,3.7822,3.79,3.7092,3.6964,3.6798,3.6358,3.6303,3.6205,3.5999,3.5081,3.4792,3.5646,3.4801,3.4334,3.4674,3.4694,3.4775,3.4986,3.5005,3.5155,3.5476,3.5509,3.5483,3.5429,3.5326,3.5016,3.4573,3.4068,3.3451,3.2767,3.2551,3.2083,3.1478,3.159,3.1371,3.0907,3.0805,3.0765,3.0794,3.0794,3.0794,3.0798,3.0969,3.0289,2.9406]}]]